<?xml version="1.0" encoding="UTF-8"?>
<gpx version="1.1" creator="https://www.www-youtrack-es.amenigma.com" xsi:schemaLocation="http://www.topografix.com/GPX/1/1 http://www.topografix.com/GPX/1/1/gpx.xsd http://www.garmin.com/xmlschemas/GpxExtensions/v3 http://www.garmin.com/xmlschemas/GpxExtensionsv3.xsd http://www.garmin.com/xmlschemas/TrackPointExtension/v1 http://www.garmin.com/xmlschemas/TrackPointExtensionv1.xsd" xmlns:gpxtpx="http://www.garmin.com/xmlschemas/TrackPointExtension/v1" xmlns:gpxx="http://www.garmin.com/xmlschemas/GpxExtensions/v3" xmlns:xsi="http://www.w3.org/2001/XMLSchema-instance">
  <metadata>
    <link href="https://www.www-youtrack-es.amenigma.com">
      <text>YouTrack.es</text>
    </link>
    <time>2026-09-01T03:04:03Z</time>
  </metadata>
  <trk>
    <src>https://www.www-youtrack-es.amenigma.com</src>
    <link href="https://www.www-youtrack-es.amenigma.com/ruta/16531-pi-gros-faig-pare">
      <text>YouTrack.es</text>
    </link>
    <trkseg>
      <trkpt lat="40.700071" lon="0.227187">
        <ele>517.5</ele>
        <time>2020-10-10T09:35:33Z</time>
      </trkpt>
      <trkpt lat="40.700074" lon="0.227179">
        <ele>517.5</ele>
        <time>2020-10-10T09:35:34Z</time>
      </trkpt>
      <trkpt lat="40.700147" lon="0.227109">
        <ele>517.9</ele>
        <time>2020-10-10T09:35:43Z</time>
      </trkpt>
      <trkpt lat="40.700237" lon="0.227055">
        <ele>517.9</ele>
        <time>2020-10-10T09:35:53Z</time>
      </trkpt>
      <trkpt lat="40.700329" lon="0.227067">
        <ele>516.0</ele>
        <time>2020-10-10T09:36:14Z</time>
      </trkpt>
      <trkpt lat="40.700420" lon="0.227103">
        <ele>516.1</ele>
        <time>2020-10-10T09:36:41Z</time>
      </trkpt>
      <trkpt lat="40.700495" lon="0.227181">
        <ele>515.2</ele>
        <time>2020-10-10T09:36:48Z</time>
      </trkpt>
      <trkpt lat="40.700589" lon="0.227232">
        <ele>514.3</ele>
        <time>2020-10-10T09:36:59Z</time>
      </trkpt>
      <trkpt lat="40.700669" lon="0.227304">
        <ele>513.8</ele>
        <time>2020-10-10T09:37:12Z</time>
      </trkpt>
      <trkpt lat="40.700753" lon="0.227356">
        <ele>514.2</ele>
        <time>2020-10-10T09:37:21Z</time>
      </trkpt>
      <trkpt lat="40.700841" lon="0.227401">
        <ele>515.0</ele>
        <time>2020-10-10T09:37:29Z</time>
      </trkpt>
      <trkpt lat="40.700924" lon="0.227470">
        <ele>515.7</ele>
        <time>2020-10-10T09:37:37Z</time>
      </trkpt>
      <trkpt lat="40.701017" lon="0.227484">
        <ele>515.9</ele>
        <time>2020-10-10T09:37:46Z</time>
      </trkpt>
      <trkpt lat="40.701088" lon="0.227562">
        <ele>516.7</ele>
        <time>2020-10-10T09:37:55Z</time>
      </trkpt>
      <trkpt lat="40.701156" lon="0.227648">
        <ele>518.1</ele>
        <time>2020-10-10T09:38:19Z</time>
      </trkpt>
      <trkpt lat="40.701252" lon="0.227731">
        <ele>518.2</ele>
        <time>2020-10-10T09:38:28Z</time>
      </trkpt>
      <trkpt lat="40.701391" lon="0.227820">
        <ele>518.0</ele>
        <time>2020-10-10T09:38:39Z</time>
      </trkpt>
      <trkpt lat="40.701489" lon="0.227868">
        <ele>518.0</ele>
        <time>2020-10-10T09:38:47Z</time>
      </trkpt>
      <trkpt lat="40.701582" lon="0.227936">
        <ele>518.9</ele>
        <time>2020-10-10T09:38:53Z</time>
      </trkpt>
      <trkpt lat="40.701681" lon="0.227987">
        <ele>518.9</ele>
        <time>2020-10-10T09:38:58Z</time>
      </trkpt>
      <trkpt lat="40.701777" lon="0.228010">
        <ele>519.4</ele>
        <time>2020-10-10T09:39:04Z</time>
      </trkpt>
      <trkpt lat="40.701869" lon="0.228071">
        <ele>519.1</ele>
        <time>2020-10-10T09:39:12Z</time>
      </trkpt>
      <trkpt lat="40.701955" lon="0.228133">
        <ele>519.2</ele>
        <time>2020-10-10T09:39:19Z</time>
      </trkpt>
      <trkpt lat="40.702047" lon="0.228150">
        <ele>519.5</ele>
        <time>2020-10-10T09:39:32Z</time>
      </trkpt>
      <trkpt lat="40.702139" lon="0.228143">
        <ele>518.9</ele>
        <time>2020-10-10T09:39:45Z</time>
      </trkpt>
      <trkpt lat="40.702226" lon="0.228185">
        <ele>517.0</ele>
        <time>2020-10-10T09:40:10Z</time>
      </trkpt>
      <trkpt lat="40.702309" lon="0.228239">
        <ele>518.5</ele>
        <time>2020-10-10T09:40:17Z</time>
      </trkpt>
      <trkpt lat="40.702412" lon="0.228258">
        <ele>519.0</ele>
        <time>2020-10-10T09:40:27Z</time>
      </trkpt>
      <trkpt lat="40.702582" lon="0.228299">
        <ele>520.0</ele>
        <time>2020-10-10T09:40:37Z</time>
      </trkpt>
      <trkpt lat="40.702679" lon="0.228359">
        <ele>521.0</ele>
        <time>2020-10-10T09:40:45Z</time>
      </trkpt>
      <trkpt lat="40.702769" lon="0.228427">
        <ele>522.7</ele>
        <time>2020-10-10T09:40:56Z</time>
      </trkpt>
      <trkpt lat="40.702810" lon="0.228543">
        <ele>523.7</ele>
        <time>2020-10-10T09:41:18Z</time>
      </trkpt>
      <trkpt lat="40.702876" lon="0.228641">
        <ele>523.8</ele>
        <time>2020-10-10T09:41:22Z</time>
      </trkpt>
      <trkpt lat="40.702958" lon="0.228736">
        <ele>523.9</ele>
        <time>2020-10-10T09:41:28Z</time>
      </trkpt>
      <trkpt lat="40.703017" lon="0.228836">
        <ele>524.3</ele>
        <time>2020-10-10T09:41:37Z</time>
      </trkpt>
      <trkpt lat="40.703041" lon="0.228957">
        <ele>524.6</ele>
        <time>2020-10-10T09:41:46Z</time>
      </trkpt>
      <trkpt lat="40.703035" lon="0.229081">
        <ele>525.0</ele>
        <time>2020-10-10T09:41:54Z</time>
      </trkpt>
      <trkpt lat="40.703040" lon="0.229214">
        <ele>525.5</ele>
        <time>2020-10-10T09:41:59Z</time>
      </trkpt>
      <trkpt lat="40.702983" lon="0.229314">
        <ele>525.8</ele>
        <time>2020-10-10T09:42:11Z</time>
      </trkpt>
      <trkpt lat="40.702916" lon="0.229410">
        <ele>525.9</ele>
        <time>2020-10-10T09:42:18Z</time>
      </trkpt>
      <trkpt lat="40.702825" lon="0.229466">
        <ele>526.0</ele>
        <time>2020-10-10T09:42:24Z</time>
      </trkpt>
      <trkpt lat="40.702782" lon="0.229579">
        <ele>526.1</ele>
        <time>2020-10-10T09:42:30Z</time>
      </trkpt>
      <trkpt lat="40.702789" lon="0.229703">
        <ele>526.5</ele>
        <time>2020-10-10T09:42:35Z</time>
      </trkpt>
      <trkpt lat="40.702709" lon="0.229774">
        <ele>526.6</ele>
        <time>2020-10-10T09:42:43Z</time>
      </trkpt>
      <trkpt lat="40.702616" lon="0.229727">
        <ele>526.4</ele>
        <time>2020-10-10T09:42:51Z</time>
      </trkpt>
      <trkpt lat="40.702525" lon="0.229719">
        <ele>526.7</ele>
        <time>2020-10-10T09:42:57Z</time>
      </trkpt>
      <trkpt lat="40.702426" lon="0.229747">
        <ele>526.8</ele>
        <time>2020-10-10T09:43:07Z</time>
      </trkpt>
      <trkpt lat="40.702352" lon="0.229816">
        <ele>526.8</ele>
        <time>2020-10-10T09:43:16Z</time>
      </trkpt>
      <trkpt lat="40.702269" lon="0.229872">
        <ele>527.2</ele>
        <time>2020-10-10T09:43:21Z</time>
      </trkpt>
      <trkpt lat="40.702195" lon="0.229954">
        <ele>527.3</ele>
        <time>2020-10-10T09:43:27Z</time>
      </trkpt>
      <trkpt lat="40.702104" lon="0.229944">
        <ele>527.4</ele>
        <time>2020-10-10T09:43:31Z</time>
      </trkpt>
      <trkpt lat="40.702064" lon="0.230063">
        <ele>527.9</ele>
        <time>2020-10-10T09:43:38Z</time>
      </trkpt>
      <trkpt lat="40.701979" lon="0.230109">
        <ele>528.3</ele>
        <time>2020-10-10T09:43:45Z</time>
      </trkpt>
      <trkpt lat="40.701980" lon="0.230247">
        <ele>527.8</ele>
        <time>2020-10-10T09:44:05Z</time>
      </trkpt>
      <trkpt lat="40.701940" lon="0.230357">
        <ele>528.0</ele>
        <time>2020-10-10T09:44:19Z</time>
      </trkpt>
      <trkpt lat="40.701917" lon="0.230476">
        <ele>528.3</ele>
        <time>2020-10-10T09:44:28Z</time>
      </trkpt>
      <trkpt lat="40.701908" lon="0.230595">
        <ele>529.0</ele>
        <time>2020-10-10T09:44:43Z</time>
      </trkpt>
      <trkpt lat="40.701922" lon="0.230719">
        <ele>528.5</ele>
        <time>2020-10-10T09:46:11Z</time>
      </trkpt>
      <trkpt lat="40.701861" lon="0.230815">
        <ele>529.0</ele>
        <time>2020-10-10T09:46:20Z</time>
      </trkpt>
      <trkpt lat="40.701877" lon="0.230940">
        <ele>529.8</ele>
        <time>2020-10-10T09:46:33Z</time>
      </trkpt>
      <trkpt lat="40.701814" lon="0.231037">
        <ele>530.6</ele>
        <time>2020-10-10T09:46:43Z</time>
      </trkpt>
      <trkpt lat="40.701801" lon="0.231163">
        <ele>530.8</ele>
        <time>2020-10-10T09:46:51Z</time>
      </trkpt>
      <trkpt lat="40.701822" lon="0.231285">
        <ele>531.5</ele>
        <time>2020-10-10T09:46:58Z</time>
      </trkpt>
      <trkpt lat="40.701849" lon="0.231414">
        <ele>531.8</ele>
        <time>2020-10-10T09:47:05Z</time>
      </trkpt>
      <trkpt lat="40.701905" lon="0.231508">
        <ele>532.6</ele>
        <time>2020-10-10T09:47:12Z</time>
      </trkpt>
      <trkpt lat="40.701984" lon="0.231580">
        <ele>533.0</ele>
        <time>2020-10-10T09:47:17Z</time>
      </trkpt>
      <trkpt lat="40.702047" lon="0.231674">
        <ele>533.6</ele>
        <time>2020-10-10T09:47:24Z</time>
      </trkpt>
      <trkpt lat="40.702139" lon="0.231732">
        <ele>534.1</ele>
        <time>2020-10-10T09:47:32Z</time>
      </trkpt>
      <trkpt lat="40.702213" lon="0.231821">
        <ele>534.8</ele>
        <time>2020-10-10T09:47:41Z</time>
      </trkpt>
      <trkpt lat="40.702262" lon="0.231926">
        <ele>535.2</ele>
        <time>2020-10-10T09:47:49Z</time>
      </trkpt>
      <trkpt lat="40.702333" lon="0.232013">
        <ele>536.0</ele>
        <time>2020-10-10T09:47:57Z</time>
      </trkpt>
      <trkpt lat="40.702384" lon="0.232113">
        <ele>536.7</ele>
        <time>2020-10-10T09:48:06Z</time>
      </trkpt>
      <trkpt lat="40.702472" lon="0.232150">
        <ele>536.0</ele>
        <time>2020-10-10T09:48:20Z</time>
      </trkpt>
      <trkpt lat="40.702551" lon="0.232221">
        <ele>536.6</ele>
        <time>2020-10-10T09:48:27Z</time>
      </trkpt>
      <trkpt lat="40.702612" lon="0.232309">
        <ele>536.9</ele>
        <time>2020-10-10T09:48:33Z</time>
      </trkpt>
      <trkpt lat="40.702662" lon="0.232408">
        <ele>536.6</ele>
        <time>2020-10-10T09:48:38Z</time>
      </trkpt>
      <trkpt lat="40.702753" lon="0.232414">
        <ele>537.3</ele>
        <time>2020-10-10T09:48:52Z</time>
      </trkpt>
      <trkpt lat="40.702840" lon="0.232496">
        <ele>537.6</ele>
        <time>2020-10-10T09:48:58Z</time>
      </trkpt>
      <trkpt lat="40.702928" lon="0.232534">
        <ele>537.3</ele>
        <time>2020-10-10T09:49:04Z</time>
      </trkpt>
      <trkpt lat="40.703002" lon="0.232617">
        <ele>538.0</ele>
        <time>2020-10-10T09:49:17Z</time>
      </trkpt>
      <trkpt lat="40.703001" lon="0.232747">
        <ele>538.7</ele>
        <time>2020-10-10T09:49:25Z</time>
      </trkpt>
      <trkpt lat="40.703025" lon="0.232862">
        <ele>539.6</ele>
        <time>2020-10-10T09:49:36Z</time>
      </trkpt>
      <trkpt lat="40.703077" lon="0.232975">
        <ele>539.4</ele>
        <time>2020-10-10T09:49:46Z</time>
      </trkpt>
      <trkpt lat="40.703147" lon="0.233067">
        <ele>540.4</ele>
        <time>2020-10-10T09:50:37Z</time>
      </trkpt>
      <trkpt lat="40.703236" lon="0.233096">
        <ele>540.8</ele>
        <time>2020-10-10T09:50:44Z</time>
      </trkpt>
      <trkpt lat="40.703280" lon="0.233213">
        <ele>541.0</ele>
        <time>2020-10-10T09:50:52Z</time>
      </trkpt>
      <trkpt lat="40.703363" lon="0.233276">
        <ele>542.2</ele>
        <time>2020-10-10T09:51:03Z</time>
      </trkpt>
      <trkpt lat="40.703307" lon="0.233388">
        <ele>542.6</ele>
        <time>2020-10-10T09:51:11Z</time>
      </trkpt>
      <trkpt lat="40.703243" lon="0.233488">
        <ele>543.3</ele>
        <time>2020-10-10T09:51:17Z</time>
      </trkpt>
      <trkpt lat="40.703166" lon="0.233560">
        <ele>543.4</ele>
        <time>2020-10-10T09:51:25Z</time>
      </trkpt>
      <trkpt lat="40.703197" lon="0.233681">
        <ele>543.9</ele>
        <time>2020-10-10T09:51:35Z</time>
      </trkpt>
      <trkpt lat="40.703262" lon="0.233797">
        <ele>544.0</ele>
        <time>2020-10-10T09:51:43Z</time>
      </trkpt>
      <trkpt lat="40.703304" lon="0.233926">
        <ele>545.4</ele>
        <time>2020-10-10T09:51:51Z</time>
      </trkpt>
      <trkpt lat="40.703393" lon="0.233985">
        <ele>545.4</ele>
        <time>2020-10-10T09:51:55Z</time>
      </trkpt>
      <trkpt lat="40.703476" lon="0.234096">
        <ele>546.0</ele>
        <time>2020-10-10T09:52:03Z</time>
      </trkpt>
      <trkpt lat="40.703535" lon="0.234190">
        <ele>547.0</ele>
        <time>2020-10-10T09:52:11Z</time>
      </trkpt>
      <trkpt lat="40.703578" lon="0.234318">
        <ele>548.0</ele>
        <time>2020-10-10T09:52:19Z</time>
      </trkpt>
      <trkpt lat="40.703642" lon="0.234452">
        <ele>549.0</ele>
        <time>2020-10-10T09:52:27Z</time>
      </trkpt>
      <trkpt lat="40.703749" lon="0.234485">
        <ele>549.0</ele>
        <time>2020-10-10T09:52:43Z</time>
      </trkpt>
      <trkpt lat="40.703878" lon="0.234539">
        <ele>550.7</ele>
        <time>2020-10-10T09:52:55Z</time>
      </trkpt>
      <trkpt lat="40.703949" lon="0.234649">
        <ele>550.0</ele>
        <time>2020-10-10T09:53:05Z</time>
      </trkpt>
      <trkpt lat="40.703860" lon="0.234826">
        <ele>551.0</ele>
        <time>2020-10-10T09:53:14Z</time>
      </trkpt>
      <trkpt lat="40.703944" lon="0.234895">
        <ele>552.9</ele>
        <time>2020-10-10T09:53:25Z</time>
      </trkpt>
      <trkpt lat="40.704039" lon="0.234956">
        <ele>553.0</ele>
        <time>2020-10-10T09:53:36Z</time>
      </trkpt>
      <trkpt lat="40.704177" lon="0.234968">
        <ele>553.4</ele>
        <time>2020-10-10T09:53:39Z</time>
      </trkpt>
      <trkpt lat="40.704280" lon="0.234979">
        <ele>553.5</ele>
        <time>2020-10-10T09:53:43Z</time>
      </trkpt>
      <trkpt lat="40.704382" lon="0.234997">
        <ele>552.9</ele>
        <time>2020-10-10T09:53:52Z</time>
      </trkpt>
      <trkpt lat="40.704445" lon="0.234891">
        <ele>552.7</ele>
        <time>2020-10-10T09:54:02Z</time>
      </trkpt>
      <trkpt lat="40.704542" lon="0.234883">
        <ele>552.6</ele>
        <time>2020-10-10T09:54:08Z</time>
      </trkpt>
      <trkpt lat="40.704580" lon="0.234775">
        <ele>552.4</ele>
        <time>2020-10-10T09:54:19Z</time>
      </trkpt>
      <trkpt lat="40.704643" lon="0.234653">
        <ele>552.4</ele>
        <time>2020-10-10T09:54:28Z</time>
      </trkpt>
      <trkpt lat="40.704666" lon="0.234536">
        <ele>552.1</ele>
        <time>2020-10-10T09:54:34Z</time>
      </trkpt>
      <trkpt lat="40.704780" lon="0.234538">
        <ele>552.6</ele>
        <time>2020-10-10T09:54:39Z</time>
      </trkpt>
      <trkpt lat="40.704802" lon="0.234409">
        <ele>552.7</ele>
        <time>2020-10-10T09:54:45Z</time>
      </trkpt>
      <trkpt lat="40.704768" lon="0.234280">
        <ele>553.0</ele>
        <time>2020-10-10T09:54:52Z</time>
      </trkpt>
      <trkpt lat="40.704868" lon="0.234274">
        <ele>552.9</ele>
        <time>2020-10-10T09:55:03Z</time>
      </trkpt>
      <trkpt lat="40.704960" lon="0.234247">
        <ele>553.1</ele>
        <time>2020-10-10T09:55:09Z</time>
      </trkpt>
      <trkpt lat="40.705060" lon="0.234242">
        <ele>553.2</ele>
        <time>2020-10-10T09:55:14Z</time>
      </trkpt>
      <trkpt lat="40.705153" lon="0.234241">
        <ele>552.9</ele>
        <time>2020-10-10T09:55:21Z</time>
      </trkpt>
      <trkpt lat="40.705245" lon="0.234275">
        <ele>552.4</ele>
        <time>2020-10-10T09:55:44Z</time>
      </trkpt>
      <trkpt lat="40.705333" lon="0.234342">
        <ele>552.3</ele>
        <time>2020-10-10T09:55:51Z</time>
      </trkpt>
      <trkpt lat="40.705405" lon="0.234416">
        <ele>552.4</ele>
        <time>2020-10-10T09:55:55Z</time>
      </trkpt>
      <trkpt lat="40.705498" lon="0.234488">
        <ele>552.5</ele>
        <time>2020-10-10T09:56:01Z</time>
      </trkpt>
      <trkpt lat="40.705588" lon="0.234546">
        <ele>552.5</ele>
        <time>2020-10-10T09:56:09Z</time>
      </trkpt>
      <trkpt lat="40.705673" lon="0.234606">
        <ele>552.4</ele>
        <time>2020-10-10T09:56:17Z</time>
      </trkpt>
      <trkpt lat="40.705771" lon="0.234681">
        <ele>552.3</ele>
        <time>2020-10-10T09:56:28Z</time>
      </trkpt>
      <trkpt lat="40.705853" lon="0.234623">
        <ele>552.8</ele>
        <time>2020-10-10T09:56:39Z</time>
      </trkpt>
      <trkpt lat="40.705929" lon="0.234686">
        <ele>552.9</ele>
        <time>2020-10-10T09:56:55Z</time>
      </trkpt>
      <trkpt lat="40.706008" lon="0.234760">
        <ele>552.9</ele>
        <time>2020-10-10T09:57:13Z</time>
      </trkpt>
      <trkpt lat="40.705978" lon="0.234873">
        <ele>553.3</ele>
        <time>2020-10-10T09:57:28Z</time>
      </trkpt>
      <trkpt lat="40.706024" lon="0.235013">
        <ele>553.4</ele>
        <time>2020-10-10T09:57:39Z</time>
      </trkpt>
      <trkpt lat="40.706112" lon="0.235068">
        <ele>553.8</ele>
        <time>2020-10-10T09:57:58Z</time>
      </trkpt>
      <trkpt lat="40.706196" lon="0.235119">
        <ele>554.0</ele>
        <time>2020-10-10T09:58:21Z</time>
      </trkpt>
      <trkpt lat="40.706266" lon="0.235210">
        <ele>554.2</ele>
        <time>2020-10-10T09:58:27Z</time>
      </trkpt>
      <trkpt lat="40.706351" lon="0.235267">
        <ele>554.7</ele>
        <time>2020-10-10T09:58:33Z</time>
      </trkpt>
      <trkpt lat="40.706430" lon="0.235359">
        <ele>555.1</ele>
        <time>2020-10-10T09:58:40Z</time>
      </trkpt>
      <trkpt lat="40.706503" lon="0.235446">
        <ele>555.2</ele>
        <time>2020-10-10T09:58:51Z</time>
      </trkpt>
      <trkpt lat="40.706567" lon="0.235552">
        <ele>555.3</ele>
        <time>2020-10-10T09:58:56Z</time>
      </trkpt>
      <trkpt lat="40.706629" lon="0.235650">
        <ele>555.3</ele>
        <time>2020-10-10T09:59:05Z</time>
      </trkpt>
      <trkpt lat="40.706700" lon="0.235773">
        <ele>555.8</ele>
        <time>2020-10-10T09:59:17Z</time>
      </trkpt>
      <trkpt lat="40.706751" lon="0.235902">
        <ele>555.2</ele>
        <time>2020-10-10T09:59:25Z</time>
      </trkpt>
      <trkpt lat="40.706810" lon="0.236016">
        <ele>555.0</ele>
        <time>2020-10-10T09:59:32Z</time>
      </trkpt>
      <trkpt lat="40.706776" lon="0.236169">
        <ele>555.0</ele>
        <time>2020-10-10T09:59:41Z</time>
      </trkpt>
      <trkpt lat="40.706805" lon="0.236332">
        <ele>556.0</ele>
        <time>2020-10-10T09:59:51Z</time>
      </trkpt>
      <trkpt lat="40.706813" lon="0.236456">
        <ele>556.2</ele>
        <time>2020-10-10T09:59:59Z</time>
      </trkpt>
      <trkpt lat="40.706896" lon="0.236555">
        <ele>556.4</ele>
        <time>2020-10-10T10:00:08Z</time>
      </trkpt>
      <trkpt lat="40.706990" lon="0.236558">
        <ele>556.5</ele>
        <time>2020-10-10T10:00:16Z</time>
      </trkpt>
      <trkpt lat="40.706902" lon="0.236516">
        <ele>557.7</ele>
        <time>2020-10-10T10:00:36Z</time>
      </trkpt>
      <trkpt lat="40.706993" lon="0.236474">
        <ele>558.9</ele>
        <time>2020-10-10T10:00:49Z</time>
      </trkpt>
      <trkpt lat="40.707087" lon="0.236452">
        <ele>559.8</ele>
        <time>2020-10-10T10:01:01Z</time>
      </trkpt>
      <trkpt lat="40.707168" lon="0.236388">
        <ele>559.9</ele>
        <time>2020-10-10T10:01:04Z</time>
      </trkpt>
      <trkpt lat="40.707262" lon="0.236379">
        <ele>560.1</ele>
        <time>2020-10-10T10:01:10Z</time>
      </trkpt>
      <trkpt lat="40.707358" lon="0.236358">
        <ele>560.5</ele>
        <time>2020-10-10T10:01:37Z</time>
      </trkpt>
      <trkpt lat="40.707447" lon="0.236399">
        <ele>561.0</ele>
        <time>2020-10-10T10:01:46Z</time>
      </trkpt>
      <trkpt lat="40.707544" lon="0.236402">
        <ele>561.6</ele>
        <time>2020-10-10T10:01:53Z</time>
      </trkpt>
      <trkpt lat="40.707678" lon="0.236326">
        <ele>561.0</ele>
        <time>2020-10-10T10:02:03Z</time>
      </trkpt>
      <trkpt lat="40.707767" lon="0.236303">
        <ele>562.1</ele>
        <time>2020-10-10T10:02:10Z</time>
      </trkpt>
      <trkpt lat="40.707855" lon="0.236234">
        <ele>562.6</ele>
        <time>2020-10-10T10:02:14Z</time>
      </trkpt>
      <trkpt lat="40.707949" lon="0.236273">
        <ele>563.2</ele>
        <time>2020-10-10T10:02:17Z</time>
      </trkpt>
      <trkpt lat="40.708044" lon="0.236247">
        <ele>563.5</ele>
        <time>2020-10-10T10:02:23Z</time>
      </trkpt>
      <trkpt lat="40.708131" lon="0.236173">
        <ele>563.5</ele>
        <time>2020-10-10T10:02:29Z</time>
      </trkpt>
      <trkpt lat="40.708243" lon="0.236132">
        <ele>563.7</ele>
        <time>2020-10-10T10:02:36Z</time>
      </trkpt>
      <trkpt lat="40.708338" lon="0.236134">
        <ele>564.0</ele>
        <time>2020-10-10T10:02:39Z</time>
      </trkpt>
      <trkpt lat="40.708445" lon="0.236118">
        <ele>563.0</ele>
        <time>2020-10-10T10:02:45Z</time>
      </trkpt>
      <trkpt lat="40.708541" lon="0.236131">
        <ele>564.2</ele>
        <time>2020-10-10T10:02:49Z</time>
      </trkpt>
      <trkpt lat="40.708650" lon="0.236182">
        <ele>564.0</ele>
        <time>2020-10-10T10:02:53Z</time>
      </trkpt>
      <trkpt lat="40.708790" lon="0.236239">
        <ele>565.0</ele>
        <time>2020-10-10T10:02:58Z</time>
      </trkpt>
      <trkpt lat="40.708947" lon="0.236328">
        <ele>566.0</ele>
        <time>2020-10-10T10:03:10Z</time>
      </trkpt>
      <trkpt lat="40.709025" lon="0.236239">
        <ele>567.0</ele>
        <time>2020-10-10T10:03:15Z</time>
      </trkpt>
      <trkpt lat="40.709141" lon="0.236259">
        <ele>567.3</ele>
        <time>2020-10-10T10:03:19Z</time>
      </trkpt>
      <trkpt lat="40.709243" lon="0.236287">
        <ele>567.6</ele>
        <time>2020-10-10T10:03:22Z</time>
      </trkpt>
      <trkpt lat="40.709313" lon="0.236365">
        <ele>567.8</ele>
        <time>2020-10-10T10:03:28Z</time>
      </trkpt>
      <trkpt lat="40.709404" lon="0.236462">
        <ele>568.0</ele>
        <time>2020-10-10T10:03:36Z</time>
      </trkpt>
      <trkpt lat="40.709521" lon="0.236521">
        <ele>568.0</ele>
        <time>2020-10-10T10:03:44Z</time>
      </trkpt>
      <trkpt lat="40.709575" lon="0.236660">
        <ele>568.0</ele>
        <time>2020-10-10T10:03:51Z</time>
      </trkpt>
      <trkpt lat="40.709478" lon="0.236648">
        <ele>567.0</ele>
        <time>2020-10-10T10:04:05Z</time>
      </trkpt>
      <trkpt lat="40.709366" lon="0.236608">
        <ele>566.7</ele>
        <time>2020-10-10T10:04:09Z</time>
      </trkpt>
      <trkpt lat="40.709280" lon="0.236554">
        <ele>566.2</ele>
        <time>2020-10-10T10:04:15Z</time>
      </trkpt>
      <trkpt lat="40.709315" lon="0.236693">
        <ele>564.6</ele>
        <time>2020-10-10T10:04:35Z</time>
      </trkpt>
      <trkpt lat="40.709395" lon="0.236768">
        <ele>564.6</ele>
        <time>2020-10-10T10:04:39Z</time>
      </trkpt>
      <trkpt lat="40.709400" lon="0.236889">
        <ele>564.2</ele>
        <time>2020-10-10T10:04:51Z</time>
      </trkpt>
      <trkpt lat="40.709486" lon="0.236928">
        <ele>564.3</ele>
        <time>2020-10-10T10:04:55Z</time>
      </trkpt>
      <trkpt lat="40.709567" lon="0.236987">
        <ele>564.6</ele>
        <time>2020-10-10T10:05:05Z</time>
      </trkpt>
      <trkpt lat="40.709672" lon="0.237022">
        <ele>565.7</ele>
        <time>2020-10-10T10:05:53Z</time>
      </trkpt>
      <trkpt lat="40.709774" lon="0.237134">
        <ele>565.8</ele>
        <time>2020-10-10T10:06:00Z</time>
      </trkpt>
      <trkpt lat="40.709860" lon="0.237080">
        <ele>566.3</ele>
        <time>2020-10-10T10:06:18Z</time>
      </trkpt>
      <trkpt lat="40.709956" lon="0.237057">
        <ele>565.9</ele>
        <time>2020-10-10T10:06:26Z</time>
      </trkpt>
      <trkpt lat="40.710044" lon="0.237100">
        <ele>566.2</ele>
        <time>2020-10-10T10:06:32Z</time>
      </trkpt>
      <trkpt lat="40.710137" lon="0.237112">
        <ele>566.8</ele>
        <time>2020-10-10T10:06:37Z</time>
      </trkpt>
      <trkpt lat="40.710239" lon="0.237081">
        <ele>566.7</ele>
        <time>2020-10-10T10:06:44Z</time>
      </trkpt>
      <trkpt lat="40.710336" lon="0.237086">
        <ele>566.5</ele>
        <time>2020-10-10T10:06:48Z</time>
      </trkpt>
      <trkpt lat="40.710440" lon="0.237096">
        <ele>566.6</ele>
        <time>2020-10-10T10:06:53Z</time>
      </trkpt>
      <trkpt lat="40.710532" lon="0.237062">
        <ele>567.0</ele>
        <time>2020-10-10T10:07:00Z</time>
      </trkpt>
      <trkpt lat="40.710626" lon="0.237023">
        <ele>567.0</ele>
        <time>2020-10-10T10:07:07Z</time>
      </trkpt>
      <trkpt lat="40.710735" lon="0.237067">
        <ele>567.3</ele>
        <time>2020-10-10T10:07:18Z</time>
      </trkpt>
      <trkpt lat="40.710830" lon="0.237039">
        <ele>566.0</ele>
        <time>2020-10-10T10:07:44Z</time>
      </trkpt>
      <trkpt lat="40.710928" lon="0.237015">
        <ele>567.0</ele>
        <time>2020-10-10T10:08:00Z</time>
      </trkpt>
      <trkpt lat="40.711046" lon="0.237082">
        <ele>567.0</ele>
        <time>2020-10-10T10:08:16Z</time>
      </trkpt>
      <trkpt lat="40.711151" lon="0.237115">
        <ele>567.0</ele>
        <time>2020-10-10T10:08:36Z</time>
      </trkpt>
      <trkpt lat="40.711255" lon="0.237160">
        <ele>567.0</ele>
        <time>2020-10-10T10:08:44Z</time>
      </trkpt>
      <trkpt lat="40.711343" lon="0.237185">
        <ele>567.0</ele>
        <time>2020-10-10T10:08:56Z</time>
      </trkpt>
      <trkpt lat="40.711444" lon="0.237220">
        <ele>567.0</ele>
        <time>2020-10-10T10:09:04Z</time>
      </trkpt>
      <trkpt lat="40.711542" lon="0.237297">
        <ele>568.0</ele>
        <time>2020-10-10T10:09:16Z</time>
      </trkpt>
      <trkpt lat="40.711638" lon="0.237279">
        <ele>569.0</ele>
        <time>2020-10-10T10:09:28Z</time>
      </trkpt>
      <trkpt lat="40.711737" lon="0.237324">
        <ele>569.0</ele>
        <time>2020-10-10T10:09:44Z</time>
      </trkpt>
      <trkpt lat="40.711793" lon="0.237430">
        <ele>570.0</ele>
        <time>2020-10-10T10:09:52Z</time>
      </trkpt>
      <trkpt lat="40.711838" lon="0.237566">
        <ele>570.0</ele>
        <time>2020-10-10T10:10:04Z</time>
      </trkpt>
      <trkpt lat="40.711795" lon="0.237702">
        <ele>571.0</ele>
        <time>2020-10-10T10:10:20Z</time>
      </trkpt>
      <trkpt lat="40.711818" lon="0.237852">
        <ele>571.0</ele>
        <time>2020-10-10T10:10:36Z</time>
      </trkpt>
      <trkpt lat="40.711860" lon="0.237960">
        <ele>572.0</ele>
        <time>2020-10-10T10:10:44Z</time>
      </trkpt>
      <trkpt lat="40.711872" lon="0.238084">
        <ele>573.0</ele>
        <time>2020-10-10T10:10:52Z</time>
      </trkpt>
      <trkpt lat="40.711816" lon="0.238193">
        <ele>573.0</ele>
        <time>2020-10-10T10:11:00Z</time>
      </trkpt>
      <trkpt lat="40.711766" lon="0.238301">
        <ele>573.0</ele>
        <time>2020-10-10T10:11:08Z</time>
      </trkpt>
      <trkpt lat="40.711642" lon="0.238306">
        <ele>574.0</ele>
        <time>2020-10-10T10:11:16Z</time>
      </trkpt>
      <trkpt lat="40.711544" lon="0.238380">
        <ele>575.0</ele>
        <time>2020-10-10T10:11:24Z</time>
      </trkpt>
      <trkpt lat="40.711476" lon="0.238458">
        <ele>576.0</ele>
        <time>2020-10-10T10:11:32Z</time>
      </trkpt>
      <trkpt lat="40.711387" lon="0.238587">
        <ele>577.0</ele>
        <time>2020-10-10T10:11:44Z</time>
      </trkpt>
      <trkpt lat="40.711394" lon="0.238779">
        <ele>578.0</ele>
        <time>2020-10-10T10:11:52Z</time>
      </trkpt>
      <trkpt lat="40.711434" lon="0.238937">
        <ele>579.0</ele>
        <time>2020-10-10T10:12:00Z</time>
      </trkpt>
      <trkpt lat="40.711486" lon="0.239068">
        <ele>579.5</ele>
        <time>2020-10-10T10:12:11Z</time>
      </trkpt>
      <trkpt lat="40.711516" lon="0.239186">
        <ele>580.1</ele>
        <time>2020-10-10T10:12:16Z</time>
      </trkpt>
      <trkpt lat="40.711554" lon="0.239314">
        <ele>580.0</ele>
        <time>2020-10-10T10:12:21Z</time>
      </trkpt>
      <trkpt lat="40.711607" lon="0.239443">
        <ele>580.7</ele>
        <time>2020-10-10T10:12:25Z</time>
      </trkpt>
      <trkpt lat="40.711611" lon="0.239574">
        <ele>580.8</ele>
        <time>2020-10-10T10:12:32Z</time>
      </trkpt>
      <trkpt lat="40.711668" lon="0.239688">
        <ele>582.1</ele>
        <time>2020-10-10T10:12:50Z</time>
      </trkpt>
      <trkpt lat="40.711724" lon="0.239790">
        <ele>583.1</ele>
        <time>2020-10-10T10:13:04Z</time>
      </trkpt>
      <trkpt lat="40.711779" lon="0.239890">
        <ele>584.3</ele>
        <time>2020-10-10T10:13:17Z</time>
      </trkpt>
      <trkpt lat="40.711848" lon="0.239978">
        <ele>586.0</ele>
        <time>2020-10-10T10:13:30Z</time>
      </trkpt>
      <trkpt lat="40.711897" lon="0.240087">
        <ele>586.9</ele>
        <time>2020-10-10T10:13:41Z</time>
      </trkpt>
      <trkpt lat="40.711914" lon="0.240211">
        <ele>587.5</ele>
        <time>2020-10-10T10:13:50Z</time>
      </trkpt>
      <trkpt lat="40.711942" lon="0.240338">
        <ele>588.7</ele>
        <time>2020-10-10T10:13:57Z</time>
      </trkpt>
      <trkpt lat="40.712009" lon="0.240420">
        <ele>589.1</ele>
        <time>2020-10-10T10:14:07Z</time>
      </trkpt>
      <trkpt lat="40.712022" lon="0.240284">
        <ele>590.2</ele>
        <time>2020-10-10T10:14:17Z</time>
      </trkpt>
      <trkpt lat="40.712075" lon="0.240381">
        <ele>591.3</ele>
        <time>2020-10-10T10:14:31Z</time>
      </trkpt>
      <trkpt lat="40.712103" lon="0.240499">
        <ele>592.4</ele>
        <time>2020-10-10T10:14:44Z</time>
      </trkpt>
      <trkpt lat="40.712180" lon="0.240575">
        <ele>593.6</ele>
        <time>2020-10-10T10:14:56Z</time>
      </trkpt>
      <trkpt lat="40.712267" lon="0.240644">
        <ele>593.7</ele>
        <time>2020-10-10T10:15:02Z</time>
      </trkpt>
      <trkpt lat="40.712348" lon="0.240698">
        <ele>593.6</ele>
        <time>2020-10-10T10:15:09Z</time>
      </trkpt>
      <trkpt lat="40.712413" lon="0.240799">
        <ele>593.3</ele>
        <time>2020-10-10T10:15:16Z</time>
      </trkpt>
      <trkpt lat="40.712412" lon="0.240925">
        <ele>593.6</ele>
        <time>2020-10-10T10:15:28Z</time>
      </trkpt>
      <trkpt lat="40.712426" lon="0.241051">
        <ele>593.0</ele>
        <time>2020-10-10T10:15:44Z</time>
      </trkpt>
      <trkpt lat="40.712444" lon="0.241170">
        <ele>593.4</ele>
        <time>2020-10-10T10:15:49Z</time>
      </trkpt>
      <trkpt lat="40.712476" lon="0.241288">
        <ele>593.2</ele>
        <time>2020-10-10T10:15:54Z</time>
      </trkpt>
      <trkpt lat="40.712446" lon="0.241410">
        <ele>593.4</ele>
        <time>2020-10-10T10:16:25Z</time>
      </trkpt>
      <trkpt lat="40.712474" lon="0.241542">
        <ele>593.8</ele>
        <time>2020-10-10T10:16:34Z</time>
      </trkpt>
      <trkpt lat="40.712481" lon="0.241683">
        <ele>594.4</ele>
        <time>2020-10-10T10:16:42Z</time>
      </trkpt>
      <trkpt lat="40.712533" lon="0.241790">
        <ele>595.4</ele>
        <time>2020-10-10T10:16:53Z</time>
      </trkpt>
      <trkpt lat="40.712581" lon="0.241906">
        <ele>595.6</ele>
        <time>2020-10-10T10:16:59Z</time>
      </trkpt>
      <trkpt lat="40.712635" lon="0.242006">
        <ele>595.8</ele>
        <time>2020-10-10T10:17:12Z</time>
      </trkpt>
      <trkpt lat="40.712666" lon="0.242119">
        <ele>596.4</ele>
        <time>2020-10-10T10:17:22Z</time>
      </trkpt>
      <trkpt lat="40.712713" lon="0.242257">
        <ele>597.2</ele>
        <time>2020-10-10T10:17:31Z</time>
      </trkpt>
      <trkpt lat="40.712695" lon="0.242380">
        <ele>598.2</ele>
        <time>2020-10-10T10:17:41Z</time>
      </trkpt>
      <trkpt lat="40.712693" lon="0.242502">
        <ele>599.1</ele>
        <time>2020-10-10T10:17:50Z</time>
      </trkpt>
      <trkpt lat="40.712687" lon="0.242629">
        <ele>599.8</ele>
        <time>2020-10-10T10:17:58Z</time>
      </trkpt>
      <trkpt lat="40.712701" lon="0.242753">
        <ele>600.8</ele>
        <time>2020-10-10T10:18:06Z</time>
      </trkpt>
      <trkpt lat="40.712700" lon="0.242876">
        <ele>601.9</ele>
        <time>2020-10-10T10:18:15Z</time>
      </trkpt>
      <trkpt lat="40.712695" lon="0.243000">
        <ele>603.3</ele>
        <time>2020-10-10T10:18:28Z</time>
      </trkpt>
      <trkpt lat="40.712679" lon="0.243123">
        <ele>603.9</ele>
        <time>2020-10-10T10:18:38Z</time>
      </trkpt>
      <trkpt lat="40.712722" lon="0.243253">
        <ele>604.5</ele>
        <time>2020-10-10T10:18:44Z</time>
      </trkpt>
      <trkpt lat="40.712702" lon="0.243383">
        <ele>606.0</ele>
        <time>2020-10-10T10:18:55Z</time>
      </trkpt>
      <trkpt lat="40.712751" lon="0.243511">
        <ele>607.0</ele>
        <time>2020-10-10T10:19:06Z</time>
      </trkpt>
      <trkpt lat="40.712743" lon="0.243643">
        <ele>608.1</ele>
        <time>2020-10-10T10:19:15Z</time>
      </trkpt>
      <trkpt lat="40.712758" lon="0.243769">
        <ele>609.2</ele>
        <time>2020-10-10T10:19:24Z</time>
      </trkpt>
      <trkpt lat="40.712801" lon="0.243896">
        <ele>609.2</ele>
        <time>2020-10-10T10:19:28Z</time>
      </trkpt>
      <trkpt lat="40.712877" lon="0.244001">
        <ele>610.0</ele>
        <time>2020-10-10T10:19:37Z</time>
      </trkpt>
      <trkpt lat="40.712948" lon="0.244102">
        <ele>610.8</ele>
        <time>2020-10-10T10:19:51Z</time>
      </trkpt>
      <trkpt lat="40.713030" lon="0.244181">
        <ele>611.3</ele>
        <time>2020-10-10T10:19:59Z</time>
      </trkpt>
      <trkpt lat="40.713108" lon="0.244244">
        <ele>611.9</ele>
        <time>2020-10-10T10:20:06Z</time>
      </trkpt>
      <trkpt lat="40.713182" lon="0.244320">
        <ele>612.6</ele>
        <time>2020-10-10T10:20:15Z</time>
      </trkpt>
      <trkpt lat="40.713266" lon="0.244375">
        <ele>614.0</ele>
        <time>2020-10-10T10:20:27Z</time>
      </trkpt>
      <trkpt lat="40.713353" lon="0.244558">
        <ele>614.0</ele>
        <time>2020-10-10T10:20:36Z</time>
      </trkpt>
      <trkpt lat="40.713414" lon="0.244656">
        <ele>614.3</ele>
        <time>2020-10-10T10:20:41Z</time>
      </trkpt>
      <trkpt lat="40.713489" lon="0.244722">
        <ele>614.5</ele>
        <time>2020-10-10T10:20:46Z</time>
      </trkpt>
      <trkpt lat="40.713540" lon="0.244838">
        <ele>614.7</ele>
        <time>2020-10-10T10:20:51Z</time>
      </trkpt>
      <trkpt lat="40.713608" lon="0.244936">
        <ele>614.7</ele>
        <time>2020-10-10T10:20:58Z</time>
      </trkpt>
      <trkpt lat="40.713698" lon="0.244992">
        <ele>615.4</ele>
        <time>2020-10-10T10:21:06Z</time>
      </trkpt>
      <trkpt lat="40.713799" lon="0.245027">
        <ele>615.8</ele>
        <time>2020-10-10T10:21:11Z</time>
      </trkpt>
      <trkpt lat="40.713897" lon="0.245016">
        <ele>616.1</ele>
        <time>2020-10-10T10:21:18Z</time>
      </trkpt>
      <trkpt lat="40.713997" lon="0.245058">
        <ele>616.6</ele>
        <time>2020-10-10T10:21:25Z</time>
      </trkpt>
      <trkpt lat="40.714095" lon="0.245038">
        <ele>616.8</ele>
        <time>2020-10-10T10:21:31Z</time>
      </trkpt>
      <trkpt lat="40.714144" lon="0.244931">
        <ele>617.0</ele>
        <time>2020-10-10T10:21:34Z</time>
      </trkpt>
      <trkpt lat="40.714189" lon="0.244825">
        <ele>617.0</ele>
        <time>2020-10-10T10:21:38Z</time>
      </trkpt>
      <trkpt lat="40.714208" lon="0.244648">
        <ele>617.0</ele>
        <time>2020-10-10T10:21:46Z</time>
      </trkpt>
      <trkpt lat="40.714241" lon="0.244512">
        <ele>618.0</ele>
        <time>2020-10-10T10:21:54Z</time>
      </trkpt>
      <trkpt lat="40.714314" lon="0.244412">
        <ele>619.0</ele>
        <time>2020-10-10T10:22:06Z</time>
      </trkpt>
      <trkpt lat="40.714388" lon="0.244332">
        <ele>620.0</ele>
        <time>2020-10-10T10:22:14Z</time>
      </trkpt>
      <trkpt lat="40.714528" lon="0.244331">
        <ele>620.0</ele>
        <time>2020-10-10T10:22:22Z</time>
      </trkpt>
      <trkpt lat="40.714473" lon="0.244232">
        <ele>621.1</ele>
        <time>2020-10-10T10:22:29Z</time>
      </trkpt>
      <trkpt lat="40.714422" lon="0.244114">
        <ele>622.6</ele>
        <time>2020-10-10T10:22:42Z</time>
      </trkpt>
      <trkpt lat="40.714512" lon="0.244073">
        <ele>623.3</ele>
        <time>2020-10-10T10:22:52Z</time>
      </trkpt>
      <trkpt lat="40.714590" lon="0.244001">
        <ele>624.0</ele>
        <time>2020-10-10T10:23:00Z</time>
      </trkpt>
      <trkpt lat="40.714670" lon="0.243941">
        <ele>624.6</ele>
        <time>2020-10-10T10:23:08Z</time>
      </trkpt>
      <trkpt lat="40.714756" lon="0.243865">
        <ele>625.0</ele>
        <time>2020-10-10T10:23:17Z</time>
      </trkpt>
      <trkpt lat="40.714806" lon="0.243766">
        <ele>625.8</ele>
        <time>2020-10-10T10:23:24Z</time>
      </trkpt>
      <trkpt lat="40.714893" lon="0.243695">
        <ele>627.0</ele>
        <time>2020-10-10T10:23:30Z</time>
      </trkpt>
      <trkpt lat="40.714997" lon="0.243704">
        <ele>627.4</ele>
        <time>2020-10-10T10:23:36Z</time>
      </trkpt>
      <trkpt lat="40.715106" lon="0.243686">
        <ele>628.6</ele>
        <time>2020-10-10T10:23:45Z</time>
      </trkpt>
      <trkpt lat="40.715182" lon="0.243779">
        <ele>629.2</ele>
        <time>2020-10-10T10:23:57Z</time>
      </trkpt>
      <trkpt lat="40.715249" lon="0.243895">
        <ele>629.7</ele>
        <time>2020-10-10T10:24:03Z</time>
      </trkpt>
      <trkpt lat="40.715318" lon="0.243987">
        <ele>630.5</ele>
        <time>2020-10-10T10:24:11Z</time>
      </trkpt>
      <trkpt lat="40.715412" lon="0.244024">
        <ele>631.4</ele>
        <time>2020-10-10T10:24:21Z</time>
      </trkpt>
      <trkpt lat="40.715517" lon="0.244068">
        <ele>631.3</ele>
        <time>2020-10-10T10:24:29Z</time>
      </trkpt>
      <trkpt lat="40.715609" lon="0.244085">
        <ele>632.1</ele>
        <time>2020-10-10T10:24:36Z</time>
      </trkpt>
      <trkpt lat="40.715691" lon="0.244136">
        <ele>632.8</ele>
        <time>2020-10-10T10:24:45Z</time>
      </trkpt>
      <trkpt lat="40.715752" lon="0.244237">
        <ele>633.2</ele>
        <time>2020-10-10T10:24:55Z</time>
      </trkpt>
      <trkpt lat="40.715832" lon="0.244303">
        <ele>633.8</ele>
        <time>2020-10-10T10:25:06Z</time>
      </trkpt>
      <trkpt lat="40.715926" lon="0.244318">
        <ele>633.3</ele>
        <time>2020-10-10T10:25:11Z</time>
      </trkpt>
      <trkpt lat="40.716025" lon="0.244337">
        <ele>633.1</ele>
        <time>2020-10-10T10:25:15Z</time>
      </trkpt>
      <trkpt lat="40.716127" lon="0.244367">
        <ele>633.1</ele>
        <time>2020-10-10T10:25:21Z</time>
      </trkpt>
      <trkpt lat="40.716216" lon="0.244395">
        <ele>633.7</ele>
        <time>2020-10-10T10:25:36Z</time>
      </trkpt>
      <trkpt lat="40.716282" lon="0.244496">
        <ele>633.0</ele>
        <time>2020-10-10T10:25:45Z</time>
      </trkpt>
      <trkpt lat="40.716330" lon="0.244611">
        <ele>634.0</ele>
        <time>2020-10-10T10:25:53Z</time>
      </trkpt>
      <trkpt lat="40.716340" lon="0.244730">
        <ele>633.7</ele>
        <time>2020-10-10T10:25:59Z</time>
      </trkpt>
      <trkpt lat="40.716328" lon="0.244858">
        <ele>633.3</ele>
        <time>2020-10-10T10:26:07Z</time>
      </trkpt>
      <trkpt lat="40.716350" lon="0.244977">
        <ele>633.3</ele>
        <time>2020-10-10T10:26:14Z</time>
      </trkpt>
      <trkpt lat="40.716378" lon="0.245104">
        <ele>632.9</ele>
        <time>2020-10-10T10:26:20Z</time>
      </trkpt>
      <trkpt lat="40.716421" lon="0.245219">
        <ele>632.4</ele>
        <time>2020-10-10T10:26:27Z</time>
      </trkpt>
      <trkpt lat="40.716421" lon="0.245342">
        <ele>631.3</ele>
        <time>2020-10-10T10:26:36Z</time>
      </trkpt>
      <trkpt lat="40.716467" lon="0.245455">
        <ele>630.7</ele>
        <time>2020-10-10T10:26:43Z</time>
      </trkpt>
      <trkpt lat="40.716506" lon="0.245562">
        <ele>630.5</ele>
        <time>2020-10-10T10:26:51Z</time>
      </trkpt>
      <trkpt lat="40.716564" lon="0.245653">
        <ele>629.1</ele>
        <time>2020-10-10T10:27:00Z</time>
      </trkpt>
      <trkpt lat="40.716603" lon="0.245769">
        <ele>629.8</ele>
        <time>2020-10-10T10:27:10Z</time>
      </trkpt>
      <trkpt lat="40.716608" lon="0.245888">
        <ele>629.9</ele>
        <time>2020-10-10T10:27:21Z</time>
      </trkpt>
      <trkpt lat="40.716608" lon="0.246021">
        <ele>630.1</ele>
        <time>2020-10-10T10:27:34Z</time>
      </trkpt>
      <trkpt lat="40.716645" lon="0.246140">
        <ele>630.2</ele>
        <time>2020-10-10T10:27:40Z</time>
      </trkpt>
      <trkpt lat="40.716657" lon="0.246264">
        <ele>630.5</ele>
        <time>2020-10-10T10:27:46Z</time>
      </trkpt>
      <trkpt lat="40.716679" lon="0.246379">
        <ele>630.0</ele>
        <time>2020-10-10T10:27:56Z</time>
      </trkpt>
      <trkpt lat="40.716817" lon="0.246475">
        <ele>630.0</ele>
        <time>2020-10-10T10:28:04Z</time>
      </trkpt>
      <trkpt lat="40.716926" lon="0.246468">
        <ele>629.0</ele>
        <time>2020-10-10T10:28:12Z</time>
      </trkpt>
      <trkpt lat="40.717047" lon="0.246484">
        <ele>629.0</ele>
        <time>2020-10-10T10:28:20Z</time>
      </trkpt>
      <trkpt lat="40.717145" lon="0.246468">
        <ele>629.0</ele>
        <time>2020-10-10T10:28:28Z</time>
      </trkpt>
      <trkpt lat="40.717269" lon="0.246439">
        <ele>628.0</ele>
        <time>2020-10-10T10:28:40Z</time>
      </trkpt>
      <trkpt lat="40.717414" lon="0.246381">
        <ele>627.0</ele>
        <time>2020-10-10T10:28:52Z</time>
      </trkpt>
      <trkpt lat="40.717572" lon="0.246380">
        <ele>627.0</ele>
        <time>2020-10-10T10:29:00Z</time>
      </trkpt>
      <trkpt lat="40.717703" lon="0.246372">
        <ele>627.0</ele>
        <time>2020-10-10T10:29:08Z</time>
      </trkpt>
      <trkpt lat="40.717824" lon="0.246318">
        <ele>627.0</ele>
        <time>2020-10-10T10:29:20Z</time>
      </trkpt>
      <trkpt lat="40.717939" lon="0.246304">
        <ele>628.0</ele>
        <time>2020-10-10T10:29:28Z</time>
      </trkpt>
      <trkpt lat="40.718032" lon="0.246299">
        <ele>628.0</ele>
        <time>2020-10-10T10:29:40Z</time>
      </trkpt>
      <trkpt lat="40.718088" lon="0.246429">
        <ele>628.0</ele>
        <time>2020-10-10T10:29:52Z</time>
      </trkpt>
      <trkpt lat="40.718153" lon="0.246545">
        <ele>628.0</ele>
        <time>2020-10-10T10:30:00Z</time>
      </trkpt>
      <trkpt lat="40.718254" lon="0.246609">
        <ele>628.0</ele>
        <time>2020-10-10T10:30:08Z</time>
      </trkpt>
      <trkpt lat="40.718257" lon="0.246429">
        <ele>628.0</ele>
        <time>2020-10-10T10:30:20Z</time>
      </trkpt>
      <trkpt lat="40.718282" lon="0.246287">
        <ele>627.0</ele>
        <time>2020-10-10T10:30:28Z</time>
      </trkpt>
      <trkpt lat="40.718420" lon="0.246255">
        <ele>627.0</ele>
        <time>2020-10-10T10:30:36Z</time>
      </trkpt>
      <trkpt lat="40.718528" lon="0.246260">
        <ele>626.0</ele>
        <time>2020-10-10T10:30:48Z</time>
      </trkpt>
      <trkpt lat="40.718623" lon="0.246392">
        <ele>625.0</ele>
        <time>2020-10-10T10:31:00Z</time>
      </trkpt>
      <trkpt lat="40.718708" lon="0.246518">
        <ele>624.0</ele>
        <time>2020-10-10T10:31:12Z</time>
      </trkpt>
      <trkpt lat="40.718782" lon="0.246609">
        <ele>624.0</ele>
        <time>2020-10-10T10:31:24Z</time>
      </trkpt>
      <trkpt lat="40.718856" lon="0.246740">
        <ele>623.0</ele>
        <time>2020-10-10T10:31:32Z</time>
      </trkpt>
      <trkpt lat="40.718947" lon="0.246784">
        <ele>622.0</ele>
        <time>2020-10-10T10:31:44Z</time>
      </trkpt>
      <trkpt lat="40.719007" lon="0.246877">
        <ele>622.0</ele>
        <time>2020-10-10T10:31:48Z</time>
      </trkpt>
      <trkpt lat="40.719100" lon="0.247014">
        <ele>622.0</ele>
        <time>2020-10-10T10:31:56Z</time>
      </trkpt>
      <trkpt lat="40.719075" lon="0.247157">
        <ele>621.0</ele>
        <time>2020-10-10T10:32:12Z</time>
      </trkpt>
      <trkpt lat="40.719170" lon="0.247304">
        <ele>620.0</ele>
        <time>2020-10-10T10:32:20Z</time>
      </trkpt>
      <trkpt lat="40.719269" lon="0.247373">
        <ele>620.0</ele>
        <time>2020-10-10T10:32:32Z</time>
      </trkpt>
      <trkpt lat="40.719370" lon="0.247397">
        <ele>620.0</ele>
        <time>2020-10-10T10:32:40Z</time>
      </trkpt>
      <trkpt lat="40.719483" lon="0.247389">
        <ele>620.0</ele>
        <time>2020-10-10T10:32:48Z</time>
      </trkpt>
      <trkpt lat="40.719585" lon="0.247423">
        <ele>619.0</ele>
        <time>2020-10-10T10:32:56Z</time>
      </trkpt>
      <trkpt lat="40.719703" lon="0.247454">
        <ele>619.0</ele>
        <time>2020-10-10T10:33:08Z</time>
      </trkpt>
      <trkpt lat="40.719821" lon="0.247556">
        <ele>618.0</ele>
        <time>2020-10-10T10:33:16Z</time>
      </trkpt>
      <trkpt lat="40.719890" lon="0.247638">
        <ele>618.0</ele>
        <time>2020-10-10T10:33:24Z</time>
      </trkpt>
      <trkpt lat="40.719991" lon="0.247581">
        <ele>618.0</ele>
        <time>2020-10-10T10:34:04Z</time>
      </trkpt>
      <trkpt lat="40.720102" lon="0.247644">
        <ele>618.0</ele>
        <time>2020-10-10T10:34:12Z</time>
      </trkpt>
      <trkpt lat="40.720194" lon="0.247520">
        <ele>619.0</ele>
        <time>2020-10-10T10:34:28Z</time>
      </trkpt>
      <trkpt lat="40.720201" lon="0.247400">
        <ele>620.0</ele>
        <time>2020-10-10T10:34:32Z</time>
      </trkpt>
      <trkpt lat="40.720250" lon="0.247213">
        <ele>620.0</ele>
        <time>2020-10-10T10:34:40Z</time>
      </trkpt>
      <trkpt lat="40.720265" lon="0.247068">
        <ele>619.0</ele>
        <time>2020-10-10T10:34:48Z</time>
      </trkpt>
      <trkpt lat="40.720220" lon="0.246935">
        <ele>619.0</ele>
        <time>2020-10-10T10:34:56Z</time>
      </trkpt>
      <trkpt lat="40.720188" lon="0.246810">
        <ele>619.0</ele>
        <time>2020-10-10T10:35:04Z</time>
      </trkpt>
      <trkpt lat="40.720170" lon="0.246684">
        <ele>619.0</ele>
        <time>2020-10-10T10:35:16Z</time>
      </trkpt>
      <trkpt lat="40.720183" lon="0.246551">
        <ele>618.0</ele>
        <time>2020-10-10T10:35:28Z</time>
      </trkpt>
      <trkpt lat="40.720165" lon="0.246407">
        <ele>618.0</ele>
        <time>2020-10-10T10:35:40Z</time>
      </trkpt>
      <trkpt lat="40.720154" lon="0.246286">
        <ele>617.0</ele>
        <time>2020-10-10T10:35:48Z</time>
      </trkpt>
      <trkpt lat="40.720193" lon="0.246162">
        <ele>617.0</ele>
        <time>2020-10-10T10:36:00Z</time>
      </trkpt>
      <trkpt lat="40.720259" lon="0.246068">
        <ele>616.0</ele>
        <time>2020-10-10T10:36:16Z</time>
      </trkpt>
      <trkpt lat="40.720285" lon="0.245910">
        <ele>616.0</ele>
        <time>2020-10-10T10:36:24Z</time>
      </trkpt>
      <trkpt lat="40.720372" lon="0.245816">
        <ele>616.0</ele>
        <time>2020-10-10T10:36:32Z</time>
      </trkpt>
      <trkpt lat="40.720494" lon="0.245778">
        <ele>616.0</ele>
        <time>2020-10-10T10:36:40Z</time>
      </trkpt>
      <trkpt lat="40.720607" lon="0.245774">
        <ele>616.0</ele>
        <time>2020-10-10T10:36:48Z</time>
      </trkpt>
      <trkpt lat="40.720720" lon="0.245764">
        <ele>617.0</ele>
        <time>2020-10-10T10:37:00Z</time>
      </trkpt>
      <trkpt lat="40.720792" lon="0.245678">
        <ele>617.0</ele>
        <time>2020-10-10T10:37:08Z</time>
      </trkpt>
      <trkpt lat="40.720891" lon="0.245603">
        <ele>617.0</ele>
        <time>2020-10-10T10:37:16Z</time>
      </trkpt>
      <trkpt lat="40.720981" lon="0.245595">
        <ele>617.0</ele>
        <time>2020-10-10T10:37:24Z</time>
      </trkpt>
      <trkpt lat="40.721086" lon="0.245460">
        <ele>617.0</ele>
        <time>2020-10-10T10:37:36Z</time>
      </trkpt>
      <trkpt lat="40.721128" lon="0.245333">
        <ele>617.0</ele>
        <time>2020-10-10T10:37:44Z</time>
      </trkpt>
      <trkpt lat="40.721213" lon="0.245184">
        <ele>617.0</ele>
        <time>2020-10-10T10:37:56Z</time>
      </trkpt>
      <trkpt lat="40.721277" lon="0.245073">
        <ele>618.0</ele>
        <time>2020-10-10T10:38:08Z</time>
      </trkpt>
      <trkpt lat="40.721321" lon="0.244922">
        <ele>618.0</ele>
        <time>2020-10-10T10:38:20Z</time>
      </trkpt>
      <trkpt lat="40.721381" lon="0.244804">
        <ele>618.0</ele>
        <time>2020-10-10T10:38:32Z</time>
      </trkpt>
      <trkpt lat="40.721494" lon="0.244755">
        <ele>618.0</ele>
        <time>2020-10-10T10:38:48Z</time>
      </trkpt>
      <trkpt lat="40.721496" lon="0.244629">
        <ele>618.0</ele>
        <time>2020-10-10T10:39:00Z</time>
      </trkpt>
      <trkpt lat="40.721590" lon="0.244678">
        <ele>619.0</ele>
        <time>2020-10-10T10:39:06Z</time>
      </trkpt>
      <trkpt lat="40.721678" lon="0.244631">
        <ele>618.8</ele>
        <time>2020-10-10T10:39:43Z</time>
      </trkpt>
      <trkpt lat="40.721754" lon="0.244565">
        <ele>618.8</ele>
        <time>2020-10-10T10:40:14Z</time>
      </trkpt>
      <trkpt lat="40.721836" lon="0.244516">
        <ele>618.7</ele>
        <time>2020-10-10T10:40:21Z</time>
      </trkpt>
      <trkpt lat="40.721874" lon="0.244403">
        <ele>620.1</ele>
        <time>2020-10-10T10:40:28Z</time>
      </trkpt>
      <trkpt lat="40.721927" lon="0.244288">
        <ele>620.0</ele>
        <time>2020-10-10T10:40:35Z</time>
      </trkpt>
      <trkpt lat="40.721975" lon="0.244184">
        <ele>620.9</ele>
        <time>2020-10-10T10:40:42Z</time>
      </trkpt>
      <trkpt lat="40.722010" lon="0.244065">
        <ele>621.0</ele>
        <time>2020-10-10T10:40:51Z</time>
      </trkpt>
      <trkpt lat="40.722080" lon="0.243988">
        <ele>621.3</ele>
        <time>2020-10-10T10:40:59Z</time>
      </trkpt>
      <trkpt lat="40.722144" lon="0.243893">
        <ele>621.4</ele>
        <time>2020-10-10T10:41:07Z</time>
      </trkpt>
      <trkpt lat="40.722240" lon="0.243897">
        <ele>621.5</ele>
        <time>2020-10-10T10:41:14Z</time>
      </trkpt>
      <trkpt lat="40.722310" lon="0.243971">
        <ele>620.3</ele>
        <time>2020-10-10T10:42:40Z</time>
      </trkpt>
      <trkpt lat="40.722372" lon="0.243885">
        <ele>621.7</ele>
        <time>2020-10-10T10:43:03Z</time>
      </trkpt>
      <trkpt lat="40.722465" lon="0.243886">
        <ele>621.9</ele>
        <time>2020-10-10T10:43:10Z</time>
      </trkpt>
      <trkpt lat="40.722540" lon="0.243816">
        <ele>622.5</ele>
        <time>2020-10-10T10:43:36Z</time>
      </trkpt>
      <trkpt lat="40.722632" lon="0.243768">
        <ele>623.1</ele>
        <time>2020-10-10T10:43:48Z</time>
      </trkpt>
      <trkpt lat="40.722722" lon="0.243747">
        <ele>623.8</ele>
        <time>2020-10-10T10:44:02Z</time>
      </trkpt>
      <trkpt lat="40.722795" lon="0.243662">
        <ele>624.9</ele>
        <time>2020-10-10T10:44:14Z</time>
      </trkpt>
      <trkpt lat="40.722888" lon="0.243673">
        <ele>625.0</ele>
        <time>2020-10-10T10:44:20Z</time>
      </trkpt>
      <trkpt lat="40.722962" lon="0.243743">
        <ele>624.0</ele>
        <time>2020-10-10T10:44:26Z</time>
      </trkpt>
      <trkpt lat="40.723035" lon="0.243835">
        <ele>624.8</ele>
        <time>2020-10-10T10:44:38Z</time>
      </trkpt>
      <trkpt lat="40.723113" lon="0.243897">
        <ele>625.1</ele>
        <time>2020-10-10T10:44:49Z</time>
      </trkpt>
      <trkpt lat="40.723190" lon="0.243973">
        <ele>624.9</ele>
        <time>2020-10-10T10:44:55Z</time>
      </trkpt>
      <trkpt lat="40.723235" lon="0.244076">
        <ele>626.1</ele>
        <time>2020-10-10T10:45:10Z</time>
      </trkpt>
      <trkpt lat="40.723301" lon="0.244164">
        <ele>628.9</ele>
        <time>2020-10-10T10:45:47Z</time>
      </trkpt>
      <trkpt lat="40.723372" lon="0.244239">
        <ele>628.4</ele>
        <time>2020-10-10T10:45:51Z</time>
      </trkpt>
      <trkpt lat="40.723482" lon="0.244270">
        <ele>629.5</ele>
        <time>2020-10-10T10:46:03Z</time>
      </trkpt>
      <trkpt lat="40.723569" lon="0.244331">
        <ele>631.0</ele>
        <time>2020-10-10T10:46:12Z</time>
      </trkpt>
      <trkpt lat="40.723664" lon="0.244345">
        <ele>632.2</ele>
        <time>2020-10-10T10:46:23Z</time>
      </trkpt>
      <trkpt lat="40.723750" lon="0.244273">
        <ele>633.1</ele>
        <time>2020-10-10T10:46:36Z</time>
      </trkpt>
      <trkpt lat="40.723854" lon="0.244242">
        <ele>633.9</ele>
        <time>2020-10-10T10:46:46Z</time>
      </trkpt>
      <trkpt lat="40.723910" lon="0.244137">
        <ele>635.3</ele>
        <time>2020-10-10T10:46:55Z</time>
      </trkpt>
      <trkpt lat="40.724001" lon="0.244130">
        <ele>635.8</ele>
        <time>2020-10-10T10:47:01Z</time>
      </trkpt>
      <trkpt lat="40.724097" lon="0.244085">
        <ele>635.0</ele>
        <time>2020-10-10T10:47:08Z</time>
      </trkpt>
      <trkpt lat="40.724185" lon="0.244048">
        <ele>635.3</ele>
        <time>2020-10-10T10:47:15Z</time>
      </trkpt>
      <trkpt lat="40.724289" lon="0.244043">
        <ele>635.6</ele>
        <time>2020-10-10T10:47:23Z</time>
      </trkpt>
      <trkpt lat="40.724381" lon="0.244019">
        <ele>635.6</ele>
        <time>2020-10-10T10:47:31Z</time>
      </trkpt>
      <trkpt lat="40.724462" lon="0.243960">
        <ele>635.1</ele>
        <time>2020-10-10T10:47:40Z</time>
      </trkpt>
      <trkpt lat="40.724556" lon="0.243950">
        <ele>634.1</ele>
        <time>2020-10-10T10:47:49Z</time>
      </trkpt>
      <trkpt lat="40.724649" lon="0.243967">
        <ele>633.9</ele>
        <time>2020-10-10T10:47:57Z</time>
      </trkpt>
      <trkpt lat="40.724725" lon="0.244041">
        <ele>634.3</ele>
        <time>2020-10-10T10:48:06Z</time>
      </trkpt>
      <trkpt lat="40.724808" lon="0.244087">
        <ele>634.7</ele>
        <time>2020-10-10T10:48:17Z</time>
      </trkpt>
      <trkpt lat="40.724892" lon="0.244135">
        <ele>634.7</ele>
        <time>2020-10-10T10:48:27Z</time>
      </trkpt>
      <trkpt lat="40.724972" lon="0.244202">
        <ele>635.2</ele>
        <time>2020-10-10T10:48:34Z</time>
      </trkpt>
      <trkpt lat="40.725055" lon="0.244262">
        <ele>635.5</ele>
        <time>2020-10-10T10:48:38Z</time>
      </trkpt>
      <trkpt lat="40.725153" lon="0.244299">
        <ele>636.0</ele>
        <time>2020-10-10T10:48:45Z</time>
      </trkpt>
      <trkpt lat="40.725236" lon="0.244372">
        <ele>635.7</ele>
        <time>2020-10-10T10:48:50Z</time>
      </trkpt>
      <trkpt lat="40.725323" lon="0.244424">
        <ele>636.6</ele>
        <time>2020-10-10T10:49:05Z</time>
      </trkpt>
      <trkpt lat="40.725407" lon="0.244468">
        <ele>637.4</ele>
        <time>2020-10-10T10:49:15Z</time>
      </trkpt>
      <trkpt lat="40.725500" lon="0.244470">
        <ele>638.1</ele>
        <time>2020-10-10T10:49:24Z</time>
      </trkpt>
      <trkpt lat="40.725608" lon="0.244444">
        <ele>638.5</ele>
        <time>2020-10-10T10:49:32Z</time>
      </trkpt>
      <trkpt lat="40.725704" lon="0.244447">
        <ele>639.6</ele>
        <time>2020-10-10T10:49:41Z</time>
      </trkpt>
      <trkpt lat="40.725797" lon="0.244482">
        <ele>639.5</ele>
        <time>2020-10-10T10:49:47Z</time>
      </trkpt>
      <trkpt lat="40.725893" lon="0.244537">
        <ele>639.9</ele>
        <time>2020-10-10T10:49:52Z</time>
      </trkpt>
      <trkpt lat="40.725964" lon="0.244615">
        <ele>640.9</ele>
        <time>2020-10-10T10:49:59Z</time>
      </trkpt>
      <trkpt lat="40.726023" lon="0.244722">
        <ele>641.3</ele>
        <time>2020-10-10T10:50:12Z</time>
      </trkpt>
      <trkpt lat="40.726057" lon="0.244833">
        <ele>641.3</ele>
        <time>2020-10-10T10:50:18Z</time>
      </trkpt>
      <trkpt lat="40.726061" lon="0.244958">
        <ele>641.5</ele>
        <time>2020-10-10T10:50:26Z</time>
      </trkpt>
      <trkpt lat="40.726085" lon="0.245085">
        <ele>641.4</ele>
        <time>2020-10-10T10:50:33Z</time>
      </trkpt>
      <trkpt lat="40.726096" lon="0.245210">
        <ele>641.5</ele>
        <time>2020-10-10T10:50:40Z</time>
      </trkpt>
      <trkpt lat="40.726099" lon="0.245340">
        <ele>641.9</ele>
        <time>2020-10-10T10:50:48Z</time>
      </trkpt>
      <trkpt lat="40.726081" lon="0.245463">
        <ele>642.3</ele>
        <time>2020-10-10T10:50:56Z</time>
      </trkpt>
      <trkpt lat="40.726084" lon="0.245583">
        <ele>643.0</ele>
        <time>2020-10-10T10:51:04Z</time>
      </trkpt>
      <trkpt lat="40.726070" lon="0.245713">
        <ele>643.4</ele>
        <time>2020-10-10T10:51:12Z</time>
      </trkpt>
      <trkpt lat="40.726037" lon="0.245829">
        <ele>644.1</ele>
        <time>2020-10-10T10:51:21Z</time>
      </trkpt>
      <trkpt lat="40.725987" lon="0.245933">
        <ele>644.3</ele>
        <time>2020-10-10T10:51:27Z</time>
      </trkpt>
      <trkpt lat="40.726014" lon="0.246062">
        <ele>645.4</ele>
        <time>2020-10-10T10:51:39Z</time>
      </trkpt>
      <trkpt lat="40.726089" lon="0.246178">
        <ele>646.4</ele>
        <time>2020-10-10T10:51:46Z</time>
      </trkpt>
      <trkpt lat="40.726158" lon="0.246262">
        <ele>645.9</ele>
        <time>2020-10-10T10:51:50Z</time>
      </trkpt>
      <trkpt lat="40.726232" lon="0.246361">
        <ele>645.3</ele>
        <time>2020-10-10T10:51:55Z</time>
      </trkpt>
      <trkpt lat="40.726267" lon="0.246488">
        <ele>645.7</ele>
        <time>2020-10-10T10:52:05Z</time>
      </trkpt>
      <trkpt lat="40.726316" lon="0.246596">
        <ele>645.5</ele>
        <time>2020-10-10T10:52:14Z</time>
      </trkpt>
      <trkpt lat="40.726396" lon="0.246668">
        <ele>645.7</ele>
        <time>2020-10-10T10:52:23Z</time>
      </trkpt>
      <trkpt lat="40.726484" lon="0.246631">
        <ele>645.7</ele>
        <time>2020-10-10T10:52:41Z</time>
      </trkpt>
      <trkpt lat="40.726560" lon="0.246699">
        <ele>645.8</ele>
        <time>2020-10-10T10:52:49Z</time>
      </trkpt>
      <trkpt lat="40.726639" lon="0.246768">
        <ele>646.3</ele>
        <time>2020-10-10T10:52:56Z</time>
      </trkpt>
      <trkpt lat="40.726736" lon="0.246756">
        <ele>647.4</ele>
        <time>2020-10-10T10:53:07Z</time>
      </trkpt>
      <trkpt lat="40.726831" lon="0.246745">
        <ele>648.2</ele>
        <time>2020-10-10T10:53:18Z</time>
      </trkpt>
      <trkpt lat="40.726927" lon="0.246738">
        <ele>648.8</ele>
        <time>2020-10-10T10:53:27Z</time>
      </trkpt>
      <trkpt lat="40.727028" lon="0.246765">
        <ele>649.7</ele>
        <time>2020-10-10T10:53:36Z</time>
      </trkpt>
      <trkpt lat="40.727125" lon="0.246758">
        <ele>650.3</ele>
        <time>2020-10-10T10:53:47Z</time>
      </trkpt>
      <trkpt lat="40.727217" lon="0.246804">
        <ele>650.9</ele>
        <time>2020-10-10T10:53:55Z</time>
      </trkpt>
      <trkpt lat="40.727311" lon="0.246821">
        <ele>651.8</ele>
        <time>2020-10-10T10:54:06Z</time>
      </trkpt>
      <trkpt lat="40.727407" lon="0.246856">
        <ele>652.0</ele>
        <time>2020-10-10T10:54:11Z</time>
      </trkpt>
      <trkpt lat="40.727500" lon="0.246832">
        <ele>652.7</ele>
        <time>2020-10-10T10:54:22Z</time>
      </trkpt>
      <trkpt lat="40.727591" lon="0.246850">
        <ele>653.1</ele>
        <time>2020-10-10T10:54:31Z</time>
      </trkpt>
      <trkpt lat="40.727680" lon="0.246812">
        <ele>653.5</ele>
        <time>2020-10-10T10:54:39Z</time>
      </trkpt>
      <trkpt lat="40.727775" lon="0.246852">
        <ele>653.2</ele>
        <time>2020-10-10T10:54:45Z</time>
      </trkpt>
      <trkpt lat="40.727854" lon="0.246911">
        <ele>653.9</ele>
        <time>2020-10-10T10:54:54Z</time>
      </trkpt>
      <trkpt lat="40.727949" lon="0.246915">
        <ele>654.1</ele>
        <time>2020-10-10T10:55:02Z</time>
      </trkpt>
      <trkpt lat="40.728060" lon="0.246944">
        <ele>654.9</ele>
        <time>2020-10-10T10:55:11Z</time>
      </trkpt>
      <trkpt lat="40.728108" lon="0.247049">
        <ele>655.0</ele>
        <time>2020-10-10T10:55:21Z</time>
      </trkpt>
      <trkpt lat="40.728181" lon="0.247122">
        <ele>656.4</ele>
        <time>2020-10-10T10:55:32Z</time>
      </trkpt>
      <trkpt lat="40.728254" lon="0.247192">
        <ele>656.9</ele>
        <time>2020-10-10T10:55:39Z</time>
      </trkpt>
      <trkpt lat="40.728327" lon="0.247275">
        <ele>657.4</ele>
        <time>2020-10-10T10:55:46Z</time>
      </trkpt>
      <trkpt lat="40.728391" lon="0.247366">
        <ele>657.8</ele>
        <time>2020-10-10T10:55:55Z</time>
      </trkpt>
      <trkpt lat="40.728471" lon="0.247433">
        <ele>658.1</ele>
        <time>2020-10-10T10:56:05Z</time>
      </trkpt>
      <trkpt lat="40.728554" lon="0.247490">
        <ele>659.5</ele>
        <time>2020-10-10T10:56:17Z</time>
      </trkpt>
      <trkpt lat="40.728629" lon="0.247561">
        <ele>659.9</ele>
        <time>2020-10-10T10:56:31Z</time>
      </trkpt>
      <trkpt lat="40.728708" lon="0.247643">
        <ele>660.6</ele>
        <time>2020-10-10T10:56:39Z</time>
      </trkpt>
      <trkpt lat="40.728792" lon="0.247710">
        <ele>661.3</ele>
        <time>2020-10-10T10:56:48Z</time>
      </trkpt>
      <trkpt lat="40.728867" lon="0.247798">
        <ele>661.3</ele>
        <time>2020-10-10T10:56:55Z</time>
      </trkpt>
      <trkpt lat="40.728943" lon="0.247876">
        <ele>661.7</ele>
        <time>2020-10-10T10:57:02Z</time>
      </trkpt>
      <trkpt lat="40.729035" lon="0.247919">
        <ele>663.0</ele>
        <time>2020-10-10T10:57:13Z</time>
      </trkpt>
      <trkpt lat="40.729121" lon="0.247967">
        <ele>663.5</ele>
        <time>2020-10-10T10:57:19Z</time>
      </trkpt>
      <trkpt lat="40.729205" lon="0.248024">
        <ele>664.2</ele>
        <time>2020-10-10T10:57:25Z</time>
      </trkpt>
      <trkpt lat="40.729277" lon="0.248106">
        <ele>664.9</ele>
        <time>2020-10-10T10:57:34Z</time>
      </trkpt>
      <trkpt lat="40.729349" lon="0.248180">
        <ele>665.9</ele>
        <time>2020-10-10T10:57:42Z</time>
      </trkpt>
      <trkpt lat="40.729440" lon="0.248200">
        <ele>667.0</ele>
        <time>2020-10-10T10:57:52Z</time>
      </trkpt>
      <trkpt lat="40.729523" lon="0.248258">
        <ele>668.2</ele>
        <time>2020-10-10T10:58:03Z</time>
      </trkpt>
      <trkpt lat="40.729609" lon="0.248327">
        <ele>669.9</ele>
        <time>2020-10-10T10:58:11Z</time>
      </trkpt>
      <trkpt lat="40.729705" lon="0.248350">
        <ele>670.4</ele>
        <time>2020-10-10T10:58:17Z</time>
      </trkpt>
      <trkpt lat="40.729802" lon="0.248379">
        <ele>671.3</ele>
        <time>2020-10-10T10:58:30Z</time>
      </trkpt>
      <trkpt lat="40.729884" lon="0.248458">
        <ele>672.0</ele>
        <time>2020-10-10T10:58:37Z</time>
      </trkpt>
      <trkpt lat="40.729960" lon="0.248561">
        <ele>672.6</ele>
        <time>2020-10-10T10:58:45Z</time>
      </trkpt>
      <trkpt lat="40.730042" lon="0.248624">
        <ele>673.4</ele>
        <time>2020-10-10T10:58:53Z</time>
      </trkpt>
      <trkpt lat="40.730102" lon="0.248719">
        <ele>674.4</ele>
        <time>2020-10-10T10:59:05Z</time>
      </trkpt>
      <trkpt lat="40.730191" lon="0.248773">
        <ele>675.6</ele>
        <time>2020-10-10T10:59:12Z</time>
      </trkpt>
      <trkpt lat="40.730261" lon="0.248853">
        <ele>675.7</ele>
        <time>2020-10-10T10:59:22Z</time>
      </trkpt>
      <trkpt lat="40.730316" lon="0.248953">
        <ele>675.5</ele>
        <time>2020-10-10T10:59:29Z</time>
      </trkpt>
      <trkpt lat="40.730397" lon="0.249051">
        <ele>675.6</ele>
        <time>2020-10-10T10:59:34Z</time>
      </trkpt>
      <trkpt lat="40.730469" lon="0.249130">
        <ele>676.3</ele>
        <time>2020-10-10T10:59:39Z</time>
      </trkpt>
      <trkpt lat="40.730501" lon="0.249241">
        <ele>678.6</ele>
        <time>2020-10-10T11:00:03Z</time>
      </trkpt>
      <trkpt lat="40.730505" lon="0.249366">
        <ele>679.8</ele>
        <time>2020-10-10T11:00:16Z</time>
      </trkpt>
      <trkpt lat="40.730548" lon="0.249482">
        <ele>680.5</ele>
        <time>2020-10-10T11:00:25Z</time>
      </trkpt>
      <trkpt lat="40.730575" lon="0.249599">
        <ele>681.3</ele>
        <time>2020-10-10T11:00:33Z</time>
      </trkpt>
      <trkpt lat="40.730570" lon="0.249721">
        <ele>681.8</ele>
        <time>2020-10-10T11:00:41Z</time>
      </trkpt>
      <trkpt lat="40.730614" lon="0.249831">
        <ele>682.5</ele>
        <time>2020-10-10T11:00:50Z</time>
      </trkpt>
      <trkpt lat="40.730689" lon="0.249915">
        <ele>683.4</ele>
        <time>2020-10-10T11:00:55Z</time>
      </trkpt>
      <trkpt lat="40.730774" lon="0.249866">
        <ele>685.1</ele>
        <time>2020-10-10T11:01:07Z</time>
      </trkpt>
      <trkpt lat="40.730863" lon="0.249813">
        <ele>685.6</ele>
        <time>2020-10-10T11:01:15Z</time>
      </trkpt>
      <trkpt lat="40.730952" lon="0.249757">
        <ele>686.0</ele>
        <time>2020-10-10T11:01:22Z</time>
      </trkpt>
      <trkpt lat="40.731047" lon="0.249826">
        <ele>686.4</ele>
        <time>2020-10-10T11:01:28Z</time>
      </trkpt>
      <trkpt lat="40.731136" lon="0.249888">
        <ele>686.3</ele>
        <time>2020-10-10T11:01:34Z</time>
      </trkpt>
      <trkpt lat="40.731224" lon="0.249939">
        <ele>687.2</ele>
        <time>2020-10-10T11:01:45Z</time>
      </trkpt>
      <trkpt lat="40.731310" lon="0.249992">
        <ele>688.2</ele>
        <time>2020-10-10T11:01:56Z</time>
      </trkpt>
      <trkpt lat="40.731412" lon="0.250064">
        <ele>687.6</ele>
        <time>2020-10-10T11:02:05Z</time>
      </trkpt>
      <trkpt lat="40.731458" lon="0.250166">
        <ele>685.9</ele>
        <time>2020-10-10T11:02:17Z</time>
      </trkpt>
      <trkpt lat="40.731403" lon="0.250264">
        <ele>685.1</ele>
        <time>2020-10-10T11:02:32Z</time>
      </trkpt>
      <trkpt lat="40.731412" lon="0.250390">
        <ele>683.8</ele>
        <time>2020-10-10T11:02:44Z</time>
      </trkpt>
      <trkpt lat="40.731371" lon="0.250516">
        <ele>681.7</ele>
        <time>2020-10-10T11:02:57Z</time>
      </trkpt>
      <trkpt lat="40.731341" lon="0.250632">
        <ele>681.4</ele>
        <time>2020-10-10T11:03:05Z</time>
      </trkpt>
      <trkpt lat="40.731352" lon="0.250766">
        <ele>680.4</ele>
        <time>2020-10-10T11:03:13Z</time>
      </trkpt>
      <trkpt lat="40.731388" lon="0.250876">
        <ele>679.3</ele>
        <time>2020-10-10T11:03:20Z</time>
      </trkpt>
      <trkpt lat="40.731454" lon="0.250961">
        <ele>678.0</ele>
        <time>2020-10-10T11:03:32Z</time>
      </trkpt>
      <trkpt lat="40.731512" lon="0.251062">
        <ele>676.7</ele>
        <time>2020-10-10T11:03:41Z</time>
      </trkpt>
      <trkpt lat="40.731600" lon="0.251133">
        <ele>676.0</ele>
        <time>2020-10-10T11:03:46Z</time>
      </trkpt>
      <trkpt lat="40.731676" lon="0.251208">
        <ele>675.5</ele>
        <time>2020-10-10T11:03:53Z</time>
      </trkpt>
      <trkpt lat="40.731770" lon="0.251259">
        <ele>675.1</ele>
        <time>2020-10-10T11:03:57Z</time>
      </trkpt>
      <trkpt lat="40.731853" lon="0.251326">
        <ele>675.1</ele>
        <time>2020-10-10T11:04:04Z</time>
      </trkpt>
      <trkpt lat="40.731897" lon="0.251447">
        <ele>675.0</ele>
        <time>2020-10-10T11:04:12Z</time>
      </trkpt>
      <trkpt lat="40.731954" lon="0.251540">
        <ele>675.2</ele>
        <time>2020-10-10T11:04:21Z</time>
      </trkpt>
      <trkpt lat="40.732027" lon="0.251633">
        <ele>675.9</ele>
        <time>2020-10-10T11:04:29Z</time>
      </trkpt>
      <trkpt lat="40.732105" lon="0.251718">
        <ele>675.7</ele>
        <time>2020-10-10T11:04:35Z</time>
      </trkpt>
      <trkpt lat="40.732193" lon="0.251782">
        <ele>675.5</ele>
        <time>2020-10-10T11:04:48Z</time>
      </trkpt>
      <trkpt lat="40.732277" lon="0.251850">
        <ele>675.1</ele>
        <time>2020-10-10T11:04:56Z</time>
      </trkpt>
      <trkpt lat="40.732362" lon="0.251918">
        <ele>674.5</ele>
        <time>2020-10-10T11:05:03Z</time>
      </trkpt>
      <trkpt lat="40.732441" lon="0.251992">
        <ele>674.6</ele>
        <time>2020-10-10T11:05:08Z</time>
      </trkpt>
      <trkpt lat="40.732547" lon="0.252038">
        <ele>674.4</ele>
        <time>2020-10-10T11:05:15Z</time>
      </trkpt>
      <trkpt lat="40.732631" lon="0.252097">
        <ele>674.2</ele>
        <time>2020-10-10T11:05:23Z</time>
      </trkpt>
      <trkpt lat="40.732719" lon="0.252160">
        <ele>673.0</ele>
        <time>2020-10-10T11:05:42Z</time>
      </trkpt>
      <trkpt lat="40.732810" lon="0.252171">
        <ele>673.0</ele>
        <time>2020-10-10T11:05:52Z</time>
      </trkpt>
      <trkpt lat="40.732904" lon="0.252158">
        <ele>672.9</ele>
        <time>2020-10-10T11:06:08Z</time>
      </trkpt>
      <trkpt lat="40.732993" lon="0.252207">
        <ele>672.7</ele>
        <time>2020-10-10T11:06:18Z</time>
      </trkpt>
      <trkpt lat="40.733083" lon="0.252169">
        <ele>672.6</ele>
        <time>2020-10-10T11:06:27Z</time>
      </trkpt>
      <trkpt lat="40.733172" lon="0.252128">
        <ele>672.4</ele>
        <time>2020-10-10T11:06:33Z</time>
      </trkpt>
      <trkpt lat="40.733272" lon="0.252121">
        <ele>672.4</ele>
        <time>2020-10-10T11:06:40Z</time>
      </trkpt>
      <trkpt lat="40.733362" lon="0.252161">
        <ele>672.6</ele>
        <time>2020-10-10T11:06:46Z</time>
      </trkpt>
      <trkpt lat="40.733440" lon="0.252274">
        <ele>672.5</ele>
        <time>2020-10-10T11:06:52Z</time>
      </trkpt>
      <trkpt lat="40.733502" lon="0.252377">
        <ele>672.9</ele>
        <time>2020-10-10T11:06:59Z</time>
      </trkpt>
      <trkpt lat="40.733459" lon="0.252484">
        <ele>673.4</ele>
        <time>2020-10-10T11:07:08Z</time>
      </trkpt>
      <trkpt lat="40.733478" lon="0.252617">
        <ele>673.3</ele>
        <time>2020-10-10T11:07:23Z</time>
      </trkpt>
      <trkpt lat="40.733503" lon="0.252735">
        <ele>673.3</ele>
        <time>2020-10-10T11:07:32Z</time>
      </trkpt>
      <trkpt lat="40.733580" lon="0.252836">
        <ele>673.2</ele>
        <time>2020-10-10T11:07:40Z</time>
      </trkpt>
      <trkpt lat="40.733678" lon="0.252855">
        <ele>673.0</ele>
        <time>2020-10-10T11:07:50Z</time>
      </trkpt>
      <trkpt lat="40.733691" lon="0.252980">
        <ele>673.9</ele>
        <time>2020-10-10T11:07:56Z</time>
      </trkpt>
      <trkpt lat="40.733785" lon="0.253002">
        <ele>674.6</ele>
        <time>2020-10-10T11:08:09Z</time>
      </trkpt>
      <trkpt lat="40.733737" lon="0.252899">
        <ele>673.4</ele>
        <time>2020-10-10T11:08:32Z</time>
      </trkpt>
      <trkpt lat="40.733812" lon="0.252969">
        <ele>674.5</ele>
        <time>2020-10-10T11:09:00Z</time>
      </trkpt>
      <trkpt lat="40.733903" lon="0.253028">
        <ele>675.3</ele>
        <time>2020-10-10T11:09:16Z</time>
      </trkpt>
      <trkpt lat="40.733997" lon="0.253075">
        <ele>675.6</ele>
        <time>2020-10-10T11:09:27Z</time>
      </trkpt>
      <trkpt lat="40.734093" lon="0.253125">
        <ele>675.8</ele>
        <time>2020-10-10T11:09:33Z</time>
      </trkpt>
      <trkpt lat="40.734178" lon="0.253183">
        <ele>676.2</ele>
        <time>2020-10-10T11:09:40Z</time>
      </trkpt>
      <trkpt lat="40.734266" lon="0.253219">
        <ele>676.2</ele>
        <time>2020-10-10T11:09:46Z</time>
      </trkpt>
      <trkpt lat="40.734371" lon="0.253255">
        <ele>676.6</ele>
        <time>2020-10-10T11:09:55Z</time>
      </trkpt>
      <trkpt lat="40.734474" lon="0.253266">
        <ele>677.1</ele>
        <time>2020-10-10T11:10:04Z</time>
      </trkpt>
      <trkpt lat="40.734555" lon="0.253318">
        <ele>677.5</ele>
        <time>2020-10-10T11:10:11Z</time>
      </trkpt>
      <trkpt lat="40.734619" lon="0.253407">
        <ele>677.9</ele>
        <time>2020-10-10T11:10:17Z</time>
      </trkpt>
      <trkpt lat="40.734693" lon="0.253492">
        <ele>678.8</ele>
        <time>2020-10-10T11:10:29Z</time>
      </trkpt>
      <trkpt lat="40.734756" lon="0.253580">
        <ele>679.2</ele>
        <time>2020-10-10T11:10:33Z</time>
      </trkpt>
      <trkpt lat="40.734855" lon="0.253589">
        <ele>679.9</ele>
        <time>2020-10-10T11:10:42Z</time>
      </trkpt>
      <trkpt lat="40.734946" lon="0.253582">
        <ele>680.4</ele>
        <time>2020-10-10T11:10:49Z</time>
      </trkpt>
      <trkpt lat="40.735048" lon="0.253603">
        <ele>680.6</ele>
        <time>2020-10-10T11:10:56Z</time>
      </trkpt>
      <trkpt lat="40.735126" lon="0.253666">
        <ele>680.4</ele>
        <time>2020-10-10T11:11:05Z</time>
      </trkpt>
      <trkpt lat="40.735206" lon="0.253728">
        <ele>680.7</ele>
        <time>2020-10-10T11:11:13Z</time>
      </trkpt>
      <trkpt lat="40.735285" lon="0.253810">
        <ele>680.6</ele>
        <time>2020-10-10T11:11:22Z</time>
      </trkpt>
      <trkpt lat="40.735337" lon="0.253921">
        <ele>682.3</ele>
        <time>2020-10-10T11:11:37Z</time>
      </trkpt>
      <trkpt lat="40.735326" lon="0.254043">
        <ele>682.7</ele>
        <time>2020-10-10T11:11:46Z</time>
      </trkpt>
      <trkpt lat="40.735356" lon="0.254171">
        <ele>683.5</ele>
        <time>2020-10-10T11:11:57Z</time>
      </trkpt>
      <trkpt lat="40.735379" lon="0.254303">
        <ele>684.2</ele>
        <time>2020-10-10T11:12:05Z</time>
      </trkpt>
      <trkpt lat="40.735372" lon="0.254449">
        <ele>684.6</ele>
        <time>2020-10-10T11:12:12Z</time>
      </trkpt>
      <trkpt lat="40.735402" lon="0.254562">
        <ele>685.1</ele>
        <time>2020-10-10T11:12:20Z</time>
      </trkpt>
      <trkpt lat="40.735388" lon="0.254685">
        <ele>685.6</ele>
        <time>2020-10-10T11:12:34Z</time>
      </trkpt>
      <trkpt lat="40.735420" lon="0.254808">
        <ele>685.4</ele>
        <time>2020-10-10T11:12:43Z</time>
      </trkpt>
      <trkpt lat="40.735477" lon="0.254913">
        <ele>685.7</ele>
        <time>2020-10-10T11:12:49Z</time>
      </trkpt>
      <trkpt lat="40.735548" lon="0.255031">
        <ele>685.9</ele>
        <time>2020-10-10T11:12:56Z</time>
      </trkpt>
      <trkpt lat="40.735541" lon="0.255152">
        <ele>686.1</ele>
        <time>2020-10-10T11:13:03Z</time>
      </trkpt>
      <trkpt lat="40.735513" lon="0.255271">
        <ele>686.2</ele>
        <time>2020-10-10T11:13:14Z</time>
      </trkpt>
      <trkpt lat="40.735513" lon="0.255405">
        <ele>686.0</ele>
        <time>2020-10-10T11:13:20Z</time>
      </trkpt>
      <trkpt lat="40.735546" lon="0.255529">
        <ele>686.0</ele>
        <time>2020-10-10T11:13:24Z</time>
      </trkpt>
      <trkpt lat="40.735605" lon="0.255624">
        <ele>686.2</ele>
        <time>2020-10-10T11:13:29Z</time>
      </trkpt>
      <trkpt lat="40.735677" lon="0.255727">
        <ele>686.3</ele>
        <time>2020-10-10T11:13:36Z</time>
      </trkpt>
      <trkpt lat="40.735748" lon="0.255809">
        <ele>686.1</ele>
        <time>2020-10-10T11:13:43Z</time>
      </trkpt>
      <trkpt lat="40.735818" lon="0.255900">
        <ele>685.8</ele>
        <time>2020-10-10T11:13:51Z</time>
      </trkpt>
      <trkpt lat="40.735897" lon="0.255968">
        <ele>686.5</ele>
        <time>2020-10-10T11:14:00Z</time>
      </trkpt>
      <trkpt lat="40.735973" lon="0.256042">
        <ele>687.7</ele>
        <time>2020-10-10T11:14:08Z</time>
      </trkpt>
      <trkpt lat="40.736063" lon="0.256060">
        <ele>688.4</ele>
        <time>2020-10-10T11:14:20Z</time>
      </trkpt>
      <trkpt lat="40.736149" lon="0.256016">
        <ele>688.0</ele>
        <time>2020-10-10T11:14:41Z</time>
      </trkpt>
      <trkpt lat="40.736281" lon="0.256049">
        <ele>688.6</ele>
        <time>2020-10-10T11:14:49Z</time>
      </trkpt>
      <trkpt lat="40.736378" lon="0.256066">
        <ele>688.9</ele>
        <time>2020-10-10T11:14:53Z</time>
      </trkpt>
      <trkpt lat="40.736472" lon="0.256058">
        <ele>689.4</ele>
        <time>2020-10-10T11:14:57Z</time>
      </trkpt>
      <trkpt lat="40.736561" lon="0.256084">
        <ele>690.1</ele>
        <time>2020-10-10T11:15:02Z</time>
      </trkpt>
      <trkpt lat="40.736653" lon="0.256072">
        <ele>690.4</ele>
        <time>2020-10-10T11:15:06Z</time>
      </trkpt>
      <trkpt lat="40.736751" lon="0.256058">
        <ele>691.2</ele>
        <time>2020-10-10T11:15:12Z</time>
      </trkpt>
      <trkpt lat="40.736840" lon="0.256079">
        <ele>693.1</ele>
        <time>2020-10-10T11:15:24Z</time>
      </trkpt>
      <trkpt lat="40.736942" lon="0.256181">
        <ele>693.6</ele>
        <time>2020-10-10T11:15:29Z</time>
      </trkpt>
      <trkpt lat="40.737034" lon="0.256221">
        <ele>694.0</ele>
        <time>2020-10-10T11:15:34Z</time>
      </trkpt>
      <trkpt lat="40.736981" lon="0.256318">
        <ele>694.5</ele>
        <time>2020-10-10T11:15:39Z</time>
      </trkpt>
      <trkpt lat="40.736912" lon="0.256420">
        <ele>695.3</ele>
        <time>2020-10-10T11:15:47Z</time>
      </trkpt>
      <trkpt lat="40.736825" lon="0.256463">
        <ele>696.2</ele>
        <time>2020-10-10T11:15:56Z</time>
      </trkpt>
      <trkpt lat="40.736750" lon="0.256542">
        <ele>697.9</ele>
        <time>2020-10-10T11:16:05Z</time>
      </trkpt>
      <trkpt lat="40.736729" lon="0.256669">
        <ele>698.7</ele>
        <time>2020-10-10T11:16:12Z</time>
      </trkpt>
      <trkpt lat="40.736693" lon="0.256800">
        <ele>701.4</ele>
        <time>2020-10-10T11:16:25Z</time>
      </trkpt>
      <trkpt lat="40.736674" lon="0.256930">
        <ele>702.8</ele>
        <time>2020-10-10T11:16:35Z</time>
      </trkpt>
      <trkpt lat="40.736694" lon="0.257074">
        <ele>703.5</ele>
        <time>2020-10-10T11:16:42Z</time>
      </trkpt>
      <trkpt lat="40.736718" lon="0.257197">
        <ele>704.7</ele>
        <time>2020-10-10T11:16:52Z</time>
      </trkpt>
      <trkpt lat="40.736738" lon="0.257319">
        <ele>706.5</ele>
        <time>2020-10-10T11:17:04Z</time>
      </trkpt>
      <trkpt lat="40.736695" lon="0.257436">
        <ele>707.8</ele>
        <time>2020-10-10T11:17:16Z</time>
      </trkpt>
      <trkpt lat="40.736717" lon="0.257556">
        <ele>708.7</ele>
        <time>2020-10-10T11:17:24Z</time>
      </trkpt>
      <trkpt lat="40.736785" lon="0.257653">
        <ele>709.1</ele>
        <time>2020-10-10T11:17:44Z</time>
      </trkpt>
      <trkpt lat="40.736814" lon="0.257781">
        <ele>710.7</ele>
        <time>2020-10-10T11:17:59Z</time>
      </trkpt>
      <trkpt lat="40.736881" lon="0.257874">
        <ele>712.6</ele>
        <time>2020-10-10T11:18:10Z</time>
      </trkpt>
      <trkpt lat="40.736913" lon="0.257989">
        <ele>713.7</ele>
        <time>2020-10-10T11:18:18Z</time>
      </trkpt>
      <trkpt lat="40.736967" lon="0.258111">
        <ele>716.2</ele>
        <time>2020-10-10T11:18:29Z</time>
      </trkpt>
      <trkpt lat="40.736966" lon="0.258239">
        <ele>717.8</ele>
        <time>2020-10-10T11:18:41Z</time>
      </trkpt>
      <trkpt lat="40.736981" lon="0.258360">
        <ele>719.7</ele>
        <time>2020-10-10T11:18:55Z</time>
      </trkpt>
      <trkpt lat="40.737054" lon="0.258459">
        <ele>720.8</ele>
        <time>2020-10-10T11:19:04Z</time>
      </trkpt>
      <trkpt lat="40.737131" lon="0.258527">
        <ele>721.4</ele>
        <time>2020-10-10T11:19:09Z</time>
      </trkpt>
      <trkpt lat="40.737182" lon="0.258634">
        <ele>722.8</ele>
        <time>2020-10-10T11:19:18Z</time>
      </trkpt>
      <trkpt lat="40.737240" lon="0.258733">
        <ele>724.4</ele>
        <time>2020-10-10T11:19:37Z</time>
      </trkpt>
      <trkpt lat="40.737164" lon="0.258827">
        <ele>725.8</ele>
        <time>2020-10-10T11:19:51Z</time>
      </trkpt>
      <trkpt lat="40.737172" lon="0.258949">
        <ele>726.8</ele>
        <time>2020-10-10T11:19:59Z</time>
      </trkpt>
      <trkpt lat="40.737166" lon="0.259072">
        <ele>728.4</ele>
        <time>2020-10-10T11:20:14Z</time>
      </trkpt>
      <trkpt lat="40.737132" lon="0.259186">
        <ele>728.9</ele>
        <time>2020-10-10T11:20:23Z</time>
      </trkpt>
      <trkpt lat="40.737089" lon="0.259294">
        <ele>730.0</ele>
        <time>2020-10-10T11:20:34Z</time>
      </trkpt>
      <trkpt lat="40.737088" lon="0.259428">
        <ele>731.5</ele>
        <time>2020-10-10T11:20:44Z</time>
      </trkpt>
      <trkpt lat="40.737114" lon="0.259542">
        <ele>732.8</ele>
        <time>2020-10-10T11:20:54Z</time>
      </trkpt>
      <trkpt lat="40.737111" lon="0.259665">
        <ele>734.3</ele>
        <time>2020-10-10T11:21:07Z</time>
      </trkpt>
      <trkpt lat="40.737089" lon="0.259788">
        <ele>735.4</ele>
        <time>2020-10-10T11:21:19Z</time>
      </trkpt>
      <trkpt lat="40.737121" lon="0.259904">
        <ele>736.5</ele>
        <time>2020-10-10T11:21:29Z</time>
      </trkpt>
      <trkpt lat="40.737157" lon="0.260028">
        <ele>737.6</ele>
        <time>2020-10-10T11:21:39Z</time>
      </trkpt>
      <trkpt lat="40.737176" lon="0.260145">
        <ele>739.0</ele>
        <time>2020-10-10T11:21:48Z</time>
      </trkpt>
      <trkpt lat="40.737150" lon="0.260263">
        <ele>740.4</ele>
        <time>2020-10-10T11:21:57Z</time>
      </trkpt>
      <trkpt lat="40.737149" lon="0.260391">
        <ele>741.6</ele>
        <time>2020-10-10T11:22:10Z</time>
      </trkpt>
      <trkpt lat="40.737177" lon="0.260515">
        <ele>743.0</ele>
        <time>2020-10-10T11:22:20Z</time>
      </trkpt>
      <trkpt lat="40.737180" lon="0.260633">
        <ele>745.2</ele>
        <time>2020-10-10T11:22:39Z</time>
      </trkpt>
      <trkpt lat="40.737145" lon="0.260744">
        <ele>747.6</ele>
        <time>2020-10-10T11:22:55Z</time>
      </trkpt>
      <trkpt lat="40.737083" lon="0.260854">
        <ele>748.5</ele>
        <time>2020-10-10T11:23:03Z</time>
      </trkpt>
      <trkpt lat="40.737047" lon="0.260972">
        <ele>749.9</ele>
        <time>2020-10-10T11:23:16Z</time>
      </trkpt>
      <trkpt lat="40.737070" lon="0.261091">
        <ele>750.9</ele>
        <time>2020-10-10T11:23:26Z</time>
      </trkpt>
      <trkpt lat="40.737094" lon="0.261214">
        <ele>752.2</ele>
        <time>2020-10-10T11:23:36Z</time>
      </trkpt>
      <trkpt lat="40.737029" lon="0.261306">
        <ele>753.4</ele>
        <time>2020-10-10T11:23:44Z</time>
      </trkpt>
      <trkpt lat="40.736946" lon="0.261371">
        <ele>754.6</ele>
        <time>2020-10-10T11:23:53Z</time>
      </trkpt>
      <trkpt lat="40.736897" lon="0.261485">
        <ele>756.5</ele>
        <time>2020-10-10T11:24:08Z</time>
      </trkpt>
      <trkpt lat="40.736830" lon="0.261584">
        <ele>758.0</ele>
        <time>2020-10-10T11:24:19Z</time>
      </trkpt>
      <trkpt lat="40.736753" lon="0.261684">
        <ele>760.4</ele>
        <time>2020-10-10T11:24:36Z</time>
      </trkpt>
      <trkpt lat="40.736720" lon="0.261801">
        <ele>761.5</ele>
        <time>2020-10-10T11:24:47Z</time>
      </trkpt>
      <trkpt lat="40.736720" lon="0.261923">
        <ele>762.3</ele>
        <time>2020-10-10T11:24:57Z</time>
      </trkpt>
      <trkpt lat="40.736695" lon="0.262040">
        <ele>764.0</ele>
        <time>2020-10-10T11:25:08Z</time>
      </trkpt>
      <trkpt lat="40.736627" lon="0.262119">
        <ele>765.1</ele>
        <time>2020-10-10T11:25:13Z</time>
      </trkpt>
      <trkpt lat="40.736558" lon="0.262200">
        <ele>767.5</ele>
        <time>2020-10-10T11:25:28Z</time>
      </trkpt>
      <trkpt lat="40.736464" lon="0.262240">
        <ele>768.3</ele>
        <time>2020-10-10T11:25:37Z</time>
      </trkpt>
      <trkpt lat="40.736391" lon="0.262312">
        <ele>770.0</ele>
        <time>2020-10-10T11:26:03Z</time>
      </trkpt>
      <trkpt lat="40.736314" lon="0.262376">
        <ele>771.2</ele>
        <time>2020-10-10T11:26:14Z</time>
      </trkpt>
      <trkpt lat="40.736270" lon="0.262500">
        <ele>772.0</ele>
        <time>2020-10-10T11:26:25Z</time>
      </trkpt>
      <trkpt lat="40.736297" lon="0.262618">
        <ele>773.2</ele>
        <time>2020-10-10T11:26:38Z</time>
      </trkpt>
      <trkpt lat="40.736363" lon="0.262708">
        <ele>774.1</ele>
        <time>2020-10-10T11:26:44Z</time>
      </trkpt>
      <trkpt lat="40.736427" lon="0.262803">
        <ele>775.0</ele>
        <time>2020-10-10T11:26:50Z</time>
      </trkpt>
      <trkpt lat="40.736496" lon="0.262884">
        <ele>775.5</ele>
        <time>2020-10-10T11:26:56Z</time>
      </trkpt>
      <trkpt lat="40.736493" lon="0.263003">
        <ele>776.1</ele>
        <time>2020-10-10T11:27:05Z</time>
      </trkpt>
      <trkpt lat="40.736555" lon="0.263096">
        <ele>777.2</ele>
        <time>2020-10-10T11:27:15Z</time>
      </trkpt>
      <trkpt lat="40.736623" lon="0.263179">
        <ele>778.2</ele>
        <time>2020-10-10T11:27:22Z</time>
      </trkpt>
      <trkpt lat="40.736587" lon="0.263292">
        <ele>779.6</ele>
        <time>2020-10-10T11:27:34Z</time>
      </trkpt>
      <trkpt lat="40.736601" lon="0.263418">
        <ele>780.8</ele>
        <time>2020-10-10T11:27:44Z</time>
      </trkpt>
      <trkpt lat="40.736628" lon="0.263532">
        <ele>781.9</ele>
        <time>2020-10-10T11:27:50Z</time>
      </trkpt>
      <trkpt lat="40.736609" lon="0.263653">
        <ele>783.1</ele>
        <time>2020-10-10T11:28:00Z</time>
      </trkpt>
      <trkpt lat="40.736547" lon="0.263744">
        <ele>783.8</ele>
        <time>2020-10-10T11:28:06Z</time>
      </trkpt>
      <trkpt lat="40.736463" lon="0.263811">
        <ele>784.2</ele>
        <time>2020-10-10T11:28:13Z</time>
      </trkpt>
      <trkpt lat="40.736379" lon="0.263868">
        <ele>785.2</ele>
        <time>2020-10-10T11:28:24Z</time>
      </trkpt>
      <trkpt lat="40.736315" lon="0.263953">
        <ele>786.3</ele>
        <time>2020-10-10T11:28:33Z</time>
      </trkpt>
      <trkpt lat="40.736280" lon="0.264070">
        <ele>788.2</ele>
        <time>2020-10-10T11:28:51Z</time>
      </trkpt>
      <trkpt lat="40.736208" lon="0.264141">
        <ele>788.8</ele>
        <time>2020-10-10T11:29:00Z</time>
      </trkpt>
      <trkpt lat="40.736137" lon="0.264216">
        <ele>789.6</ele>
        <time>2020-10-10T11:29:09Z</time>
      </trkpt>
      <trkpt lat="40.736071" lon="0.264306">
        <ele>790.1</ele>
        <time>2020-10-10T11:29:16Z</time>
      </trkpt>
      <trkpt lat="40.736012" lon="0.264407">
        <ele>791.1</ele>
        <time>2020-10-10T11:29:27Z</time>
      </trkpt>
      <trkpt lat="40.735932" lon="0.264475">
        <ele>792.1</ele>
        <time>2020-10-10T11:29:35Z</time>
      </trkpt>
      <trkpt lat="40.735894" lon="0.264599">
        <ele>792.9</ele>
        <time>2020-10-10T11:29:43Z</time>
      </trkpt>
      <trkpt lat="40.735897" lon="0.264718">
        <ele>793.6</ele>
        <time>2020-10-10T11:29:51Z</time>
      </trkpt>
      <trkpt lat="40.735935" lon="0.264831">
        <ele>794.3</ele>
        <time>2020-10-10T11:29:57Z</time>
      </trkpt>
      <trkpt lat="40.736017" lon="0.264887">
        <ele>795.5</ele>
        <time>2020-10-10T11:30:03Z</time>
      </trkpt>
      <trkpt lat="40.736019" lon="0.265019">
        <ele>796.4</ele>
        <time>2020-10-10T11:30:12Z</time>
      </trkpt>
      <trkpt lat="40.736048" lon="0.265159">
        <ele>797.3</ele>
        <time>2020-10-10T11:30:20Z</time>
      </trkpt>
      <trkpt lat="40.736073" lon="0.265286">
        <ele>798.2</ele>
        <time>2020-10-10T11:30:26Z</time>
      </trkpt>
      <trkpt lat="40.736130" lon="0.265383">
        <ele>799.2</ele>
        <time>2020-10-10T11:30:35Z</time>
      </trkpt>
      <trkpt lat="40.736149" lon="0.265514">
        <ele>799.6</ele>
        <time>2020-10-10T11:30:43Z</time>
      </trkpt>
      <trkpt lat="40.736141" lon="0.265684">
        <ele>800.0</ele>
        <time>2020-10-10T11:30:55Z</time>
      </trkpt>
      <trkpt lat="40.736151" lon="0.265826">
        <ele>803.3</ele>
        <time>2020-10-10T11:31:09Z</time>
      </trkpt>
      <trkpt lat="40.736229" lon="0.265931">
        <ele>803.9</ele>
        <time>2020-10-10T11:31:18Z</time>
      </trkpt>
      <trkpt lat="40.736228" lon="0.266082">
        <ele>805.3</ele>
        <time>2020-10-10T11:31:28Z</time>
      </trkpt>
      <trkpt lat="40.736230" lon="0.266202">
        <ele>806.2</ele>
        <time>2020-10-10T11:31:40Z</time>
      </trkpt>
      <trkpt lat="40.736308" lon="0.266279">
        <ele>807.3</ele>
        <time>2020-10-10T11:31:47Z</time>
      </trkpt>
      <trkpt lat="40.736396" lon="0.266319">
        <ele>808.3</ele>
        <time>2020-10-10T11:31:53Z</time>
      </trkpt>
      <trkpt lat="40.736475" lon="0.266405">
        <ele>809.5</ele>
        <time>2020-10-10T11:32:02Z</time>
      </trkpt>
      <trkpt lat="40.736561" lon="0.266488">
        <ele>811.3</ele>
        <time>2020-10-10T11:32:15Z</time>
      </trkpt>
      <trkpt lat="40.736628" lon="0.266573">
        <ele>813.0</ele>
        <time>2020-10-10T11:32:25Z</time>
      </trkpt>
      <trkpt lat="40.736720" lon="0.266602">
        <ele>813.2</ele>
        <time>2020-10-10T11:32:30Z</time>
      </trkpt>
      <trkpt lat="40.736809" lon="0.266660">
        <ele>814.1</ele>
        <time>2020-10-10T11:32:37Z</time>
      </trkpt>
      <trkpt lat="40.736892" lon="0.266706">
        <ele>817.0</ele>
        <time>2020-10-10T11:32:46Z</time>
      </trkpt>
      <trkpt lat="40.736972" lon="0.266775">
        <ele>818.7</ele>
        <time>2020-10-10T11:32:56Z</time>
      </trkpt>
      <trkpt lat="40.736983" lon="0.266897">
        <ele>817.8</ele>
        <time>2020-10-10T11:33:08Z</time>
      </trkpt>
      <trkpt lat="40.736891" lon="0.266951">
        <ele>818.3</ele>
        <time>2020-10-10T11:33:17Z</time>
      </trkpt>
      <trkpt lat="40.736829" lon="0.267040">
        <ele>817.4</ele>
        <time>2020-10-10T11:33:25Z</time>
      </trkpt>
      <trkpt lat="40.736813" lon="0.267167">
        <ele>816.1</ele>
        <time>2020-10-10T11:33:36Z</time>
      </trkpt>
      <trkpt lat="40.736876" lon="0.267275">
        <ele>816.0</ele>
        <time>2020-10-10T11:33:47Z</time>
      </trkpt>
      <trkpt lat="40.736954" lon="0.267345">
        <ele>816.1</ele>
        <time>2020-10-10T11:33:56Z</time>
      </trkpt>
      <trkpt lat="40.737015" lon="0.267439">
        <ele>817.2</ele>
        <time>2020-10-10T11:34:04Z</time>
      </trkpt>
      <trkpt lat="40.737046" lon="0.267553">
        <ele>818.1</ele>
        <time>2020-10-10T11:34:12Z</time>
      </trkpt>
      <trkpt lat="40.737137" lon="0.267604">
        <ele>818.4</ele>
        <time>2020-10-10T11:34:17Z</time>
      </trkpt>
      <trkpt lat="40.737232" lon="0.267691">
        <ele>818.5</ele>
        <time>2020-10-10T11:34:23Z</time>
      </trkpt>
      <trkpt lat="40.737239" lon="0.267853">
        <ele>819.0</ele>
        <time>2020-10-10T11:34:42Z</time>
      </trkpt>
      <trkpt lat="40.737281" lon="0.267986">
        <ele>821.0</ele>
        <time>2020-10-10T11:34:54Z</time>
      </trkpt>
      <trkpt lat="40.737155" lon="0.268140">
        <ele>821.7</ele>
        <time>2020-10-10T11:35:01Z</time>
      </trkpt>
      <trkpt lat="40.737313" lon="0.268218">
        <ele>822.0</ele>
        <time>2020-10-10T11:35:11Z</time>
      </trkpt>
      <trkpt lat="40.737414" lon="0.268309">
        <ele>823.0</ele>
        <time>2020-10-10T11:35:19Z</time>
      </trkpt>
      <trkpt lat="40.737514" lon="0.268439">
        <ele>824.0</ele>
        <time>2020-10-10T11:35:31Z</time>
      </trkpt>
      <trkpt lat="40.737614" lon="0.268569">
        <ele>825.0</ele>
        <time>2020-10-10T11:35:43Z</time>
      </trkpt>
      <trkpt lat="40.737762" lon="0.268710">
        <ele>826.0</ele>
        <time>2020-10-10T11:35:53Z</time>
      </trkpt>
      <trkpt lat="40.737862" lon="0.268751">
        <ele>826.2</ele>
        <time>2020-10-10T11:35:57Z</time>
      </trkpt>
      <trkpt lat="40.737968" lon="0.268789">
        <ele>825.8</ele>
        <time>2020-10-10T11:36:04Z</time>
      </trkpt>
      <trkpt lat="40.738023" lon="0.268902">
        <ele>825.5</ele>
        <time>2020-10-10T11:36:13Z</time>
      </trkpt>
      <trkpt lat="40.738073" lon="0.269006">
        <ele>823.9</ele>
        <time>2020-10-10T11:36:22Z</time>
      </trkpt>
      <trkpt lat="40.738106" lon="0.269129">
        <ele>822.3</ele>
        <time>2020-10-10T11:36:32Z</time>
      </trkpt>
      <trkpt lat="40.738057" lon="0.269248">
        <ele>820.9</ele>
        <time>2020-10-10T11:36:38Z</time>
      </trkpt>
      <trkpt lat="40.738027" lon="0.269367">
        <ele>820.0</ele>
        <time>2020-10-10T11:36:45Z</time>
      </trkpt>
      <trkpt lat="40.738073" lon="0.269475">
        <ele>818.7</ele>
        <time>2020-10-10T11:36:53Z</time>
      </trkpt>
      <trkpt lat="40.738106" lon="0.269622">
        <ele>817.8</ele>
        <time>2020-10-10T11:37:05Z</time>
      </trkpt>
      <trkpt lat="40.738160" lon="0.269730">
        <ele>817.3</ele>
        <time>2020-10-10T11:37:18Z</time>
      </trkpt>
      <trkpt lat="40.738212" lon="0.269831">
        <ele>815.6</ele>
        <time>2020-10-10T11:37:29Z</time>
      </trkpt>
      <trkpt lat="40.738253" lon="0.269949">
        <ele>815.0</ele>
        <time>2020-10-10T11:37:35Z</time>
      </trkpt>
      <trkpt lat="40.738318" lon="0.270032">
        <ele>814.2</ele>
        <time>2020-10-10T11:37:42Z</time>
      </trkpt>
      <trkpt lat="40.738370" lon="0.270135">
        <ele>814.0</ele>
        <time>2020-10-10T11:37:47Z</time>
      </trkpt>
      <trkpt lat="40.738442" lon="0.270215">
        <ele>813.4</ele>
        <time>2020-10-10T11:37:52Z</time>
      </trkpt>
      <trkpt lat="40.738527" lon="0.270268">
        <ele>814.2</ele>
        <time>2020-10-10T11:38:04Z</time>
      </trkpt>
      <trkpt lat="40.738525" lon="0.270148">
        <ele>816.9</ele>
        <time>2020-10-10T11:39:16Z</time>
      </trkpt>
      <trkpt lat="40.738465" lon="0.270054">
        <ele>817.2</ele>
        <time>2020-10-10T11:39:34Z</time>
      </trkpt>
      <trkpt lat="40.738526" lon="0.269960">
        <ele>819.2</ele>
        <time>2020-10-10T11:40:18Z</time>
      </trkpt>
      <trkpt lat="40.738569" lon="0.269841">
        <ele>820.4</ele>
        <time>2020-10-10T11:40:30Z</time>
      </trkpt>
      <trkpt lat="40.738593" lon="0.269726">
        <ele>821.6</ele>
        <time>2020-10-10T11:40:39Z</time>
      </trkpt>
      <trkpt lat="40.738608" lon="0.269603">
        <ele>823.3</ele>
        <time>2020-10-10T11:40:51Z</time>
      </trkpt>
      <trkpt lat="40.738625" lon="0.269485">
        <ele>824.1</ele>
        <time>2020-10-10T11:41:01Z</time>
      </trkpt>
      <trkpt lat="40.738706" lon="0.269421">
        <ele>825.3</ele>
        <time>2020-10-10T11:41:12Z</time>
      </trkpt>
      <trkpt lat="40.738796" lon="0.269381">
        <ele>827.0</ele>
        <time>2020-10-10T11:41:28Z</time>
      </trkpt>
      <trkpt lat="40.738889" lon="0.269374">
        <ele>829.4</ele>
        <time>2020-10-10T11:41:40Z</time>
      </trkpt>
      <trkpt lat="40.738986" lon="0.269358">
        <ele>831.1</ele>
        <time>2020-10-10T11:41:51Z</time>
      </trkpt>
      <trkpt lat="40.739071" lon="0.269301">
        <ele>832.3</ele>
        <time>2020-10-10T11:42:04Z</time>
      </trkpt>
      <trkpt lat="40.739131" lon="0.269207">
        <ele>833.3</ele>
        <time>2020-10-10T11:42:15Z</time>
      </trkpt>
      <trkpt lat="40.739189" lon="0.269103">
        <ele>834.5</ele>
        <time>2020-10-10T11:42:25Z</time>
      </trkpt>
      <trkpt lat="40.739272" lon="0.269024">
        <ele>835.6</ele>
        <time>2020-10-10T11:42:31Z</time>
      </trkpt>
      <trkpt lat="40.739358" lon="0.268979">
        <ele>836.6</ele>
        <time>2020-10-10T11:42:38Z</time>
      </trkpt>
      <trkpt lat="40.739430" lon="0.268907">
        <ele>839.6</ele>
        <time>2020-10-10T11:42:51Z</time>
      </trkpt>
      <trkpt lat="40.739506" lon="0.268839">
        <ele>840.9</ele>
        <time>2020-10-10T11:43:04Z</time>
      </trkpt>
      <trkpt lat="40.739500" lon="0.268714">
        <ele>843.6</ele>
        <time>2020-10-10T11:43:20Z</time>
      </trkpt>
      <trkpt lat="40.739453" lon="0.268605">
        <ele>845.1</ele>
        <time>2020-10-10T11:43:30Z</time>
      </trkpt>
      <trkpt lat="40.739376" lon="0.268507">
        <ele>847.1</ele>
        <time>2020-10-10T11:43:41Z</time>
      </trkpt>
      <trkpt lat="40.739352" lon="0.268387">
        <ele>849.0</ele>
        <time>2020-10-10T11:43:52Z</time>
      </trkpt>
      <trkpt lat="40.739268" lon="0.268336">
        <ele>850.0</ele>
        <time>2020-10-10T11:43:59Z</time>
      </trkpt>
      <trkpt lat="40.739225" lon="0.268229">
        <ele>851.5</ele>
        <time>2020-10-10T11:44:08Z</time>
      </trkpt>
      <trkpt lat="40.739157" lon="0.268144">
        <ele>852.9</ele>
        <time>2020-10-10T11:44:19Z</time>
      </trkpt>
      <trkpt lat="40.739158" lon="0.268025">
        <ele>854.1</ele>
        <time>2020-10-10T11:44:31Z</time>
      </trkpt>
      <trkpt lat="40.739118" lon="0.267918">
        <ele>854.8</ele>
        <time>2020-10-10T11:44:40Z</time>
      </trkpt>
      <trkpt lat="40.739049" lon="0.267832">
        <ele>855.9</ele>
        <time>2020-10-10T11:44:51Z</time>
      </trkpt>
      <trkpt lat="40.739009" lon="0.267724">
        <ele>857.1</ele>
        <time>2020-10-10T11:45:00Z</time>
      </trkpt>
      <trkpt lat="40.738947" lon="0.267633">
        <ele>858.4</ele>
        <time>2020-10-10T11:45:10Z</time>
      </trkpt>
      <trkpt lat="40.738945" lon="0.267509">
        <ele>858.9</ele>
        <time>2020-10-10T11:45:15Z</time>
      </trkpt>
      <trkpt lat="40.738882" lon="0.267423">
        <ele>860.9</ele>
        <time>2020-10-10T11:45:22Z</time>
      </trkpt>
      <trkpt lat="40.738818" lon="0.267316">
        <ele>862.2</ele>
        <time>2020-10-10T11:45:32Z</time>
      </trkpt>
      <trkpt lat="40.738799" lon="0.267193">
        <ele>863.3</ele>
        <time>2020-10-10T11:45:45Z</time>
      </trkpt>
      <trkpt lat="40.738752" lon="0.267091">
        <ele>864.5</ele>
        <time>2020-10-10T11:46:15Z</time>
      </trkpt>
      <trkpt lat="40.738735" lon="0.266967">
        <ele>866.7</ele>
        <time>2020-10-10T11:46:50Z</time>
      </trkpt>
      <trkpt lat="40.738723" lon="0.266839">
        <ele>868.4</ele>
        <time>2020-10-10T11:47:05Z</time>
      </trkpt>
      <trkpt lat="40.738742" lon="0.266698">
        <ele>869.6</ele>
        <time>2020-10-10T11:47:17Z</time>
      </trkpt>
      <trkpt lat="40.738805" lon="0.266608">
        <ele>870.3</ele>
        <time>2020-10-10T11:47:24Z</time>
      </trkpt>
      <trkpt lat="40.738814" lon="0.266483">
        <ele>870.8</ele>
        <time>2020-10-10T11:47:35Z</time>
      </trkpt>
      <trkpt lat="40.738827" lon="0.266365">
        <ele>871.5</ele>
        <time>2020-10-10T11:47:44Z</time>
      </trkpt>
      <trkpt lat="40.738853" lon="0.266243">
        <ele>872.1</ele>
        <time>2020-10-10T11:47:55Z</time>
      </trkpt>
      <trkpt lat="40.738903" lon="0.266133">
        <ele>874.2</ele>
        <time>2020-10-10T11:48:06Z</time>
      </trkpt>
      <trkpt lat="40.738946" lon="0.266026">
        <ele>875.4</ele>
        <time>2020-10-10T11:48:15Z</time>
      </trkpt>
      <trkpt lat="40.738942" lon="0.265900">
        <ele>875.8</ele>
        <time>2020-10-10T11:48:27Z</time>
      </trkpt>
      <trkpt lat="40.738895" lon="0.265785">
        <ele>876.8</ele>
        <time>2020-10-10T11:48:40Z</time>
      </trkpt>
      <trkpt lat="40.738841" lon="0.265677">
        <ele>878.3</ele>
        <time>2020-10-10T11:48:50Z</time>
      </trkpt>
      <trkpt lat="40.738802" lon="0.265569">
        <ele>879.9</ele>
        <time>2020-10-10T11:49:00Z</time>
      </trkpt>
      <trkpt lat="40.738815" lon="0.265441">
        <ele>881.0</ele>
        <time>2020-10-10T11:49:09Z</time>
      </trkpt>
      <trkpt lat="40.738806" lon="0.265313">
        <ele>882.1</ele>
        <time>2020-10-10T11:49:21Z</time>
      </trkpt>
      <trkpt lat="40.738769" lon="0.265202">
        <ele>884.3</ele>
        <time>2020-10-10T11:49:29Z</time>
      </trkpt>
      <trkpt lat="40.738732" lon="0.265092">
        <ele>885.9</ele>
        <time>2020-10-10T11:49:44Z</time>
      </trkpt>
      <trkpt lat="40.738670" lon="0.265005">
        <ele>887.0</ele>
        <time>2020-10-10T11:49:53Z</time>
      </trkpt>
      <trkpt lat="40.738713" lon="0.264899">
        <ele>888.2</ele>
        <time>2020-10-10T11:50:08Z</time>
      </trkpt>
      <trkpt lat="40.738807" lon="0.264885">
        <ele>888.2</ele>
        <time>2020-10-10T11:50:32Z</time>
      </trkpt>
      <trkpt lat="40.738899" lon="0.264872">
        <ele>888.7</ele>
        <time>2020-10-10T11:50:44Z</time>
      </trkpt>
      <trkpt lat="40.738999" lon="0.264867">
        <ele>889.3</ele>
        <time>2020-10-10T11:51:00Z</time>
      </trkpt>
      <trkpt lat="40.739075" lon="0.264794">
        <ele>889.9</ele>
        <time>2020-10-10T11:51:10Z</time>
      </trkpt>
      <trkpt lat="40.739173" lon="0.264795">
        <ele>890.2</ele>
        <time>2020-10-10T11:51:18Z</time>
      </trkpt>
      <trkpt lat="40.739272" lon="0.264814">
        <ele>891.7</ele>
        <time>2020-10-10T11:51:28Z</time>
      </trkpt>
      <trkpt lat="40.739363" lon="0.264802">
        <ele>893.5</ele>
        <time>2020-10-10T11:51:41Z</time>
      </trkpt>
      <trkpt lat="40.739457" lon="0.264797">
        <ele>894.2</ele>
        <time>2020-10-10T11:51:52Z</time>
      </trkpt>
      <trkpt lat="40.739558" lon="0.264765">
        <ele>895.3</ele>
        <time>2020-10-10T11:52:06Z</time>
      </trkpt>
      <trkpt lat="40.739648" lon="0.264787">
        <ele>895.6</ele>
        <time>2020-10-10T11:52:18Z</time>
      </trkpt>
      <trkpt lat="40.739740" lon="0.264749">
        <ele>896.9</ele>
        <time>2020-10-10T11:52:29Z</time>
      </trkpt>
      <trkpt lat="40.739835" lon="0.264685">
        <ele>897.9</ele>
        <time>2020-10-10T11:52:35Z</time>
      </trkpt>
      <trkpt lat="40.739911" lon="0.264603">
        <ele>898.4</ele>
        <time>2020-10-10T11:52:41Z</time>
      </trkpt>
      <trkpt lat="40.739987" lon="0.264515">
        <ele>899.2</ele>
        <time>2020-10-10T11:52:51Z</time>
      </trkpt>
      <trkpt lat="40.740059" lon="0.264439">
        <ele>900.6</ele>
        <time>2020-10-10T11:53:01Z</time>
      </trkpt>
      <trkpt lat="40.740061" lon="0.264311">
        <ele>901.2</ele>
        <time>2020-10-10T11:53:10Z</time>
      </trkpt>
      <trkpt lat="40.740040" lon="0.264193">
        <ele>901.7</ele>
        <time>2020-10-10T11:53:16Z</time>
      </trkpt>
      <trkpt lat="40.740021" lon="0.264072">
        <ele>900.5</ele>
        <time>2020-10-10T11:53:26Z</time>
      </trkpt>
      <trkpt lat="40.739950" lon="0.263994">
        <ele>900.7</ele>
        <time>2020-10-10T11:53:33Z</time>
      </trkpt>
      <trkpt lat="40.739955" lon="0.263866">
        <ele>900.2</ele>
        <time>2020-10-10T11:53:41Z</time>
      </trkpt>
      <trkpt lat="40.739983" lon="0.263739">
        <ele>899.3</ele>
        <time>2020-10-10T11:53:48Z</time>
      </trkpt>
      <trkpt lat="40.740032" lon="0.263628">
        <ele>897.3</ele>
        <time>2020-10-10T11:53:57Z</time>
      </trkpt>
      <trkpt lat="40.740105" lon="0.263548">
        <ele>896.8</ele>
        <time>2020-10-10T11:54:03Z</time>
      </trkpt>
      <trkpt lat="40.740153" lon="0.263442">
        <ele>898.0</ele>
        <time>2020-10-10T11:54:15Z</time>
      </trkpt>
      <trkpt lat="40.740109" lon="0.263331">
        <ele>898.7</ele>
        <time>2020-10-10T11:54:22Z</time>
      </trkpt>
      <trkpt lat="40.740067" lon="0.263226">
        <ele>900.0</ele>
        <time>2020-10-10T11:54:30Z</time>
      </trkpt>
      <trkpt lat="40.740073" lon="0.263103">
        <ele>901.8</ele>
        <time>2020-10-10T11:54:52Z</time>
      </trkpt>
      <trkpt lat="40.740071" lon="0.262979">
        <ele>904.0</ele>
        <time>2020-10-10T11:55:02Z</time>
      </trkpt>
      <trkpt lat="40.740088" lon="0.262851">
        <ele>905.8</ele>
        <time>2020-10-10T11:55:12Z</time>
      </trkpt>
      <trkpt lat="40.740127" lon="0.262744">
        <ele>906.5</ele>
        <time>2020-10-10T11:55:19Z</time>
      </trkpt>
      <trkpt lat="40.740183" lon="0.262639">
        <ele>908.3</ele>
        <time>2020-10-10T11:55:31Z</time>
      </trkpt>
      <trkpt lat="40.740221" lon="0.262529">
        <ele>909.2</ele>
        <time>2020-10-10T11:55:40Z</time>
      </trkpt>
      <trkpt lat="40.740232" lon="0.262402">
        <ele>911.5</ele>
        <time>2020-10-10T11:55:56Z</time>
      </trkpt>
      <trkpt lat="40.740251" lon="0.262276">
        <ele>912.9</ele>
        <time>2020-10-10T11:56:07Z</time>
      </trkpt>
      <trkpt lat="40.740262" lon="0.262145">
        <ele>913.4</ele>
        <time>2020-10-10T11:56:16Z</time>
      </trkpt>
      <trkpt lat="40.740276" lon="0.262020">
        <ele>913.7</ele>
        <time>2020-10-10T11:56:24Z</time>
      </trkpt>
      <trkpt lat="40.740310" lon="0.261902">
        <ele>914.5</ele>
        <time>2020-10-10T11:56:33Z</time>
      </trkpt>
      <trkpt lat="40.740341" lon="0.261787">
        <ele>915.7</ele>
        <time>2020-10-10T11:56:49Z</time>
      </trkpt>
      <trkpt lat="40.740342" lon="0.261664">
        <ele>917.5</ele>
        <time>2020-10-10T11:57:02Z</time>
      </trkpt>
      <trkpt lat="40.740334" lon="0.261533">
        <ele>918.5</ele>
        <time>2020-10-10T11:57:13Z</time>
      </trkpt>
      <trkpt lat="40.740355" lon="0.261415">
        <ele>919.4</ele>
        <time>2020-10-10T11:57:24Z</time>
      </trkpt>
      <trkpt lat="40.740385" lon="0.261292">
        <ele>920.3</ele>
        <time>2020-10-10T11:57:33Z</time>
      </trkpt>
      <trkpt lat="40.740346" lon="0.261161">
        <ele>920.7</ele>
        <time>2020-10-10T11:57:42Z</time>
      </trkpt>
      <trkpt lat="40.740350" lon="0.261040">
        <ele>921.6</ele>
        <time>2020-10-10T11:57:53Z</time>
      </trkpt>
      <trkpt lat="40.740345" lon="0.260917">
        <ele>922.5</ele>
        <time>2020-10-10T11:58:01Z</time>
      </trkpt>
      <trkpt lat="40.740354" lon="0.260796">
        <ele>924.2</ele>
        <time>2020-10-10T11:58:10Z</time>
      </trkpt>
      <trkpt lat="40.740363" lon="0.260758">
        <ele>924.5</ele>
        <time>2020-10-10T11:58:13Z</time>
      </trkpt>
      <trkpt lat="40.740770" lon="0.260420">
        <ele>930.0</ele>
        <time>2020-10-10T12:02:30Z</time>
      </trkpt>
      <trkpt lat="40.741114" lon="0.260381">
        <ele>922.8</ele>
        <time>2020-10-10T12:04:40Z</time>
      </trkpt>
      <trkpt lat="40.741125" lon="0.260381">
        <ele>922.8</ele>
        <time>2020-10-10T12:04:41Z</time>
      </trkpt>
      <trkpt lat="40.741211" lon="0.260343">
        <ele>923.1</ele>
        <time>2020-10-10T12:04:50Z</time>
      </trkpt>
      <trkpt lat="40.741298" lon="0.260314">
        <ele>923.4</ele>
        <time>2020-10-10T12:05:00Z</time>
      </trkpt>
      <trkpt lat="40.741385" lon="0.260275">
        <ele>923.8</ele>
        <time>2020-10-10T12:05:09Z</time>
      </trkpt>
      <trkpt lat="40.741468" lon="0.260223">
        <ele>925.0</ele>
        <time>2020-10-10T12:05:19Z</time>
      </trkpt>
      <trkpt lat="40.741557" lon="0.260260">
        <ele>925.8</ele>
        <time>2020-10-10T12:05:31Z</time>
      </trkpt>
      <trkpt lat="40.741651" lon="0.260253">
        <ele>926.0</ele>
        <time>2020-10-10T12:05:38Z</time>
      </trkpt>
      <trkpt lat="40.741743" lon="0.260301">
        <ele>926.7</ele>
        <time>2020-10-10T12:05:46Z</time>
      </trkpt>
      <trkpt lat="40.741844" lon="0.260274">
        <ele>927.2</ele>
        <time>2020-10-10T12:05:57Z</time>
      </trkpt>
      <trkpt lat="40.741936" lon="0.260311">
        <ele>928.0</ele>
        <time>2020-10-10T12:06:03Z</time>
      </trkpt>
      <trkpt lat="40.742034" lon="0.260284">
        <ele>928.6</ele>
        <time>2020-10-10T12:06:13Z</time>
      </trkpt>
      <trkpt lat="40.742108" lon="0.260191">
        <ele>929.3</ele>
        <time>2020-10-10T12:06:20Z</time>
      </trkpt>
      <trkpt lat="40.742171" lon="0.260101">
        <ele>931.6</ele>
        <time>2020-10-10T12:06:34Z</time>
      </trkpt>
      <trkpt lat="40.742260" lon="0.260062">
        <ele>933.2</ele>
        <time>2020-10-10T12:06:45Z</time>
      </trkpt>
      <trkpt lat="40.742355" lon="0.260058">
        <ele>934.7</ele>
        <time>2020-10-10T12:07:00Z</time>
      </trkpt>
      <trkpt lat="40.742455" lon="0.260049">
        <ele>935.4</ele>
        <time>2020-10-10T12:07:08Z</time>
      </trkpt>
      <trkpt lat="40.742552" lon="0.260061">
        <ele>936.6</ele>
        <time>2020-10-10T12:07:19Z</time>
      </trkpt>
      <trkpt lat="40.742641" lon="0.260027">
        <ele>938.3</ele>
        <time>2020-10-10T12:07:31Z</time>
      </trkpt>
      <trkpt lat="40.742738" lon="0.260017">
        <ele>938.9</ele>
        <time>2020-10-10T12:07:36Z</time>
      </trkpt>
      <trkpt lat="40.742829" lon="0.259988">
        <ele>939.6</ele>
        <time>2020-10-10T12:07:45Z</time>
      </trkpt>
      <trkpt lat="40.742905" lon="0.259924">
        <ele>939.7</ele>
        <time>2020-10-10T12:07:49Z</time>
      </trkpt>
      <trkpt lat="40.742980" lon="0.259851">
        <ele>939.4</ele>
        <time>2020-10-10T12:07:55Z</time>
      </trkpt>
      <trkpt lat="40.743070" lon="0.259813">
        <ele>939.1</ele>
        <time>2020-10-10T12:08:04Z</time>
      </trkpt>
      <trkpt lat="40.743158" lon="0.259849">
        <ele>938.6</ele>
        <time>2020-10-10T12:08:14Z</time>
      </trkpt>
      <trkpt lat="40.743210" lon="0.259953">
        <ele>938.9</ele>
        <time>2020-10-10T12:08:26Z</time>
      </trkpt>
      <trkpt lat="40.743298" lon="0.260016">
        <ele>938.9</ele>
        <time>2020-10-10T12:08:34Z</time>
      </trkpt>
      <trkpt lat="40.743378" lon="0.260073">
        <ele>939.8</ele>
        <time>2020-10-10T12:08:47Z</time>
      </trkpt>
      <trkpt lat="40.743444" lon="0.260155">
        <ele>940.5</ele>
        <time>2020-10-10T12:09:01Z</time>
      </trkpt>
      <trkpt lat="40.743535" lon="0.260194">
        <ele>940.7</ele>
        <time>2020-10-10T12:09:09Z</time>
      </trkpt>
      <trkpt lat="40.743651" lon="0.260134">
        <ele>942.0</ele>
        <time>2020-10-10T12:09:22Z</time>
      </trkpt>
      <trkpt lat="40.743748" lon="0.260145">
        <ele>943.9</ele>
        <time>2020-10-10T12:09:33Z</time>
      </trkpt>
      <trkpt lat="40.743837" lon="0.260167">
        <ele>944.0</ele>
        <time>2020-10-10T12:09:41Z</time>
      </trkpt>
      <trkpt lat="40.743924" lon="0.260203">
        <ele>945.5</ele>
        <time>2020-10-10T12:09:51Z</time>
      </trkpt>
      <trkpt lat="40.744013" lon="0.260248">
        <ele>945.0</ele>
        <time>2020-10-10T12:09:56Z</time>
      </trkpt>
      <trkpt lat="40.744110" lon="0.260302">
        <ele>944.6</ele>
        <time>2020-10-10T12:10:01Z</time>
      </trkpt>
      <trkpt lat="40.744203" lon="0.260342">
        <ele>944.5</ele>
        <time>2020-10-10T12:10:09Z</time>
      </trkpt>
      <trkpt lat="40.744312" lon="0.260375">
        <ele>944.1</ele>
        <time>2020-10-10T12:10:20Z</time>
      </trkpt>
      <trkpt lat="40.744405" lon="0.260419">
        <ele>944.2</ele>
        <time>2020-10-10T12:10:26Z</time>
      </trkpt>
      <trkpt lat="40.744503" lon="0.260389">
        <ele>944.2</ele>
        <time>2020-10-10T12:10:37Z</time>
      </trkpt>
      <trkpt lat="40.744600" lon="0.260392">
        <ele>943.4</ele>
        <time>2020-10-10T12:10:47Z</time>
      </trkpt>
      <trkpt lat="40.744688" lon="0.260423">
        <ele>942.0</ele>
        <time>2020-10-10T12:10:56Z</time>
      </trkpt>
      <trkpt lat="40.744782" lon="0.260419">
        <ele>941.7</ele>
        <time>2020-10-10T12:11:08Z</time>
      </trkpt>
      <trkpt lat="40.744879" lon="0.260383">
        <ele>942.0</ele>
        <time>2020-10-10T12:11:18Z</time>
      </trkpt>
      <trkpt lat="40.744975" lon="0.260344">
        <ele>942.4</ele>
        <time>2020-10-10T12:11:29Z</time>
      </trkpt>
      <trkpt lat="40.745052" lon="0.260266">
        <ele>941.7</ele>
        <time>2020-10-10T12:11:35Z</time>
      </trkpt>
      <trkpt lat="40.745127" lon="0.260198">
        <ele>941.2</ele>
        <time>2020-10-10T12:11:38Z</time>
      </trkpt>
      <trkpt lat="40.745209" lon="0.260111">
        <ele>940.9</ele>
        <time>2020-10-10T12:11:43Z</time>
      </trkpt>
      <trkpt lat="40.745270" lon="0.260017">
        <ele>940.7</ele>
        <time>2020-10-10T12:11:49Z</time>
      </trkpt>
      <trkpt lat="40.745354" lon="0.259938">
        <ele>940.4</ele>
        <time>2020-10-10T12:11:55Z</time>
      </trkpt>
      <trkpt lat="40.745420" lon="0.259853">
        <ele>938.7</ele>
        <time>2020-10-10T12:12:05Z</time>
      </trkpt>
      <trkpt lat="40.745489" lon="0.259763">
        <ele>937.4</ele>
        <time>2020-10-10T12:12:13Z</time>
      </trkpt>
      <trkpt lat="40.745560" lon="0.259649">
        <ele>936.8</ele>
        <time>2020-10-10T12:12:18Z</time>
      </trkpt>
      <trkpt lat="40.745638" lon="0.259582">
        <ele>936.3</ele>
        <time>2020-10-10T12:12:25Z</time>
      </trkpt>
      <trkpt lat="40.745710" lon="0.259660">
        <ele>933.8</ele>
        <time>2020-10-10T12:12:47Z</time>
      </trkpt>
      <trkpt lat="40.745759" lon="0.259763">
        <ele>932.3</ele>
        <time>2020-10-10T12:13:01Z</time>
      </trkpt>
      <trkpt lat="40.745821" lon="0.259859">
        <ele>931.8</ele>
        <time>2020-10-10T12:13:14Z</time>
      </trkpt>
      <trkpt lat="40.745893" lon="0.259948">
        <ele>931.4</ele>
        <time>2020-10-10T12:13:26Z</time>
      </trkpt>
      <trkpt lat="40.745985" lon="0.259988">
        <ele>931.2</ele>
        <time>2020-10-10T12:13:34Z</time>
      </trkpt>
      <trkpt lat="40.746070" lon="0.260038">
        <ele>930.2</ele>
        <time>2020-10-10T12:13:40Z</time>
      </trkpt>
      <trkpt lat="40.746136" lon="0.260135">
        <ele>929.4</ele>
        <time>2020-10-10T12:13:46Z</time>
      </trkpt>
      <trkpt lat="40.746159" lon="0.260258">
        <ele>929.3</ele>
        <time>2020-10-10T12:13:54Z</time>
      </trkpt>
      <trkpt lat="40.746204" lon="0.260362">
        <ele>928.3</ele>
        <time>2020-10-10T12:14:03Z</time>
      </trkpt>
      <trkpt lat="40.746288" lon="0.260438">
        <ele>928.3</ele>
        <time>2020-10-10T12:14:14Z</time>
      </trkpt>
      <trkpt lat="40.746371" lon="0.260485">
        <ele>927.6</ele>
        <time>2020-10-10T12:14:21Z</time>
      </trkpt>
      <trkpt lat="40.746451" lon="0.260541">
        <ele>925.7</ele>
        <time>2020-10-10T12:14:33Z</time>
      </trkpt>
      <trkpt lat="40.746534" lon="0.260623">
        <ele>925.1</ele>
        <time>2020-10-10T12:14:38Z</time>
      </trkpt>
      <trkpt lat="40.746624" lon="0.260690">
        <ele>923.7</ele>
        <time>2020-10-10T12:14:47Z</time>
      </trkpt>
      <trkpt lat="40.746716" lon="0.260703">
        <ele>922.3</ele>
        <time>2020-10-10T12:14:54Z</time>
      </trkpt>
      <trkpt lat="40.746809" lon="0.260741">
        <ele>920.6</ele>
        <time>2020-10-10T12:15:02Z</time>
      </trkpt>
      <trkpt lat="40.746883" lon="0.260822">
        <ele>920.1</ele>
        <time>2020-10-10T12:15:06Z</time>
      </trkpt>
      <trkpt lat="40.746937" lon="0.260937">
        <ele>918.8</ele>
        <time>2020-10-10T12:15:15Z</time>
      </trkpt>
      <trkpt lat="40.746985" lon="0.261051">
        <ele>917.8</ele>
        <time>2020-10-10T12:15:23Z</time>
      </trkpt>
      <trkpt lat="40.747051" lon="0.261151">
        <ele>917.8</ele>
        <time>2020-10-10T12:15:29Z</time>
      </trkpt>
      <trkpt lat="40.747140" lon="0.261218">
        <ele>917.4</ele>
        <time>2020-10-10T12:15:39Z</time>
      </trkpt>
      <trkpt lat="40.747232" lon="0.261206">
        <ele>917.8</ele>
        <time>2020-10-10T12:15:48Z</time>
      </trkpt>
      <trkpt lat="40.747321" lon="0.261255">
        <ele>918.1</ele>
        <time>2020-10-10T12:15:55Z</time>
      </trkpt>
      <trkpt lat="40.747413" lon="0.261319">
        <ele>919.3</ele>
        <time>2020-10-10T12:16:05Z</time>
      </trkpt>
      <trkpt lat="40.747502" lon="0.261367">
        <ele>920.3</ele>
        <time>2020-10-10T12:16:16Z</time>
      </trkpt>
      <trkpt lat="40.747587" lon="0.261424">
        <ele>921.3</ele>
        <time>2020-10-10T12:16:26Z</time>
      </trkpt>
      <trkpt lat="40.747618" lon="0.261544">
        <ele>922.1</ele>
        <time>2020-10-10T12:16:36Z</time>
      </trkpt>
      <trkpt lat="40.747681" lon="0.261650">
        <ele>922.5</ele>
        <time>2020-10-10T12:16:46Z</time>
      </trkpt>
      <trkpt lat="40.747755" lon="0.261731">
        <ele>922.5</ele>
        <time>2020-10-10T12:16:51Z</time>
      </trkpt>
      <trkpt lat="40.747814" lon="0.261826">
        <ele>923.0</ele>
        <time>2020-10-10T12:17:03Z</time>
      </trkpt>
      <trkpt lat="40.747878" lon="0.261911">
        <ele>923.5</ele>
        <time>2020-10-10T12:17:12Z</time>
      </trkpt>
      <trkpt lat="40.747961" lon="0.261995">
        <ele>924.8</ele>
        <time>2020-10-10T12:17:22Z</time>
      </trkpt>
      <trkpt lat="40.748019" lon="0.262092">
        <ele>926.0</ele>
        <time>2020-10-10T12:17:30Z</time>
      </trkpt>
      <trkpt lat="40.748094" lon="0.262160">
        <ele>927.3</ele>
        <time>2020-10-10T12:17:40Z</time>
      </trkpt>
      <trkpt lat="40.748142" lon="0.262272">
        <ele>928.7</ele>
        <time>2020-10-10T12:17:52Z</time>
      </trkpt>
      <trkpt lat="40.748228" lon="0.262369">
        <ele>929.0</ele>
        <time>2020-10-10T12:18:01Z</time>
      </trkpt>
      <trkpt lat="40.748302" lon="0.262449">
        <ele>929.2</ele>
        <time>2020-10-10T12:18:07Z</time>
      </trkpt>
      <trkpt lat="40.748361" lon="0.262548">
        <ele>928.6</ele>
        <time>2020-10-10T12:18:17Z</time>
      </trkpt>
      <trkpt lat="40.748412" lon="0.262650">
        <ele>927.9</ele>
        <time>2020-10-10T12:18:26Z</time>
      </trkpt>
      <trkpt lat="40.748437" lon="0.262784">
        <ele>927.7</ele>
        <time>2020-10-10T12:18:35Z</time>
      </trkpt>
      <trkpt lat="40.748464" lon="0.262899">
        <ele>928.0</ele>
        <time>2020-10-10T12:18:47Z</time>
      </trkpt>
      <trkpt lat="40.748508" lon="0.263012">
        <ele>927.8</ele>
        <time>2020-10-10T12:19:17Z</time>
      </trkpt>
      <trkpt lat="40.748549" lon="0.263132">
        <ele>928.5</ele>
        <time>2020-10-10T12:19:27Z</time>
      </trkpt>
      <trkpt lat="40.748621" lon="0.263233">
        <ele>928.1</ele>
        <time>2020-10-10T12:19:36Z</time>
      </trkpt>
      <trkpt lat="40.748659" lon="0.263344">
        <ele>928.5</ele>
        <time>2020-10-10T12:19:45Z</time>
      </trkpt>
      <trkpt lat="40.748701" lon="0.263466">
        <ele>929.4</ele>
        <time>2020-10-10T12:19:54Z</time>
      </trkpt>
      <trkpt lat="40.748732" lon="0.263587">
        <ele>930.4</ele>
        <time>2020-10-10T12:20:05Z</time>
      </trkpt>
      <trkpt lat="40.748767" lon="0.263703">
        <ele>931.0</ele>
        <time>2020-10-10T12:20:13Z</time>
      </trkpt>
      <trkpt lat="40.748784" lon="0.263826">
        <ele>931.1</ele>
        <time>2020-10-10T12:20:24Z</time>
      </trkpt>
      <trkpt lat="40.748805" lon="0.263942">
        <ele>931.2</ele>
        <time>2020-10-10T12:20:32Z</time>
      </trkpt>
      <trkpt lat="40.748758" lon="0.264062">
        <ele>931.3</ele>
        <time>2020-10-10T12:20:38Z</time>
      </trkpt>
      <trkpt lat="40.748805" lon="0.264166">
        <ele>932.2</ele>
        <time>2020-10-10T12:20:47Z</time>
      </trkpt>
      <trkpt lat="40.748875" lon="0.264247">
        <ele>932.6</ele>
        <time>2020-10-10T12:20:56Z</time>
      </trkpt>
      <trkpt lat="40.748963" lon="0.264143">
        <ele>933.9</ele>
        <time>2020-10-10T12:21:15Z</time>
      </trkpt>
      <trkpt lat="40.749042" lon="0.264084">
        <ele>934.0</ele>
        <time>2020-10-10T12:21:17Z</time>
      </trkpt>
      <trkpt lat="40.749119" lon="0.264008">
        <ele>935.0</ele>
        <time>2020-10-10T12:21:24Z</time>
      </trkpt>
      <trkpt lat="40.749172" lon="0.263896">
        <ele>936.3</ele>
        <time>2020-10-10T12:21:37Z</time>
      </trkpt>
      <trkpt lat="40.749234" lon="0.263811">
        <ele>937.1</ele>
        <time>2020-10-10T12:21:44Z</time>
      </trkpt>
      <trkpt lat="40.749251" lon="0.263673">
        <ele>938.0</ele>
        <time>2020-10-10T12:21:54Z</time>
      </trkpt>
      <trkpt lat="40.749278" lon="0.263558">
        <ele>939.1</ele>
        <time>2020-10-10T12:22:01Z</time>
      </trkpt>
      <trkpt lat="40.749261" lon="0.263430">
        <ele>940.7</ele>
        <time>2020-10-10T12:22:11Z</time>
      </trkpt>
      <trkpt lat="40.749227" lon="0.263318">
        <ele>942.0</ele>
        <time>2020-10-10T12:22:20Z</time>
      </trkpt>
      <trkpt lat="40.749211" lon="0.263198">
        <ele>942.8</ele>
        <time>2020-10-10T12:22:29Z</time>
      </trkpt>
      <trkpt lat="40.749243" lon="0.263078">
        <ele>943.6</ele>
        <time>2020-10-10T12:22:38Z</time>
      </trkpt>
      <trkpt lat="40.749218" lon="0.262958">
        <ele>944.3</ele>
        <time>2020-10-10T12:22:48Z</time>
      </trkpt>
      <trkpt lat="40.749186" lon="0.262840">
        <ele>945.4</ele>
        <time>2020-10-10T12:22:58Z</time>
      </trkpt>
      <trkpt lat="40.749178" lon="0.262714">
        <ele>946.3</ele>
        <time>2020-10-10T12:23:07Z</time>
      </trkpt>
      <trkpt lat="40.749193" lon="0.262588">
        <ele>946.7</ele>
        <time>2020-10-10T12:23:14Z</time>
      </trkpt>
      <trkpt lat="40.749252" lon="0.262493">
        <ele>947.5</ele>
        <time>2020-10-10T12:23:22Z</time>
      </trkpt>
      <trkpt lat="40.749312" lon="0.262396">
        <ele>948.4</ele>
        <time>2020-10-10T12:23:33Z</time>
      </trkpt>
      <trkpt lat="40.749398" lon="0.262356">
        <ele>949.4</ele>
        <time>2020-10-10T12:23:44Z</time>
      </trkpt>
      <trkpt lat="40.749449" lon="0.262254">
        <ele>950.9</ele>
        <time>2020-10-10T12:23:59Z</time>
      </trkpt>
      <trkpt lat="40.749472" lon="0.262134">
        <ele>952.2</ele>
        <time>2020-10-10T12:24:10Z</time>
      </trkpt>
      <trkpt lat="40.749474" lon="0.262013">
        <ele>953.2</ele>
        <time>2020-10-10T12:24:19Z</time>
      </trkpt>
      <trkpt lat="40.749452" lon="0.261891">
        <ele>954.2</ele>
        <time>2020-10-10T12:24:28Z</time>
      </trkpt>
      <trkpt lat="40.749358" lon="0.261828">
        <ele>954.4</ele>
        <time>2020-10-10T12:24:39Z</time>
      </trkpt>
      <trkpt lat="40.749270" lon="0.261783">
        <ele>955.0</ele>
        <time>2020-10-10T12:24:48Z</time>
      </trkpt>
      <trkpt lat="40.749213" lon="0.261688">
        <ele>956.5</ele>
        <time>2020-10-10T12:25:00Z</time>
      </trkpt>
      <trkpt lat="40.749204" lon="0.261568">
        <ele>957.5</ele>
        <time>2020-10-10T12:25:11Z</time>
      </trkpt>
      <trkpt lat="40.749171" lon="0.261455">
        <ele>958.0</ele>
        <time>2020-10-10T12:25:32Z</time>
      </trkpt>
      <trkpt lat="40.749105" lon="0.261370">
        <ele>957.4</ele>
        <time>2020-10-10T12:25:49Z</time>
      </trkpt>
      <trkpt lat="40.749016" lon="0.261346">
        <ele>957.4</ele>
        <time>2020-10-10T12:26:11Z</time>
      </trkpt>
      <trkpt lat="40.748952" lon="0.261249">
        <ele>958.9</ele>
        <time>2020-10-10T12:26:30Z</time>
      </trkpt>
      <trkpt lat="40.748851" lon="0.261262">
        <ele>960.0</ele>
        <time>2020-10-10T12:26:38Z</time>
      </trkpt>
      <trkpt lat="40.748764" lon="0.261234">
        <ele>960.9</ele>
        <time>2020-10-10T12:26:52Z</time>
      </trkpt>
      <trkpt lat="40.748809" lon="0.261128">
        <ele>961.7</ele>
        <time>2020-10-10T12:27:03Z</time>
      </trkpt>
      <trkpt lat="40.748886" lon="0.261048">
        <ele>959.2</ele>
        <time>2020-10-10T12:28:49Z</time>
      </trkpt>
      <trkpt lat="40.748978" lon="0.261006">
        <ele>959.0</ele>
        <time>2020-10-10T12:28:55Z</time>
      </trkpt>
      <trkpt lat="40.748914" lon="0.261097">
        <ele>959.1</ele>
        <time>2020-10-10T12:29:18Z</time>
      </trkpt>
      <trkpt lat="40.748825" lon="0.261107">
        <ele>958.9</ele>
        <time>2020-10-10T12:29:40Z</time>
      </trkpt>
      <trkpt lat="40.748916" lon="0.261168">
        <ele>958.3</ele>
        <time>2020-10-10T12:30:18Z</time>
      </trkpt>
      <trkpt lat="40.749008" lon="0.261205">
        <ele>958.5</ele>
        <time>2020-10-10T12:30:26Z</time>
      </trkpt>
      <trkpt lat="40.749081" lon="0.261276">
        <ele>958.4</ele>
        <time>2020-10-10T12:30:35Z</time>
      </trkpt>
      <trkpt lat="40.749150" lon="0.261360">
        <ele>958.1</ele>
        <time>2020-10-10T12:30:42Z</time>
      </trkpt>
      <trkpt lat="40.749244" lon="0.261395">
        <ele>958.4</ele>
        <time>2020-10-10T12:30:52Z</time>
      </trkpt>
      <trkpt lat="40.749313" lon="0.261482">
        <ele>959.2</ele>
        <time>2020-10-10T12:31:02Z</time>
      </trkpt>
      <trkpt lat="40.749399" lon="0.261538">
        <ele>960.1</ele>
        <time>2020-10-10T12:31:08Z</time>
      </trkpt>
      <trkpt lat="40.749541" lon="0.261541">
        <ele>960.4</ele>
        <time>2020-10-10T12:31:20Z</time>
      </trkpt>
      <trkpt lat="40.749638" lon="0.261574">
        <ele>961.2</ele>
        <time>2020-10-10T12:31:30Z</time>
      </trkpt>
      <trkpt lat="40.749724" lon="0.261625">
        <ele>961.5</ele>
        <time>2020-10-10T12:31:41Z</time>
      </trkpt>
      <trkpt lat="40.749757" lon="0.261742">
        <ele>962.5</ele>
        <time>2020-10-10T12:32:11Z</time>
      </trkpt>
      <trkpt lat="40.749803" lon="0.261847">
        <ele>963.3</ele>
        <time>2020-10-10T12:32:21Z</time>
      </trkpt>
      <trkpt lat="40.749867" lon="0.261944">
        <ele>963.3</ele>
        <time>2020-10-10T12:32:31Z</time>
      </trkpt>
      <trkpt lat="40.749846" lon="0.262076">
        <ele>963.7</ele>
        <time>2020-10-10T12:32:43Z</time>
      </trkpt>
      <trkpt lat="40.749784" lon="0.262188">
        <ele>964.2</ele>
        <time>2020-10-10T12:32:50Z</time>
      </trkpt>
      <trkpt lat="40.749730" lon="0.262291">
        <ele>964.3</ele>
        <time>2020-10-10T12:32:55Z</time>
      </trkpt>
      <trkpt lat="40.749673" lon="0.262410">
        <ele>964.1</ele>
        <time>2020-10-10T12:33:01Z</time>
      </trkpt>
      <trkpt lat="40.749650" lon="0.262549">
        <ele>964.0</ele>
        <time>2020-10-10T12:33:06Z</time>
      </trkpt>
      <trkpt lat="40.749616" lon="0.262674">
        <ele>963.5</ele>
        <time>2020-10-10T12:33:15Z</time>
      </trkpt>
      <trkpt lat="40.749623" lon="0.262813">
        <ele>962.5</ele>
        <time>2020-10-10T12:33:24Z</time>
      </trkpt>
      <trkpt lat="40.749599" lon="0.262928">
        <ele>961.9</ele>
        <time>2020-10-10T12:33:32Z</time>
      </trkpt>
      <trkpt lat="40.749567" lon="0.263055">
        <ele>960.4</ele>
        <time>2020-10-10T12:33:47Z</time>
      </trkpt>
      <trkpt lat="40.749517" lon="0.263169">
        <ele>959.4</ele>
        <time>2020-10-10T12:33:57Z</time>
      </trkpt>
      <trkpt lat="40.749515" lon="0.263296">
        <ele>958.6</ele>
        <time>2020-10-10T12:34:04Z</time>
      </trkpt>
      <trkpt lat="40.749562" lon="0.263403">
        <ele>958.0</ele>
        <time>2020-10-10T12:34:11Z</time>
      </trkpt>
      <trkpt lat="40.749604" lon="0.263516">
        <ele>957.1</ele>
        <time>2020-10-10T12:34:18Z</time>
      </trkpt>
      <trkpt lat="40.749609" lon="0.263641">
        <ele>956.3</ele>
        <time>2020-10-10T12:34:29Z</time>
      </trkpt>
      <trkpt lat="40.749661" lon="0.263748">
        <ele>955.7</ele>
        <time>2020-10-10T12:34:37Z</time>
      </trkpt>
      <trkpt lat="40.749730" lon="0.263839">
        <ele>955.4</ele>
        <time>2020-10-10T12:34:46Z</time>
      </trkpt>
      <trkpt lat="40.749772" lon="0.263945">
        <ele>955.0</ele>
        <time>2020-10-10T12:34:56Z</time>
      </trkpt>
      <trkpt lat="40.749829" lon="0.264044">
        <ele>954.3</ele>
        <time>2020-10-10T12:35:02Z</time>
      </trkpt>
      <trkpt lat="40.749917" lon="0.264082">
        <ele>954.0</ele>
        <time>2020-10-10T12:35:07Z</time>
      </trkpt>
      <trkpt lat="40.750004" lon="0.264123">
        <ele>953.4</ele>
        <time>2020-10-10T12:35:14Z</time>
      </trkpt>
      <trkpt lat="40.750069" lon="0.264212">
        <ele>952.8</ele>
        <time>2020-10-10T12:35:21Z</time>
      </trkpt>
      <trkpt lat="40.750146" lon="0.264288">
        <ele>952.1</ele>
        <time>2020-10-10T12:35:28Z</time>
      </trkpt>
      <trkpt lat="40.750211" lon="0.264386">
        <ele>951.5</ele>
        <time>2020-10-10T12:35:37Z</time>
      </trkpt>
      <trkpt lat="40.750214" lon="0.264504">
        <ele>950.1</ele>
        <time>2020-10-10T12:35:50Z</time>
      </trkpt>
      <trkpt lat="40.750280" lon="0.264601">
        <ele>949.3</ele>
        <time>2020-10-10T12:35:57Z</time>
      </trkpt>
      <trkpt lat="40.750356" lon="0.264674">
        <ele>948.7</ele>
        <time>2020-10-10T12:36:04Z</time>
      </trkpt>
      <trkpt lat="40.750438" lon="0.264756">
        <ele>948.4</ele>
        <time>2020-10-10T12:36:12Z</time>
      </trkpt>
      <trkpt lat="40.750526" lon="0.264812">
        <ele>946.9</ele>
        <time>2020-10-10T12:36:20Z</time>
      </trkpt>
      <trkpt lat="40.750582" lon="0.264906">
        <ele>946.4</ele>
        <time>2020-10-10T12:36:29Z</time>
      </trkpt>
      <trkpt lat="40.750595" lon="0.265035">
        <ele>946.6</ele>
        <time>2020-10-10T12:36:40Z</time>
      </trkpt>
      <trkpt lat="40.750626" lon="0.265155">
        <ele>945.8</ele>
        <time>2020-10-10T12:36:51Z</time>
      </trkpt>
      <trkpt lat="40.750683" lon="0.265265">
        <ele>945.0</ele>
        <time>2020-10-10T12:36:59Z</time>
      </trkpt>
      <trkpt lat="40.750733" lon="0.265374">
        <ele>944.0</ele>
        <time>2020-10-10T12:37:10Z</time>
      </trkpt>
      <trkpt lat="40.750715" lon="0.265497">
        <ele>943.9</ele>
        <time>2020-10-10T12:37:18Z</time>
      </trkpt>
      <trkpt lat="40.750714" lon="0.265625">
        <ele>943.8</ele>
        <time>2020-10-10T12:37:32Z</time>
      </trkpt>
      <trkpt lat="40.750658" lon="0.265720">
        <ele>943.7</ele>
        <time>2020-10-10T12:37:47Z</time>
      </trkpt>
      <trkpt lat="40.750587" lon="0.265632">
        <ele>944.9</ele>
        <time>2020-10-10T12:38:01Z</time>
      </trkpt>
      <trkpt lat="40.750538" lon="0.265531">
        <ele>947.0</ele>
        <time>2020-10-10T12:38:14Z</time>
      </trkpt>
      <trkpt lat="40.750479" lon="0.265407">
        <ele>949.6</ele>
        <time>2020-10-10T12:38:28Z</time>
      </trkpt>
      <trkpt lat="40.750381" lon="0.265367">
        <ele>952.1</ele>
        <time>2020-10-10T12:38:40Z</time>
      </trkpt>
      <trkpt lat="40.750292" lon="0.265345">
        <ele>953.6</ele>
        <time>2020-10-10T12:38:50Z</time>
      </trkpt>
      <trkpt lat="40.750199" lon="0.265333">
        <ele>956.6</ele>
        <time>2020-10-10T12:39:06Z</time>
      </trkpt>
      <trkpt lat="40.750102" lon="0.265320">
        <ele>958.1</ele>
        <time>2020-10-10T12:39:16Z</time>
      </trkpt>
      <trkpt lat="40.750006" lon="0.265307">
        <ele>959.6</ele>
        <time>2020-10-10T12:39:26Z</time>
      </trkpt>
      <trkpt lat="40.749913" lon="0.265268">
        <ele>960.3</ele>
        <time>2020-10-10T12:39:32Z</time>
      </trkpt>
      <trkpt lat="40.749822" lon="0.265247">
        <ele>961.0</ele>
        <time>2020-10-10T12:39:40Z</time>
      </trkpt>
      <trkpt lat="40.749742" lon="0.265175">
        <ele>963.0</ele>
        <time>2020-10-10T12:39:54Z</time>
      </trkpt>
      <trkpt lat="40.749655" lon="0.265135">
        <ele>963.5</ele>
        <time>2020-10-10T12:40:01Z</time>
      </trkpt>
      <trkpt lat="40.749552" lon="0.265150">
        <ele>964.7</ele>
        <time>2020-10-10T12:40:10Z</time>
      </trkpt>
      <trkpt lat="40.749480" lon="0.265225">
        <ele>965.3</ele>
        <time>2020-10-10T12:40:19Z</time>
      </trkpt>
      <trkpt lat="40.749419" lon="0.265325">
        <ele>966.0</ele>
        <time>2020-10-10T12:40:29Z</time>
      </trkpt>
      <trkpt lat="40.749361" lon="0.265422">
        <ele>967.5</ele>
        <time>2020-10-10T12:40:44Z</time>
      </trkpt>
      <trkpt lat="40.749274" lon="0.265464">
        <ele>969.5</ele>
        <time>2020-10-10T12:41:02Z</time>
      </trkpt>
      <trkpt lat="40.749186" lon="0.265531">
        <ele>970.3</ele>
        <time>2020-10-10T12:41:08Z</time>
      </trkpt>
      <trkpt lat="40.749145" lon="0.265650">
        <ele>971.8</ele>
        <time>2020-10-10T12:41:24Z</time>
      </trkpt>
      <trkpt lat="40.749074" lon="0.265723">
        <ele>971.9</ele>
        <time>2020-10-10T12:41:32Z</time>
      </trkpt>
      <trkpt lat="40.748985" lon="0.265695">
        <ele>972.1</ele>
        <time>2020-10-10T12:41:45Z</time>
      </trkpt>
      <trkpt lat="40.748903" lon="0.265643">
        <ele>971.5</ele>
        <time>2020-10-10T12:42:08Z</time>
      </trkpt>
      <trkpt lat="40.748865" lon="0.265529">
        <ele>973.4</ele>
        <time>2020-10-10T12:42:27Z</time>
      </trkpt>
      <trkpt lat="40.748853" lon="0.265408">
        <ele>973.9</ele>
        <time>2020-10-10T12:42:34Z</time>
      </trkpt>
      <trkpt lat="40.748791" lon="0.265317">
        <ele>974.2</ele>
        <time>2020-10-10T12:42:45Z</time>
      </trkpt>
      <trkpt lat="40.748694" lon="0.265339">
        <ele>974.5</ele>
        <time>2020-10-10T12:43:15Z</time>
      </trkpt>
      <trkpt lat="40.748626" lon="0.265426">
        <ele>974.4</ele>
        <time>2020-10-10T12:43:24Z</time>
      </trkpt>
      <trkpt lat="40.748529" lon="0.265377">
        <ele>974.2</ele>
        <time>2020-10-10T12:43:58Z</time>
      </trkpt>
      <trkpt lat="40.748479" lon="0.265260">
        <ele>975.3</ele>
        <time>2020-10-10T12:44:14Z</time>
      </trkpt>
      <trkpt lat="40.748451" lon="0.265146">
        <ele>977.5</ele>
        <time>2020-10-10T12:44:31Z</time>
      </trkpt>
      <trkpt lat="40.748396" lon="0.265039">
        <ele>979.1</ele>
        <time>2020-10-10T12:44:41Z</time>
      </trkpt>
      <trkpt lat="40.748321" lon="0.264935">
        <ele>980.1</ele>
        <time>2020-10-10T12:44:50Z</time>
      </trkpt>
      <trkpt lat="40.748251" lon="0.264849">
        <ele>980.8</ele>
        <time>2020-10-10T12:44:58Z</time>
      </trkpt>
      <trkpt lat="40.748236" lon="0.264724">
        <ele>981.8</ele>
        <time>2020-10-10T12:45:11Z</time>
      </trkpt>
      <trkpt lat="40.748153" lon="0.264677">
        <ele>985.0</ele>
        <time>2020-10-10T12:46:00Z</time>
      </trkpt>
      <trkpt lat="40.748067" lon="0.264635">
        <ele>992.3</ele>
        <time>2020-10-10T12:47:12Z</time>
      </trkpt>
      <trkpt lat="40.747976" lon="0.264628">
        <ele>999.2</ele>
        <time>2020-10-10T12:48:06Z</time>
      </trkpt>
      <trkpt lat="40.747864" lon="0.264630">
        <ele>1004.1</ele>
        <time>2020-10-10T12:48:27Z</time>
      </trkpt>
      <trkpt lat="40.747786" lon="0.264697">
        <ele>1007.9</ele>
        <time>2020-10-10T12:48:59Z</time>
      </trkpt>
      <trkpt lat="40.747697" lon="0.264672">
        <ele>1018.7</ele>
        <time>2020-10-10T12:50:14Z</time>
      </trkpt>
      <trkpt lat="40.747606" lon="0.264673">
        <ele>1023.3</ele>
        <time>2020-10-10T12:50:43Z</time>
      </trkpt>
      <trkpt lat="40.747517" lon="0.264646">
        <ele>1023.9</ele>
        <time>2020-10-10T12:52:18Z</time>
      </trkpt>
      <trkpt lat="40.747581" lon="0.264731">
        <ele>1026.7</ele>
        <time>2020-10-10T12:53:48Z</time>
      </trkpt>
      <trkpt lat="40.747667" lon="0.264689">
        <ele>1027.0</ele>
        <time>2020-10-10T12:54:12Z</time>
      </trkpt>
      <trkpt lat="40.747733" lon="0.264776">
        <ele>1016.6</ele>
        <time>2020-10-10T12:56:37Z</time>
      </trkpt>
      <trkpt lat="40.747848" lon="0.264773">
        <ele>1013.1</ele>
        <time>2020-10-10T12:57:07Z</time>
      </trkpt>
      <trkpt lat="40.747934" lon="0.264814">
        <ele>1008.9</ele>
        <time>2020-10-10T12:57:24Z</time>
      </trkpt>
      <trkpt lat="40.748028" lon="0.264783">
        <ele>1004.5</ele>
        <time>2020-10-10T12:57:50Z</time>
      </trkpt>
      <trkpt lat="40.748117" lon="0.264803">
        <ele>1002.8</ele>
        <time>2020-10-10T12:58:05Z</time>
      </trkpt>
      <trkpt lat="40.748184" lon="0.264719">
        <ele>999.9</ele>
        <time>2020-10-10T12:58:21Z</time>
      </trkpt>
      <trkpt lat="40.748278" lon="0.264745">
        <ele>997.0</ele>
        <time>2020-10-10T12:58:41Z</time>
      </trkpt>
      <trkpt lat="40.748352" lon="0.264836">
        <ele>995.6</ele>
        <time>2020-10-10T12:58:50Z</time>
      </trkpt>
      <trkpt lat="40.748358" lon="0.264960">
        <ele>994.0</ele>
        <time>2020-10-10T12:58:59Z</time>
      </trkpt>
      <trkpt lat="40.748375" lon="0.265078">
        <ele>992.4</ele>
        <time>2020-10-10T12:59:11Z</time>
      </trkpt>
      <trkpt lat="40.748413" lon="0.265208">
        <ele>992.5</ele>
        <time>2020-10-10T12:59:17Z</time>
      </trkpt>
      <trkpt lat="40.748463" lon="0.265323">
        <ele>992.1</ele>
        <time>2020-10-10T12:59:24Z</time>
      </trkpt>
      <trkpt lat="40.748482" lon="0.265458">
        <ele>992.3</ele>
        <time>2020-10-10T12:59:33Z</time>
      </trkpt>
      <trkpt lat="40.748573" lon="0.265457">
        <ele>992.6</ele>
        <time>2020-10-10T12:59:42Z</time>
      </trkpt>
      <trkpt lat="40.748662" lon="0.265485">
        <ele>993.1</ele>
        <time>2020-10-10T12:59:48Z</time>
      </trkpt>
      <trkpt lat="40.748742" lon="0.265555">
        <ele>993.2</ele>
        <time>2020-10-10T12:59:56Z</time>
      </trkpt>
      <trkpt lat="40.748793" lon="0.265675">
        <ele>992.5</ele>
        <time>2020-10-10T13:00:05Z</time>
      </trkpt>
      <trkpt lat="40.748857" lon="0.265768">
        <ele>992.7</ele>
        <time>2020-10-10T13:00:17Z</time>
      </trkpt>
      <trkpt lat="40.748944" lon="0.265810">
        <ele>993.4</ele>
        <time>2020-10-10T13:00:25Z</time>
      </trkpt>
      <trkpt lat="40.748998" lon="0.265917">
        <ele>993.9</ele>
        <time>2020-10-10T13:00:32Z</time>
      </trkpt>
      <trkpt lat="40.749087" lon="0.265961">
        <ele>996.3</ele>
        <time>2020-10-10T13:00:46Z</time>
      </trkpt>
      <trkpt lat="40.749177" lon="0.265932">
        <ele>997.1</ele>
        <time>2020-10-10T13:00:53Z</time>
      </trkpt>
      <trkpt lat="40.749271" lon="0.265917">
        <ele>998.5</ele>
        <time>2020-10-10T13:01:00Z</time>
      </trkpt>
      <trkpt lat="40.749386" lon="0.265892">
        <ele>999.6</ele>
        <time>2020-10-10T13:01:09Z</time>
      </trkpt>
      <trkpt lat="40.749471" lon="0.265831">
        <ele>1000.2</ele>
        <time>2020-10-10T13:01:15Z</time>
      </trkpt>
      <trkpt lat="40.749547" lon="0.265757">
        <ele>1001.1</ele>
        <time>2020-10-10T13:01:22Z</time>
      </trkpt>
      <trkpt lat="40.749635" lon="0.265731">
        <ele>1002.3</ele>
        <time>2020-10-10T13:01:33Z</time>
      </trkpt>
      <trkpt lat="40.749726" lon="0.265722">
        <ele>1004.7</ele>
        <time>2020-10-10T13:01:46Z</time>
      </trkpt>
      <trkpt lat="40.749781" lon="0.265826">
        <ele>1006.4</ele>
        <time>2020-10-10T13:01:55Z</time>
      </trkpt>
      <trkpt lat="40.749841" lon="0.265931">
        <ele>1007.4</ele>
        <time>2020-10-10T13:02:05Z</time>
      </trkpt>
      <trkpt lat="40.749921" lon="0.265986">
        <ele>1008.7</ele>
        <time>2020-10-10T13:02:13Z</time>
      </trkpt>
      <trkpt lat="40.750006" lon="0.266028">
        <ele>1009.4</ele>
        <time>2020-10-10T13:02:18Z</time>
      </trkpt>
      <trkpt lat="40.750048" lon="0.266150">
        <ele>1010.2</ele>
        <time>2020-10-10T13:02:28Z</time>
      </trkpt>
      <trkpt lat="40.750068" lon="0.266280">
        <ele>1011.0</ele>
        <time>2020-10-10T13:02:37Z</time>
      </trkpt>
      <trkpt lat="40.750119" lon="0.266385">
        <ele>1011.6</ele>
        <time>2020-10-10T13:02:48Z</time>
      </trkpt>
      <trkpt lat="40.750130" lon="0.266503">
        <ele>1011.7</ele>
        <time>2020-10-10T13:02:56Z</time>
      </trkpt>
      <trkpt lat="40.750176" lon="0.266612">
        <ele>1012.1</ele>
        <time>2020-10-10T13:03:02Z</time>
      </trkpt>
      <trkpt lat="40.750180" lon="0.266747">
        <ele>1012.9</ele>
        <time>2020-10-10T13:03:12Z</time>
      </trkpt>
      <trkpt lat="40.750196" lon="0.266866">
        <ele>1013.1</ele>
        <time>2020-10-10T13:03:18Z</time>
      </trkpt>
      <trkpt lat="40.750255" lon="0.266962">
        <ele>1013.7</ele>
        <time>2020-10-10T13:03:24Z</time>
      </trkpt>
      <trkpt lat="40.750327" lon="0.267042">
        <ele>1014.6</ele>
        <time>2020-10-10T13:03:32Z</time>
      </trkpt>
      <trkpt lat="40.750399" lon="0.267136">
        <ele>1015.3</ele>
        <time>2020-10-10T13:03:41Z</time>
      </trkpt>
      <trkpt lat="40.750384" lon="0.267254">
        <ele>1016.2</ele>
        <time>2020-10-10T13:03:51Z</time>
      </trkpt>
      <trkpt lat="40.750402" lon="0.267383">
        <ele>1017.6</ele>
        <time>2020-10-10T13:04:03Z</time>
      </trkpt>
      <trkpt lat="40.750439" lon="0.267509">
        <ele>1018.2</ele>
        <time>2020-10-10T13:04:10Z</time>
      </trkpt>
      <trkpt lat="40.750530" lon="0.267551">
        <ele>1019.1</ele>
        <time>2020-10-10T13:04:16Z</time>
      </trkpt>
      <trkpt lat="40.750593" lon="0.267646">
        <ele>1020.4</ele>
        <time>2020-10-10T13:04:24Z</time>
      </trkpt>
      <trkpt lat="40.750630" lon="0.267758">
        <ele>1021.9</ele>
        <time>2020-10-10T13:04:36Z</time>
      </trkpt>
      <trkpt lat="40.750683" lon="0.267866">
        <ele>1023.5</ele>
        <time>2020-10-10T13:04:50Z</time>
      </trkpt>
      <trkpt lat="40.750689" lon="0.268006">
        <ele>1024.0</ele>
        <time>2020-10-10T13:04:55Z</time>
      </trkpt>
      <trkpt lat="40.750706" lon="0.268131">
        <ele>1025.7</ele>
        <time>2020-10-10T13:05:04Z</time>
      </trkpt>
      <trkpt lat="40.750746" lon="0.268246">
        <ele>1027.6</ele>
        <time>2020-10-10T13:05:18Z</time>
      </trkpt>
      <trkpt lat="40.750807" lon="0.268342">
        <ele>1028.9</ele>
        <time>2020-10-10T13:05:31Z</time>
      </trkpt>
      <trkpt lat="40.750771" lon="0.268459">
        <ele>1030.9</ele>
        <time>2020-10-10T13:05:41Z</time>
      </trkpt>
      <trkpt lat="40.750800" lon="0.268583">
        <ele>1032.3</ele>
        <time>2020-10-10T13:06:00Z</time>
      </trkpt>
      <trkpt lat="40.750853" lon="0.268689">
        <ele>1033.8</ele>
        <time>2020-10-10T13:06:16Z</time>
      </trkpt>
      <trkpt lat="40.750938" lon="0.268763">
        <ele>1035.4</ele>
        <time>2020-10-10T13:06:29Z</time>
      </trkpt>
      <trkpt lat="40.751019" lon="0.268840">
        <ele>1037.8</ele>
        <time>2020-10-10T13:06:40Z</time>
      </trkpt>
      <trkpt lat="40.751108" lon="0.268931">
        <ele>1039.5</ele>
        <time>2020-10-10T13:06:53Z</time>
      </trkpt>
      <trkpt lat="40.751131" lon="0.269047">
        <ele>1040.7</ele>
        <time>2020-10-10T13:07:01Z</time>
      </trkpt>
      <trkpt lat="40.751225" lon="0.269022">
        <ele>1043.0</ele>
        <time>2020-10-10T13:07:15Z</time>
      </trkpt>
      <trkpt lat="40.751269" lon="0.269133">
        <ele>1044.5</ele>
        <time>2020-10-10T13:07:25Z</time>
      </trkpt>
      <trkpt lat="40.751300" lon="0.269246">
        <ele>1045.4</ele>
        <time>2020-10-10T13:07:32Z</time>
      </trkpt>
      <trkpt lat="40.751334" lon="0.269362">
        <ele>1046.8</ele>
        <time>2020-10-10T13:07:42Z</time>
      </trkpt>
      <trkpt lat="40.751364" lon="0.269485">
        <ele>1048.6</ele>
        <time>2020-10-10T13:07:54Z</time>
      </trkpt>
      <trkpt lat="40.751366" lon="0.269609">
        <ele>1050.3</ele>
        <time>2020-10-10T13:08:06Z</time>
      </trkpt>
      <trkpt lat="40.751367" lon="0.269735">
        <ele>1051.2</ele>
        <time>2020-10-10T13:08:15Z</time>
      </trkpt>
      <trkpt lat="40.751391" lon="0.269858">
        <ele>1053.6</ele>
        <time>2020-10-10T13:08:30Z</time>
      </trkpt>
      <trkpt lat="40.751440" lon="0.269960">
        <ele>1054.6</ele>
        <time>2020-10-10T13:08:41Z</time>
      </trkpt>
      <trkpt lat="40.751509" lon="0.270055">
        <ele>1056.2</ele>
        <time>2020-10-10T13:08:51Z</time>
      </trkpt>
      <trkpt lat="40.751608" lon="0.270072">
        <ele>1057.2</ele>
        <time>2020-10-10T13:09:07Z</time>
      </trkpt>
      <trkpt lat="40.751690" lon="0.270142">
        <ele>1058.6</ele>
        <time>2020-10-10T13:09:17Z</time>
      </trkpt>
      <trkpt lat="40.751762" lon="0.270223">
        <ele>1060.2</ele>
        <time>2020-10-10T13:09:31Z</time>
      </trkpt>
      <trkpt lat="40.751743" lon="0.270355">
        <ele>1061.6</ele>
        <time>2020-10-10T13:09:48Z</time>
      </trkpt>
      <trkpt lat="40.751725" lon="0.270478">
        <ele>1062.9</ele>
        <time>2020-10-10T13:09:59Z</time>
      </trkpt>
      <trkpt lat="40.751740" lon="0.270604">
        <ele>1063.8</ele>
        <time>2020-10-10T13:10:07Z</time>
      </trkpt>
      <trkpt lat="40.751739" lon="0.270739">
        <ele>1064.5</ele>
        <time>2020-10-10T13:10:14Z</time>
      </trkpt>
      <trkpt lat="40.751753" lon="0.270860">
        <ele>1064.0</ele>
        <time>2020-10-10T13:10:28Z</time>
      </trkpt>
      <trkpt lat="40.751724" lon="0.270976">
        <ele>1063.2</ele>
        <time>2020-10-10T13:10:40Z</time>
      </trkpt>
      <trkpt lat="40.751703" lon="0.271092">
        <ele>1061.7</ele>
        <time>2020-10-10T13:10:54Z</time>
      </trkpt>
      <trkpt lat="40.751726" lon="0.271224">
        <ele>1060.6</ele>
        <time>2020-10-10T13:11:04Z</time>
      </trkpt>
      <trkpt lat="40.751724" lon="0.271369">
        <ele>1059.2</ele>
        <time>2020-10-10T13:11:14Z</time>
      </trkpt>
      <trkpt lat="40.751709" lon="0.271495">
        <ele>1057.9</ele>
        <time>2020-10-10T13:11:23Z</time>
      </trkpt>
      <trkpt lat="40.751710" lon="0.271618">
        <ele>1057.0</ele>
        <time>2020-10-10T13:11:38Z</time>
      </trkpt>
      <trkpt lat="40.751748" lon="0.271728">
        <ele>1056.0</ele>
        <time>2020-10-10T13:11:46Z</time>
      </trkpt>
      <trkpt lat="40.751682" lon="0.271818">
        <ele>1055.3</ele>
        <time>2020-10-10T13:11:56Z</time>
      </trkpt>
      <trkpt lat="40.751620" lon="0.271907">
        <ele>1054.1</ele>
        <time>2020-10-10T13:12:05Z</time>
      </trkpt>
      <trkpt lat="40.751668" lon="0.272032">
        <ele>1053.1</ele>
        <time>2020-10-10T13:12:17Z</time>
      </trkpt>
      <trkpt lat="40.751674" lon="0.272160">
        <ele>1052.7</ele>
        <time>2020-10-10T13:12:26Z</time>
      </trkpt>
      <trkpt lat="40.751712" lon="0.272274">
        <ele>1051.8</ele>
        <time>2020-10-10T13:12:44Z</time>
      </trkpt>
      <trkpt lat="40.751743" lon="0.272397">
        <ele>1051.8</ele>
        <time>2020-10-10T13:12:52Z</time>
      </trkpt>
      <trkpt lat="40.751781" lon="0.272522">
        <ele>1052.4</ele>
        <time>2020-10-10T13:13:00Z</time>
      </trkpt>
      <trkpt lat="40.751854" lon="0.272603">
        <ele>1053.1</ele>
        <time>2020-10-10T13:13:09Z</time>
      </trkpt>
      <trkpt lat="40.751943" lon="0.272629">
        <ele>1054.3</ele>
        <time>2020-10-10T13:13:21Z</time>
      </trkpt>
      <trkpt lat="40.751965" lon="0.272750">
        <ele>1056.5</ele>
        <time>2020-10-10T13:13:36Z</time>
      </trkpt>
      <trkpt lat="40.751991" lon="0.272872">
        <ele>1057.2</ele>
        <time>2020-10-10T13:13:42Z</time>
      </trkpt>
      <trkpt lat="40.752046" lon="0.272977">
        <ele>1058.5</ele>
        <time>2020-10-10T13:13:56Z</time>
      </trkpt>
      <trkpt lat="40.752007" lon="0.273106">
        <ele>1060.6</ele>
        <time>2020-10-10T13:14:07Z</time>
      </trkpt>
      <trkpt lat="40.752010" lon="0.273232">
        <ele>1062.0</ele>
        <time>2020-10-10T13:14:17Z</time>
      </trkpt>
      <trkpt lat="40.752043" lon="0.273355">
        <ele>1062.9</ele>
        <time>2020-10-10T13:14:28Z</time>
      </trkpt>
      <trkpt lat="40.752063" lon="0.273472">
        <ele>1063.5</ele>
        <time>2020-10-10T13:14:37Z</time>
      </trkpt>
      <trkpt lat="40.752149" lon="0.273535">
        <ele>1064.0</ele>
        <time>2020-10-10T13:14:49Z</time>
      </trkpt>
      <trkpt lat="40.752165" lon="0.273662">
        <ele>1064.5</ele>
        <time>2020-10-10T13:14:58Z</time>
      </trkpt>
      <trkpt lat="40.752175" lon="0.273792">
        <ele>1065.3</ele>
        <time>2020-10-10T13:15:05Z</time>
      </trkpt>
      <trkpt lat="40.752171" lon="0.273921">
        <ele>1065.9</ele>
        <time>2020-10-10T13:15:11Z</time>
      </trkpt>
      <trkpt lat="40.752192" lon="0.274045">
        <ele>1067.3</ele>
        <time>2020-10-10T13:15:21Z</time>
      </trkpt>
      <trkpt lat="40.752173" lon="0.274177">
        <ele>1069.1</ele>
        <time>2020-10-10T13:15:35Z</time>
      </trkpt>
      <trkpt lat="40.752185" lon="0.274300">
        <ele>1070.4</ele>
        <time>2020-10-10T13:15:49Z</time>
      </trkpt>
      <trkpt lat="40.752187" lon="0.274424">
        <ele>1071.4</ele>
        <time>2020-10-10T13:15:56Z</time>
      </trkpt>
      <trkpt lat="40.752181" lon="0.274545">
        <ele>1072.2</ele>
        <time>2020-10-10T13:16:05Z</time>
      </trkpt>
      <trkpt lat="40.752206" lon="0.274678">
        <ele>1072.8</ele>
        <time>2020-10-10T13:16:13Z</time>
      </trkpt>
      <trkpt lat="40.752184" lon="0.274805">
        <ele>1073.6</ele>
        <time>2020-10-10T13:16:22Z</time>
      </trkpt>
      <trkpt lat="40.752169" lon="0.274943">
        <ele>1074.1</ele>
        <time>2020-10-10T13:16:34Z</time>
      </trkpt>
      <trkpt lat="40.752195" lon="0.275073">
        <ele>1074.5</ele>
        <time>2020-10-10T13:16:46Z</time>
      </trkpt>
      <trkpt lat="40.752219" lon="0.275199">
        <ele>1075.5</ele>
        <time>2020-10-10T13:17:04Z</time>
      </trkpt>
      <trkpt lat="40.752243" lon="0.275314">
        <ele>1077.2</ele>
        <time>2020-10-10T13:17:20Z</time>
      </trkpt>
      <trkpt lat="40.752275" lon="0.275437">
        <ele>1078.9</ele>
        <time>2020-10-10T13:17:35Z</time>
      </trkpt>
      <trkpt lat="40.752345" lon="0.275514">
        <ele>1080.1</ele>
        <time>2020-10-10T13:17:51Z</time>
      </trkpt>
      <trkpt lat="40.752442" lon="0.275501">
        <ele>1080.1</ele>
        <time>2020-10-10T13:18:30Z</time>
      </trkpt>
      <trkpt lat="40.752473" lon="0.275620">
        <ele>1080.2</ele>
        <time>2020-10-10T13:18:48Z</time>
      </trkpt>
      <trkpt lat="40.752387" lon="0.275657">
        <ele>1081.2</ele>
        <time>2020-10-10T13:19:14Z</time>
      </trkpt>
      <trkpt lat="40.752295" lon="0.275663">
        <ele>1081.5</ele>
        <time>2020-10-10T13:19:37Z</time>
      </trkpt>
      <trkpt lat="40.752382" lon="0.275705">
        <ele>1081.0</ele>
        <time>2020-10-10T13:20:01Z</time>
      </trkpt>
      <trkpt lat="40.752475" lon="0.275723">
        <ele>1081.8</ele>
        <time>2020-10-10T13:20:10Z</time>
      </trkpt>
      <trkpt lat="40.752363" lon="0.275765">
        <ele>1081.7</ele>
        <time>2020-10-10T13:20:26Z</time>
      </trkpt>
      <trkpt lat="40.752273" lon="0.275794">
        <ele>1081.7</ele>
        <time>2020-10-10T13:20:29Z</time>
      </trkpt>
      <trkpt lat="40.752183" lon="0.275813">
        <ele>1081.7</ele>
        <time>2020-10-10T13:21:18Z</time>
      </trkpt>
      <trkpt lat="40.752087" lon="0.275813">
        <ele>1082.4</ele>
        <time>2020-10-10T13:22:01Z</time>
      </trkpt>
      <trkpt lat="40.751997" lon="0.275789">
        <ele>1082.5</ele>
        <time>2020-10-10T13:22:15Z</time>
      </trkpt>
      <trkpt lat="40.751908" lon="0.275762">
        <ele>1082.1</ele>
        <time>2020-10-10T13:22:40Z</time>
      </trkpt>
      <trkpt lat="40.751957" lon="0.275870">
        <ele>1082.1</ele>
        <time>2020-10-10T13:23:14Z</time>
      </trkpt>
      <trkpt lat="40.752046" lon="0.275902">
        <ele>1082.2</ele>
        <time>2020-10-10T13:23:36Z</time>
      </trkpt>
      <trkpt lat="40.752140" lon="0.275874">
        <ele>1081.8</ele>
        <time>2020-10-10T13:23:45Z</time>
      </trkpt>
      <trkpt lat="40.752108" lon="0.275758">
        <ele>1081.7</ele>
        <time>2020-10-10T13:24:25Z</time>
      </trkpt>
      <trkpt lat="40.752146" lon="0.275640">
        <ele>1081.0</ele>
        <time>2020-10-10T13:25:14Z</time>
      </trkpt>
      <trkpt lat="40.752188" lon="0.275523">
        <ele>1080.6</ele>
        <time>2020-10-10T13:25:43Z</time>
      </trkpt>
      <trkpt lat="40.752272" lon="0.275473">
        <ele>1079.8</ele>
        <time>2020-10-10T13:26:36Z</time>
      </trkpt>
      <trkpt lat="40.752357" lon="0.275519">
        <ele>1079.7</ele>
        <time>2020-10-10T13:26:48Z</time>
      </trkpt>
      <trkpt lat="40.752336" lon="0.275400">
        <ele>1080.0</ele>
        <time>2020-10-10T13:27:18Z</time>
      </trkpt>
      <trkpt lat="40.752327" lon="0.275524">
        <ele>1081.7</ele>
        <time>2020-10-10T13:28:38Z</time>
      </trkpt>
      <trkpt lat="40.752359" lon="0.275413">
        <ele>1081.0</ele>
        <time>2020-10-10T13:29:44Z</time>
      </trkpt>
      <trkpt lat="40.752400" lon="0.275520">
        <ele>1081.0</ele>
        <time>2020-10-10T13:30:26Z</time>
      </trkpt>
      <trkpt lat="40.752332" lon="0.275600">
        <ele>1080.6</ele>
        <time>2020-10-10T13:30:47Z</time>
      </trkpt>
      <trkpt lat="40.752418" lon="0.275644">
        <ele>1080.1</ele>
        <time>2020-10-10T13:31:24Z</time>
      </trkpt>
      <trkpt lat="40.752354" lon="0.275556">
        <ele>1080.6</ele>
        <time>2020-10-10T13:31:56Z</time>
      </trkpt>
      <trkpt lat="40.752266" lon="0.275534">
        <ele>1080.9</ele>
        <time>2020-10-10T13:32:16Z</time>
      </trkpt>
      <trkpt lat="40.752180" lon="0.275574">
        <ele>1081.8</ele>
        <time>2020-10-10T13:32:34Z</time>
      </trkpt>
      <trkpt lat="40.752244" lon="0.275488">
        <ele>1083.3</ele>
        <time>2020-10-10T13:33:32Z</time>
      </trkpt>
      <trkpt lat="40.752188" lon="0.275394">
        <ele>1082.6</ele>
        <time>2020-10-10T13:34:33Z</time>
      </trkpt>
      <trkpt lat="40.752098" lon="0.275405">
        <ele>1081.9</ele>
        <time>2020-10-10T13:35:13Z</time>
      </trkpt>
      <trkpt lat="40.752095" lon="0.275529">
        <ele>1081.0</ele>
        <time>2020-10-10T13:36:17Z</time>
      </trkpt>
      <trkpt lat="40.752159" lon="0.275644">
        <ele>1081.3</ele>
        <time>2020-10-10T13:36:35Z</time>
      </trkpt>
      <trkpt lat="40.752247" lon="0.275596">
        <ele>1079.7</ele>
        <time>2020-10-10T13:36:57Z</time>
      </trkpt>
      <trkpt lat="40.752196" lon="0.275494">
        <ele>1078.4</ele>
        <time>2020-10-10T13:37:11Z</time>
      </trkpt>
      <trkpt lat="40.752264" lon="0.275409">
        <ele>1077.8</ele>
        <time>2020-10-10T13:37:23Z</time>
      </trkpt>
      <trkpt lat="40.752332" lon="0.275307">
        <ele>1077.1</ele>
        <time>2020-10-10T13:37:34Z</time>
      </trkpt>
      <trkpt lat="40.752373" lon="0.275195">
        <ele>1076.3</ele>
        <time>2020-10-10T13:37:45Z</time>
      </trkpt>
      <trkpt lat="40.752420" lon="0.275094">
        <ele>1076.0</ele>
        <time>2020-10-10T13:37:52Z</time>
      </trkpt>
      <trkpt lat="40.752498" lon="0.275028">
        <ele>1076.1</ele>
        <time>2020-10-10T13:38:07Z</time>
      </trkpt>
      <trkpt lat="40.752498" lon="0.274900">
        <ele>1076.5</ele>
        <time>2020-10-10T13:38:23Z</time>
      </trkpt>
      <trkpt lat="40.752499" lon="0.274775">
        <ele>1076.6</ele>
        <time>2020-10-10T13:38:43Z</time>
      </trkpt>
      <trkpt lat="40.752529" lon="0.274652">
        <ele>1076.5</ele>
        <time>2020-10-10T13:38:51Z</time>
      </trkpt>
      <trkpt lat="40.752557" lon="0.274531">
        <ele>1075.4</ele>
        <time>2020-10-10T13:39:05Z</time>
      </trkpt>
      <trkpt lat="40.752522" lon="0.274413">
        <ele>1074.3</ele>
        <time>2020-10-10T13:39:18Z</time>
      </trkpt>
      <trkpt lat="40.752473" lon="0.274300">
        <ele>1073.0</ele>
        <time>2020-10-10T13:39:32Z</time>
      </trkpt>
      <trkpt lat="40.752463" lon="0.274179">
        <ele>1072.3</ele>
        <time>2020-10-10T13:39:40Z</time>
      </trkpt>
      <trkpt lat="40.752433" lon="0.274056">
        <ele>1071.3</ele>
        <time>2020-10-10T13:39:46Z</time>
      </trkpt>
      <trkpt lat="40.752429" lon="0.273932">
        <ele>1070.6</ele>
        <time>2020-10-10T13:39:52Z</time>
      </trkpt>
      <trkpt lat="40.752321" lon="0.273925">
        <ele>1070.4</ele>
        <time>2020-10-10T13:39:58Z</time>
      </trkpt>
      <trkpt lat="40.752226" lon="0.273933">
        <ele>1070.3</ele>
        <time>2020-10-10T13:40:04Z</time>
      </trkpt>
      <trkpt lat="40.752214" lon="0.273810">
        <ele>1069.2</ele>
        <time>2020-10-10T13:40:20Z</time>
      </trkpt>
      <trkpt lat="40.752239" lon="0.273685">
        <ele>1067.9</ele>
        <time>2020-10-10T13:40:39Z</time>
      </trkpt>
      <trkpt lat="40.752221" lon="0.273566">
        <ele>1066.9</ele>
        <time>2020-10-10T13:40:49Z</time>
      </trkpt>
      <trkpt lat="40.752259" lon="0.273451">
        <ele>1065.5</ele>
        <time>2020-10-10T13:41:03Z</time>
      </trkpt>
      <trkpt lat="40.752253" lon="0.273322">
        <ele>1064.6</ele>
        <time>2020-10-10T13:41:14Z</time>
      </trkpt>
      <trkpt lat="40.752249" lon="0.273195">
        <ele>1062.7</ele>
        <time>2020-10-10T13:41:32Z</time>
      </trkpt>
      <trkpt lat="40.752226" lon="0.273074">
        <ele>1061.9</ele>
        <time>2020-10-10T13:41:41Z</time>
      </trkpt>
      <trkpt lat="40.752191" lon="0.272954">
        <ele>1060.8</ele>
        <time>2020-10-10T13:41:49Z</time>
      </trkpt>
      <trkpt lat="40.752167" lon="0.272833">
        <ele>1059.0</ele>
        <time>2020-10-10T13:41:59Z</time>
      </trkpt>
      <trkpt lat="40.752176" lon="0.272712">
        <ele>1057.7</ele>
        <time>2020-10-10T13:42:13Z</time>
      </trkpt>
      <trkpt lat="40.752194" lon="0.272593">
        <ele>1056.9</ele>
        <time>2020-10-10T13:42:22Z</time>
      </trkpt>
      <trkpt lat="40.752205" lon="0.272475">
        <ele>1057.1</ele>
        <time>2020-10-10T13:42:31Z</time>
      </trkpt>
      <trkpt lat="40.752162" lon="0.272365">
        <ele>1057.3</ele>
        <time>2020-10-10T13:42:37Z</time>
      </trkpt>
      <trkpt lat="40.752104" lon="0.272264">
        <ele>1057.4</ele>
        <time>2020-10-10T13:42:41Z</time>
      </trkpt>
      <trkpt lat="40.752071" lon="0.272138">
        <ele>1057.4</ele>
        <time>2020-10-10T13:42:47Z</time>
      </trkpt>
      <trkpt lat="40.752052" lon="0.272014">
        <ele>1057.7</ele>
        <time>2020-10-10T13:42:57Z</time>
      </trkpt>
      <trkpt lat="40.752012" lon="0.271889">
        <ele>1059.4</ele>
        <time>2020-10-10T13:43:08Z</time>
      </trkpt>
      <trkpt lat="40.751995" lon="0.271747">
        <ele>1060.6</ele>
        <time>2020-10-10T13:43:17Z</time>
      </trkpt>
      <trkpt lat="40.751996" lon="0.271625">
        <ele>1061.7</ele>
        <time>2020-10-10T13:43:26Z</time>
      </trkpt>
      <trkpt lat="40.751959" lon="0.271510">
        <ele>1062.3</ele>
        <time>2020-10-10T13:43:34Z</time>
      </trkpt>
      <trkpt lat="40.751893" lon="0.271424">
        <ele>1063.3</ele>
        <time>2020-10-10T13:43:42Z</time>
      </trkpt>
      <trkpt lat="40.751882" lon="0.271298">
        <ele>1064.5</ele>
        <time>2020-10-10T13:43:50Z</time>
      </trkpt>
      <trkpt lat="40.751941" lon="0.271199">
        <ele>1065.1</ele>
        <time>2020-10-10T13:43:58Z</time>
      </trkpt>
      <trkpt lat="40.751956" lon="0.271074">
        <ele>1066.7</ele>
        <time>2020-10-10T13:44:10Z</time>
      </trkpt>
      <trkpt lat="40.751934" lon="0.270958">
        <ele>1067.8</ele>
        <time>2020-10-10T13:44:21Z</time>
      </trkpt>
      <trkpt lat="40.751871" lon="0.270869">
        <ele>1070.5</ele>
        <time>2020-10-10T13:45:03Z</time>
      </trkpt>
      <trkpt lat="40.751855" lon="0.270739">
        <ele>1069.9</ele>
        <time>2020-10-10T13:45:40Z</time>
      </trkpt>
      <trkpt lat="40.751814" lon="0.270624">
        <ele>1070.1</ele>
        <time>2020-10-10T13:45:52Z</time>
      </trkpt>
      <trkpt lat="40.751796" lon="0.270504">
        <ele>1068.0</ele>
        <time>2020-10-10T13:46:02Z</time>
      </trkpt>
      <trkpt lat="40.751814" lon="0.270379">
        <ele>1067.4</ele>
        <time>2020-10-10T13:46:13Z</time>
      </trkpt>
      <trkpt lat="40.751804" lon="0.270260">
        <ele>1066.5</ele>
        <time>2020-10-10T13:46:21Z</time>
      </trkpt>
      <trkpt lat="40.751765" lon="0.270141">
        <ele>1065.5</ele>
        <time>2020-10-10T13:46:26Z</time>
      </trkpt>
      <trkpt lat="40.751706" lon="0.270037">
        <ele>1064.7</ele>
        <time>2020-10-10T13:46:32Z</time>
      </trkpt>
      <trkpt lat="40.751608" lon="0.270000">
        <ele>1063.2</ele>
        <time>2020-10-10T13:46:41Z</time>
      </trkpt>
      <trkpt lat="40.751519" lon="0.269966">
        <ele>1061.8</ele>
        <time>2020-10-10T13:46:51Z</time>
      </trkpt>
      <trkpt lat="40.751461" lon="0.269856">
        <ele>1060.1</ele>
        <time>2020-10-10T13:47:10Z</time>
      </trkpt>
      <trkpt lat="40.751457" lon="0.269729">
        <ele>1058.3</ele>
        <time>2020-10-10T13:47:19Z</time>
      </trkpt>
      <trkpt lat="40.751441" lon="0.269600">
        <ele>1057.3</ele>
        <time>2020-10-10T13:47:28Z</time>
      </trkpt>
      <trkpt lat="40.751453" lon="0.269481">
        <ele>1055.7</ele>
        <time>2020-10-10T13:47:38Z</time>
      </trkpt>
      <trkpt lat="40.751440" lon="0.269360">
        <ele>1053.9</ele>
        <time>2020-10-10T13:47:47Z</time>
      </trkpt>
      <trkpt lat="40.751428" lon="0.269241">
        <ele>1052.6</ele>
        <time>2020-10-10T13:47:55Z</time>
      </trkpt>
      <trkpt lat="40.751415" lon="0.269121">
        <ele>1050.6</ele>
        <time>2020-10-10T13:48:09Z</time>
      </trkpt>
      <trkpt lat="40.751346" lon="0.269031">
        <ele>1049.0</ele>
        <time>2020-10-10T13:48:19Z</time>
      </trkpt>
      <trkpt lat="40.751267" lon="0.268956">
        <ele>1048.0</ele>
        <time>2020-10-10T13:48:27Z</time>
      </trkpt>
      <trkpt lat="40.751198" lon="0.268879">
        <ele>1046.8</ele>
        <time>2020-10-10T13:48:36Z</time>
      </trkpt>
      <trkpt lat="40.751160" lon="0.268769">
        <ele>1044.9</ele>
        <time>2020-10-10T13:48:48Z</time>
      </trkpt>
      <trkpt lat="40.751071" lon="0.268736">
        <ele>1044.1</ele>
        <time>2020-10-10T13:48:55Z</time>
      </trkpt>
      <trkpt lat="40.750980" lon="0.268766">
        <ele>1042.6</ele>
        <time>2020-10-10T13:49:04Z</time>
      </trkpt>
      <trkpt lat="40.750889" lon="0.268784">
        <ele>1041.6</ele>
        <time>2020-10-10T13:49:11Z</time>
      </trkpt>
      <trkpt lat="40.750798" lon="0.268752">
        <ele>1040.1</ele>
        <time>2020-10-10T13:49:24Z</time>
      </trkpt>
      <trkpt lat="40.750842" lon="0.268647">
        <ele>1039.1</ele>
        <time>2020-10-10T13:49:33Z</time>
      </trkpt>
      <trkpt lat="40.750919" lon="0.268568">
        <ele>1038.3</ele>
        <time>2020-10-10T13:49:41Z</time>
      </trkpt>
      <trkpt lat="40.750975" lon="0.268440">
        <ele>1037.1</ele>
        <time>2020-10-10T13:49:56Z</time>
      </trkpt>
      <trkpt lat="40.750919" lon="0.268324">
        <ele>1036.8</ele>
        <time>2020-10-10T13:50:04Z</time>
      </trkpt>
      <trkpt lat="40.750878" lon="0.268213">
        <ele>1036.0</ele>
        <time>2020-10-10T13:50:12Z</time>
      </trkpt>
      <trkpt lat="40.750890" lon="0.268077">
        <ele>1035.3</ele>
        <time>2020-10-10T13:50:18Z</time>
      </trkpt>
      <trkpt lat="40.750833" lon="0.267975">
        <ele>1034.2</ele>
        <time>2020-10-10T13:50:38Z</time>
      </trkpt>
      <trkpt lat="40.750739" lon="0.267897">
        <ele>1033.6</ele>
        <time>2020-10-10T13:50:47Z</time>
      </trkpt>
      <trkpt lat="40.750684" lon="0.267761">
        <ele>1031.0</ele>
        <time>2020-10-10T13:50:55Z</time>
      </trkpt>
      <trkpt lat="40.750755" lon="0.267652">
        <ele>1030.8</ele>
        <time>2020-10-10T13:51:04Z</time>
      </trkpt>
      <trkpt lat="40.750805" lon="0.267550">
        <ele>1029.7</ele>
        <time>2020-10-10T13:51:15Z</time>
      </trkpt>
      <trkpt lat="40.750768" lon="0.267437">
        <ele>1027.7</ele>
        <time>2020-10-10T13:51:29Z</time>
      </trkpt>
      <trkpt lat="40.750713" lon="0.267343">
        <ele>1026.8</ele>
        <time>2020-10-10T13:51:36Z</time>
      </trkpt>
      <trkpt lat="40.750670" lon="0.267229">
        <ele>1026.2</ele>
        <time>2020-10-10T13:51:43Z</time>
      </trkpt>
      <trkpt lat="40.750697" lon="0.267108">
        <ele>1025.2</ele>
        <time>2020-10-10T13:51:52Z</time>
      </trkpt>
      <trkpt lat="40.750629" lon="0.267029">
        <ele>1024.4</ele>
        <time>2020-10-10T13:52:03Z</time>
      </trkpt>
      <trkpt lat="40.750552" lon="0.266960">
        <ele>1024.4</ele>
        <time>2020-10-10T13:52:14Z</time>
      </trkpt>
      <trkpt lat="40.750483" lon="0.266858">
        <ele>1023.8</ele>
        <time>2020-10-10T13:52:21Z</time>
      </trkpt>
      <trkpt lat="40.750460" lon="0.266737">
        <ele>1024.0</ele>
        <time>2020-10-10T13:52:27Z</time>
      </trkpt>
      <trkpt lat="40.750485" lon="0.266594">
        <ele>1023.9</ele>
        <time>2020-10-10T13:52:32Z</time>
      </trkpt>
      <trkpt lat="40.750430" lon="0.266485">
        <ele>1023.8</ele>
        <time>2020-10-10T13:52:38Z</time>
      </trkpt>
      <trkpt lat="40.750420" lon="0.266359">
        <ele>1023.3</ele>
        <time>2020-10-10T13:52:45Z</time>
      </trkpt>
      <trkpt lat="40.750338" lon="0.266277">
        <ele>1023.2</ele>
        <time>2020-10-10T13:52:59Z</time>
      </trkpt>
      <trkpt lat="40.750265" lon="0.266202">
        <ele>1023.5</ele>
        <time>2020-10-10T13:53:06Z</time>
      </trkpt>
      <trkpt lat="40.750215" lon="0.266081">
        <ele>1022.8</ele>
        <time>2020-10-10T13:53:13Z</time>
      </trkpt>
      <trkpt lat="40.750119" lon="0.266015">
        <ele>1022.3</ele>
        <time>2020-10-10T13:53:18Z</time>
      </trkpt>
      <trkpt lat="40.750050" lon="0.265913">
        <ele>1021.9</ele>
        <time>2020-10-10T13:53:24Z</time>
      </trkpt>
      <trkpt lat="40.749998" lon="0.265814">
        <ele>1020.9</ele>
        <time>2020-10-10T13:53:30Z</time>
      </trkpt>
      <trkpt lat="40.749934" lon="0.265724">
        <ele>1020.2</ele>
        <time>2020-10-10T13:53:36Z</time>
      </trkpt>
      <trkpt lat="40.749840" lon="0.265664">
        <ele>1019.2</ele>
        <time>2020-10-10T13:53:42Z</time>
      </trkpt>
      <trkpt lat="40.749743" lon="0.265634">
        <ele>1018.3</ele>
        <time>2020-10-10T13:53:48Z</time>
      </trkpt>
      <trkpt lat="40.749671" lon="0.265560">
        <ele>1017.5</ele>
        <time>2020-10-10T13:53:54Z</time>
      </trkpt>
      <trkpt lat="40.749574" lon="0.265512">
        <ele>1016.2</ele>
        <time>2020-10-10T13:54:03Z</time>
      </trkpt>
      <trkpt lat="40.749480" lon="0.265556">
        <ele>1015.2</ele>
        <time>2020-10-10T13:54:10Z</time>
      </trkpt>
      <trkpt lat="40.749400" lon="0.265629">
        <ele>1013.6</ele>
        <time>2020-10-10T13:54:24Z</time>
      </trkpt>
      <trkpt lat="40.749318" lon="0.265684">
        <ele>1012.6</ele>
        <time>2020-10-10T13:54:33Z</time>
      </trkpt>
      <trkpt lat="40.749222" lon="0.265735">
        <ele>1011.4</ele>
        <time>2020-10-10T13:54:40Z</time>
      </trkpt>
      <trkpt lat="40.749211" lon="0.265611">
        <ele>1009.5</ele>
        <time>2020-10-10T13:54:53Z</time>
      </trkpt>
      <trkpt lat="40.749308" lon="0.265606">
        <ele>1007.9</ele>
        <time>2020-10-10T13:55:02Z</time>
      </trkpt>
      <trkpt lat="40.749397" lon="0.265555">
        <ele>1005.1</ele>
        <time>2020-10-10T13:55:22Z</time>
      </trkpt>
      <trkpt lat="40.749458" lon="0.265466">
        <ele>1003.8</ele>
        <time>2020-10-10T13:55:34Z</time>
      </trkpt>
      <trkpt lat="40.749508" lon="0.265353">
        <ele>1003.4</ele>
        <time>2020-10-10T13:55:42Z</time>
      </trkpt>
      <trkpt lat="40.749593" lon="0.265306">
        <ele>1001.1</ele>
        <time>2020-10-10T13:56:07Z</time>
      </trkpt>
      <trkpt lat="40.749680" lon="0.265353">
        <ele>999.7</ele>
        <time>2020-10-10T13:56:19Z</time>
      </trkpt>
      <trkpt lat="40.749777" lon="0.265374">
        <ele>998.9</ele>
        <time>2020-10-10T13:56:28Z</time>
      </trkpt>
      <trkpt lat="40.749870" lon="0.265423">
        <ele>998.2</ele>
        <time>2020-10-10T13:56:34Z</time>
      </trkpt>
      <trkpt lat="40.749969" lon="0.265456">
        <ele>997.0</ele>
        <time>2020-10-10T13:56:43Z</time>
      </trkpt>
      <trkpt lat="40.750063" lon="0.265486">
        <ele>995.5</ele>
        <time>2020-10-10T13:56:51Z</time>
      </trkpt>
      <trkpt lat="40.750161" lon="0.265505">
        <ele>994.3</ele>
        <time>2020-10-10T13:57:01Z</time>
      </trkpt>
      <trkpt lat="40.750260" lon="0.265529">
        <ele>992.7</ele>
        <time>2020-10-10T13:57:12Z</time>
      </trkpt>
      <trkpt lat="40.750360" lon="0.265571">
        <ele>991.6</ele>
        <time>2020-10-10T13:57:27Z</time>
      </trkpt>
      <trkpt lat="40.750445" lon="0.265613">
        <ele>990.5</ele>
        <time>2020-10-10T13:57:35Z</time>
      </trkpt>
      <trkpt lat="40.750521" lon="0.265680">
        <ele>989.5</ele>
        <time>2020-10-10T13:57:44Z</time>
      </trkpt>
      <trkpt lat="40.750584" lon="0.265772">
        <ele>985.8</ele>
        <time>2020-10-10T13:58:10Z</time>
      </trkpt>
      <trkpt lat="40.750664" lon="0.265874">
        <ele>984.5</ele>
        <time>2020-10-10T13:58:21Z</time>
      </trkpt>
      <trkpt lat="40.750753" lon="0.265814">
        <ele>984.5</ele>
        <time>2020-10-10T13:58:27Z</time>
      </trkpt>
      <trkpt lat="40.750817" lon="0.265719">
        <ele>985.1</ele>
        <time>2020-10-10T13:58:37Z</time>
      </trkpt>
      <trkpt lat="40.750825" lon="0.265597">
        <ele>985.1</ele>
        <time>2020-10-10T13:58:47Z</time>
      </trkpt>
      <trkpt lat="40.750785" lon="0.265489">
        <ele>985.2</ele>
        <time>2020-10-10T13:58:57Z</time>
      </trkpt>
      <trkpt lat="40.750786" lon="0.265349">
        <ele>985.7</ele>
        <time>2020-10-10T13:59:08Z</time>
      </trkpt>
      <trkpt lat="40.750788" lon="0.265195">
        <ele>986.4</ele>
        <time>2020-10-10T13:59:14Z</time>
      </trkpt>
      <trkpt lat="40.750736" lon="0.265085">
        <ele>987.0</ele>
        <time>2020-10-10T13:59:19Z</time>
      </trkpt>
      <trkpt lat="40.750709" lon="0.264960">
        <ele>987.0</ele>
        <time>2020-10-10T13:59:28Z</time>
      </trkpt>
      <trkpt lat="40.750699" lon="0.264837">
        <ele>987.9</ele>
        <time>2020-10-10T13:59:37Z</time>
      </trkpt>
      <trkpt lat="40.750630" lon="0.264696">
        <ele>988.0</ele>
        <time>2020-10-10T13:59:48Z</time>
      </trkpt>
      <trkpt lat="40.750595" lon="0.264579">
        <ele>989.5</ele>
        <time>2020-10-10T13:59:57Z</time>
      </trkpt>
      <trkpt lat="40.750545" lon="0.264434">
        <ele>989.0</ele>
        <time>2020-10-10T14:00:08Z</time>
      </trkpt>
      <trkpt lat="40.750463" lon="0.264367">
        <ele>990.6</ele>
        <time>2020-10-10T14:00:14Z</time>
      </trkpt>
      <trkpt lat="40.750356" lon="0.264345">
        <ele>991.0</ele>
        <time>2020-10-10T14:00:25Z</time>
      </trkpt>
      <trkpt lat="40.750267" lon="0.264315">
        <ele>992.4</ele>
        <time>2020-10-10T14:00:36Z</time>
      </trkpt>
      <trkpt lat="40.750233" lon="0.264184">
        <ele>993.3</ele>
        <time>2020-10-10T14:00:44Z</time>
      </trkpt>
      <trkpt lat="40.750182" lon="0.264063">
        <ele>993.4</ele>
        <time>2020-10-10T14:00:50Z</time>
      </trkpt>
      <trkpt lat="40.750128" lon="0.263967">
        <ele>993.6</ele>
        <time>2020-10-10T14:00:55Z</time>
      </trkpt>
      <trkpt lat="40.750020" lon="0.263923">
        <ele>993.0</ele>
        <time>2020-10-10T14:01:05Z</time>
      </trkpt>
      <trkpt lat="40.749877" lon="0.263870">
        <ele>994.0</ele>
        <time>2020-10-10T14:01:16Z</time>
      </trkpt>
      <trkpt lat="40.749795" lon="0.263803">
        <ele>995.2</ele>
        <time>2020-10-10T14:01:26Z</time>
      </trkpt>
      <trkpt lat="40.749704" lon="0.263723">
        <ele>995.2</ele>
        <time>2020-10-10T14:01:34Z</time>
      </trkpt>
      <trkpt lat="40.749651" lon="0.263626">
        <ele>996.3</ele>
        <time>2020-10-10T14:01:44Z</time>
      </trkpt>
      <trkpt lat="40.749628" lon="0.263507">
        <ele>997.3</ele>
        <time>2020-10-10T14:01:56Z</time>
      </trkpt>
      <trkpt lat="40.749602" lon="0.263389">
        <ele>998.5</ele>
        <time>2020-10-10T14:02:08Z</time>
      </trkpt>
      <trkpt lat="40.749604" lon="0.263268">
        <ele>999.4</ele>
        <time>2020-10-10T14:02:17Z</time>
      </trkpt>
      <trkpt lat="40.749615" lon="0.263149">
        <ele>1000.2</ele>
        <time>2020-10-10T14:02:25Z</time>
      </trkpt>
      <trkpt lat="40.749639" lon="0.263032">
        <ele>1001.5</ele>
        <time>2020-10-10T14:02:34Z</time>
      </trkpt>
      <trkpt lat="40.749650" lon="0.262898">
        <ele>1002.4</ele>
        <time>2020-10-10T14:02:44Z</time>
      </trkpt>
      <trkpt lat="40.749636" lon="0.262777">
        <ele>1003.1</ele>
        <time>2020-10-10T14:02:55Z</time>
      </trkpt>
      <trkpt lat="40.749633" lon="0.262650">
        <ele>1003.3</ele>
        <time>2020-10-10T14:03:12Z</time>
      </trkpt>
      <trkpt lat="40.749643" lon="0.262532">
        <ele>1003.0</ele>
        <time>2020-10-10T14:03:22Z</time>
      </trkpt>
      <trkpt lat="40.749684" lon="0.262418">
        <ele>1003.1</ele>
        <time>2020-10-10T14:03:34Z</time>
      </trkpt>
      <trkpt lat="40.749757" lon="0.262332">
        <ele>1003.5</ele>
        <time>2020-10-10T14:04:14Z</time>
      </trkpt>
      <trkpt lat="40.749820" lon="0.262228">
        <ele>1003.6</ele>
        <time>2020-10-10T14:04:21Z</time>
      </trkpt>
      <trkpt lat="40.749863" lon="0.262101">
        <ele>1003.4</ele>
        <time>2020-10-10T14:04:28Z</time>
      </trkpt>
      <trkpt lat="40.749914" lon="0.261977">
        <ele>1003.0</ele>
        <time>2020-10-10T14:04:35Z</time>
      </trkpt>
      <trkpt lat="40.749844" lon="0.261889">
        <ele>1002.6</ele>
        <time>2020-10-10T14:04:42Z</time>
      </trkpt>
      <trkpt lat="40.749847" lon="0.261756">
        <ele>1002.2</ele>
        <time>2020-10-10T14:04:54Z</time>
      </trkpt>
      <trkpt lat="40.749770" lon="0.261670">
        <ele>1001.4</ele>
        <time>2020-10-10T14:05:03Z</time>
      </trkpt>
      <trkpt lat="40.749678" lon="0.261607">
        <ele>1000.8</ele>
        <time>2020-10-10T14:05:11Z</time>
      </trkpt>
      <trkpt lat="40.749587" lon="0.261562">
        <ele>1000.4</ele>
        <time>2020-10-10T14:05:20Z</time>
      </trkpt>
      <trkpt lat="40.749508" lon="0.261497">
        <ele>1000.1</ele>
        <time>2020-10-10T14:05:25Z</time>
      </trkpt>
      <trkpt lat="40.749382" lon="0.261429">
        <ele>999.8</ele>
        <time>2020-10-10T14:05:34Z</time>
      </trkpt>
      <trkpt lat="40.749300" lon="0.261354">
        <ele>999.5</ele>
        <time>2020-10-10T14:05:40Z</time>
      </trkpt>
      <trkpt lat="40.749204" lon="0.261282">
        <ele>999.0</ele>
        <time>2020-10-10T14:05:46Z</time>
      </trkpt>
      <trkpt lat="40.749133" lon="0.261189">
        <ele>998.7</ele>
        <time>2020-10-10T14:05:52Z</time>
      </trkpt>
      <trkpt lat="40.749038" lon="0.261145">
        <ele>998.5</ele>
        <time>2020-10-10T14:05:59Z</time>
      </trkpt>
      <trkpt lat="40.748948" lon="0.261118">
        <ele>998.7</ele>
        <time>2020-10-10T14:06:08Z</time>
      </trkpt>
      <trkpt lat="40.748855" lon="0.261112">
        <ele>998.4</ele>
        <time>2020-10-10T14:06:21Z</time>
      </trkpt>
      <trkpt lat="40.748774" lon="0.261168">
        <ele>997.7</ele>
        <time>2020-10-10T14:06:37Z</time>
      </trkpt>
      <trkpt lat="40.748795" lon="0.261290">
        <ele>996.2</ele>
        <time>2020-10-10T14:06:49Z</time>
      </trkpt>
      <trkpt lat="40.748871" lon="0.261359">
        <ele>994.8</ele>
        <time>2020-10-10T14:07:02Z</time>
      </trkpt>
      <trkpt lat="40.748966" lon="0.261441">
        <ele>993.0</ele>
        <time>2020-10-10T14:07:15Z</time>
      </trkpt>
      <trkpt lat="40.749004" lon="0.261565">
        <ele>991.6</ele>
        <time>2020-10-10T14:07:31Z</time>
      </trkpt>
      <trkpt lat="40.749043" lon="0.261689">
        <ele>990.7</ele>
        <time>2020-10-10T14:07:37Z</time>
      </trkpt>
      <trkpt lat="40.749105" lon="0.261782">
        <ele>990.5</ele>
        <time>2020-10-10T14:07:43Z</time>
      </trkpt>
      <trkpt lat="40.749184" lon="0.261849">
        <ele>990.0</ele>
        <time>2020-10-10T14:07:48Z</time>
      </trkpt>
      <trkpt lat="40.749266" lon="0.261912">
        <ele>988.8</ele>
        <time>2020-10-10T14:07:57Z</time>
      </trkpt>
      <trkpt lat="40.749353" lon="0.261984">
        <ele>988.8</ele>
        <time>2020-10-10T14:08:06Z</time>
      </trkpt>
      <trkpt lat="40.749448" lon="0.261992">
        <ele>987.8</ele>
        <time>2020-10-10T14:08:16Z</time>
      </trkpt>
      <trkpt lat="40.749363" lon="0.262079">
        <ele>985.0</ele>
        <time>2020-10-10T14:08:41Z</time>
      </trkpt>
      <trkpt lat="40.749284" lon="0.262180">
        <ele>983.0</ele>
        <time>2020-10-10T14:08:50Z</time>
      </trkpt>
      <trkpt lat="40.749210" lon="0.262261">
        <ele>981.6</ele>
        <time>2020-10-10T14:08:59Z</time>
      </trkpt>
      <trkpt lat="40.749118" lon="0.262288">
        <ele>980.2</ele>
        <time>2020-10-10T14:09:09Z</time>
      </trkpt>
      <trkpt lat="40.749064" lon="0.262409">
        <ele>978.5</ele>
        <time>2020-10-10T14:09:22Z</time>
      </trkpt>
      <trkpt lat="40.749066" lon="0.262538">
        <ele>978.0</ele>
        <time>2020-10-10T14:09:26Z</time>
      </trkpt>
      <trkpt lat="40.749049" lon="0.262667">
        <ele>977.3</ele>
        <time>2020-10-10T14:09:33Z</time>
      </trkpt>
      <trkpt lat="40.749031" lon="0.262795">
        <ele>976.2</ele>
        <time>2020-10-10T14:09:40Z</time>
      </trkpt>
      <trkpt lat="40.749056" lon="0.262917">
        <ele>973.7</ele>
        <time>2020-10-10T14:09:52Z</time>
      </trkpt>
      <trkpt lat="40.749014" lon="0.263031">
        <ele>972.5</ele>
        <time>2020-10-10T14:10:01Z</time>
      </trkpt>
      <trkpt lat="40.748994" lon="0.263151">
        <ele>971.3</ele>
        <time>2020-10-10T14:10:08Z</time>
      </trkpt>
      <trkpt lat="40.749000" lon="0.263280">
        <ele>970.2</ele>
        <time>2020-10-10T14:10:16Z</time>
      </trkpt>
      <trkpt lat="40.749062" lon="0.263390">
        <ele>968.6</ele>
        <time>2020-10-10T14:10:25Z</time>
      </trkpt>
      <trkpt lat="40.749084" lon="0.263506">
        <ele>966.1</ele>
        <time>2020-10-10T14:10:42Z</time>
      </trkpt>
      <trkpt lat="40.749055" lon="0.263663">
        <ele>964.0</ele>
        <time>2020-10-10T14:10:54Z</time>
      </trkpt>
      <trkpt lat="40.749034" lon="0.263786">
        <ele>963.6</ele>
        <time>2020-10-10T14:10:59Z</time>
      </trkpt>
      <trkpt lat="40.748998" lon="0.263899">
        <ele>963.0</ele>
        <time>2020-10-10T14:11:05Z</time>
      </trkpt>
      <trkpt lat="40.748978" lon="0.264020">
        <ele>961.7</ele>
        <time>2020-10-10T14:11:14Z</time>
      </trkpt>
      <trkpt lat="40.748956" lon="0.264136">
        <ele>960.2</ele>
        <time>2020-10-10T14:11:25Z</time>
      </trkpt>
      <trkpt lat="40.748921" lon="0.264019">
        <ele>957.9</ele>
        <time>2020-10-10T14:11:42Z</time>
      </trkpt>
      <trkpt lat="40.748885" lon="0.263870">
        <ele>956.8</ele>
        <time>2020-10-10T14:11:55Z</time>
      </trkpt>
      <trkpt lat="40.748849" lon="0.263745">
        <ele>956.1</ele>
        <time>2020-10-10T14:12:03Z</time>
      </trkpt>
      <trkpt lat="40.748802" lon="0.263625">
        <ele>955.8</ele>
        <time>2020-10-10T14:12:10Z</time>
      </trkpt>
      <trkpt lat="40.748785" lon="0.263499">
        <ele>955.2</ele>
        <time>2020-10-10T14:12:17Z</time>
      </trkpt>
      <trkpt lat="40.748816" lon="0.263385">
        <ele>954.3</ele>
        <time>2020-10-10T14:12:25Z</time>
      </trkpt>
      <trkpt lat="40.748775" lon="0.263267">
        <ele>954.1</ele>
        <time>2020-10-10T14:12:32Z</time>
      </trkpt>
      <trkpt lat="40.748778" lon="0.263125">
        <ele>952.0</ele>
        <time>2020-10-10T14:12:42Z</time>
      </trkpt>
      <trkpt lat="40.748737" lon="0.263005">
        <ele>952.3</ele>
        <time>2020-10-10T14:12:50Z</time>
      </trkpt>
      <trkpt lat="40.748699" lon="0.262879">
        <ele>952.2</ele>
        <time>2020-10-10T14:12:56Z</time>
      </trkpt>
      <trkpt lat="40.748670" lon="0.262737">
        <ele>951.0</ele>
        <time>2020-10-10T14:13:04Z</time>
      </trkpt>
      <trkpt lat="40.748594" lon="0.262665">
        <ele>951.1</ele>
        <time>2020-10-10T14:13:12Z</time>
      </trkpt>
      <trkpt lat="40.748509" lon="0.262617">
        <ele>950.5</ele>
        <time>2020-10-10T14:13:21Z</time>
      </trkpt>
      <trkpt lat="40.748435" lon="0.262537">
        <ele>950.0</ele>
        <time>2020-10-10T14:13:30Z</time>
      </trkpt>
      <trkpt lat="40.748340" lon="0.262464">
        <ele>949.8</ele>
        <time>2020-10-10T14:13:36Z</time>
      </trkpt>
      <trkpt lat="40.748315" lon="0.262340">
        <ele>950.0</ele>
        <time>2020-10-10T14:13:46Z</time>
      </trkpt>
      <trkpt lat="40.748251" lon="0.262247">
        <ele>949.5</ele>
        <time>2020-10-10T14:13:56Z</time>
      </trkpt>
      <trkpt lat="40.748173" lon="0.262150">
        <ele>947.4</ele>
        <time>2020-10-10T14:14:08Z</time>
      </trkpt>
      <trkpt lat="40.748102" lon="0.262054">
        <ele>946.0</ele>
        <time>2020-10-10T14:14:15Z</time>
      </trkpt>
      <trkpt lat="40.748067" lon="0.261939">
        <ele>945.1</ele>
        <time>2020-10-10T14:14:25Z</time>
      </trkpt>
      <trkpt lat="40.748000" lon="0.261859">
        <ele>944.3</ele>
        <time>2020-10-10T14:14:30Z</time>
      </trkpt>
      <trkpt lat="40.747924" lon="0.261783">
        <ele>943.6</ele>
        <time>2020-10-10T14:14:39Z</time>
      </trkpt>
      <trkpt lat="40.747849" lon="0.261704">
        <ele>943.1</ele>
        <time>2020-10-10T14:14:50Z</time>
      </trkpt>
      <trkpt lat="40.747775" lon="0.261636">
        <ele>942.9</ele>
        <time>2020-10-10T14:14:54Z</time>
      </trkpt>
      <trkpt lat="40.747705" lon="0.261552">
        <ele>942.5</ele>
        <time>2020-10-10T14:15:00Z</time>
      </trkpt>
      <trkpt lat="40.747609" lon="0.261474">
        <ele>942.0</ele>
        <time>2020-10-10T14:15:08Z</time>
      </trkpt>
      <trkpt lat="40.747523" lon="0.261414">
        <ele>940.8</ele>
        <time>2020-10-10T14:15:17Z</time>
      </trkpt>
      <trkpt lat="40.747446" lon="0.261305">
        <ele>939.0</ele>
        <time>2020-10-10T14:15:25Z</time>
      </trkpt>
      <trkpt lat="40.747372" lon="0.261206">
        <ele>938.7</ele>
        <time>2020-10-10T14:15:37Z</time>
      </trkpt>
      <trkpt lat="40.747270" lon="0.261122">
        <ele>937.1</ele>
        <time>2020-10-10T14:15:48Z</time>
      </trkpt>
      <trkpt lat="40.747183" lon="0.261070">
        <ele>935.6</ele>
        <time>2020-10-10T14:15:58Z</time>
      </trkpt>
      <trkpt lat="40.747107" lon="0.260986">
        <ele>934.6</ele>
        <time>2020-10-10T14:16:12Z</time>
      </trkpt>
      <trkpt lat="40.747036" lon="0.260895">
        <ele>935.0</ele>
        <time>2020-10-10T14:16:23Z</time>
      </trkpt>
      <trkpt lat="40.746969" lon="0.260782">
        <ele>936.0</ele>
        <time>2020-10-10T14:16:39Z</time>
      </trkpt>
      <trkpt lat="40.746895" lon="0.260695">
        <ele>937.1</ele>
        <time>2020-10-10T14:16:47Z</time>
      </trkpt>
      <trkpt lat="40.746808" lon="0.260639">
        <ele>938.5</ele>
        <time>2020-10-10T14:16:57Z</time>
      </trkpt>
      <trkpt lat="40.746734" lon="0.260568">
        <ele>939.7</ele>
        <time>2020-10-10T14:17:05Z</time>
      </trkpt>
      <trkpt lat="40.746644" lon="0.260528">
        <ele>940.0</ele>
        <time>2020-10-10T14:17:11Z</time>
      </trkpt>
      <trkpt lat="40.746555" lon="0.260495">
        <ele>941.6</ele>
        <time>2020-10-10T14:17:21Z</time>
      </trkpt>
      <trkpt lat="40.746460" lon="0.260450">
        <ele>943.0</ele>
        <time>2020-10-10T14:17:32Z</time>
      </trkpt>
      <trkpt lat="40.746395" lon="0.260360">
        <ele>942.8</ele>
        <time>2020-10-10T14:17:40Z</time>
      </trkpt>
      <trkpt lat="40.746326" lon="0.260275">
        <ele>943.0</ele>
        <time>2020-10-10T14:17:50Z</time>
      </trkpt>
      <trkpt lat="40.746278" lon="0.260168">
        <ele>943.1</ele>
        <time>2020-10-10T14:18:01Z</time>
      </trkpt>
      <trkpt lat="40.746224" lon="0.260072">
        <ele>943.0</ele>
        <time>2020-10-10T14:18:08Z</time>
      </trkpt>
      <trkpt lat="40.746171" lon="0.259968">
        <ele>943.5</ele>
        <time>2020-10-10T14:18:17Z</time>
      </trkpt>
      <trkpt lat="40.746084" lon="0.259908">
        <ele>944.5</ele>
        <time>2020-10-10T14:18:27Z</time>
      </trkpt>
      <trkpt lat="40.745993" lon="0.259850">
        <ele>944.6</ele>
        <time>2020-10-10T14:18:35Z</time>
      </trkpt>
      <trkpt lat="40.745911" lon="0.259783">
        <ele>944.7</ele>
        <time>2020-10-10T14:18:46Z</time>
      </trkpt>
      <trkpt lat="40.745813" lon="0.259732">
        <ele>944.3</ele>
        <time>2020-10-10T14:18:53Z</time>
      </trkpt>
      <trkpt lat="40.745744" lon="0.259652">
        <ele>944.2</ele>
        <time>2020-10-10T14:18:58Z</time>
      </trkpt>
      <trkpt lat="40.745620" lon="0.259507">
        <ele>944.0</ele>
        <time>2020-10-10T14:19:08Z</time>
      </trkpt>
      <trkpt lat="40.745533" lon="0.259435">
        <ele>945.7</ele>
        <time>2020-10-10T14:19:18Z</time>
      </trkpt>
      <trkpt lat="40.745428" lon="0.259428">
        <ele>946.0</ele>
        <time>2020-10-10T14:19:28Z</time>
      </trkpt>
      <trkpt lat="40.745377" lon="0.259534">
        <ele>947.2</ele>
        <time>2020-10-10T14:19:36Z</time>
      </trkpt>
      <trkpt lat="40.745315" lon="0.259622">
        <ele>947.7</ele>
        <time>2020-10-10T14:19:44Z</time>
      </trkpt>
      <trkpt lat="40.745271" lon="0.259728">
        <ele>949.2</ele>
        <time>2020-10-10T14:19:54Z</time>
      </trkpt>
      <trkpt lat="40.745240" lon="0.259844">
        <ele>950.2</ele>
        <time>2020-10-10T14:20:04Z</time>
      </trkpt>
      <trkpt lat="40.745226" lon="0.259971">
        <ele>951.1</ele>
        <time>2020-10-10T14:20:12Z</time>
      </trkpt>
      <trkpt lat="40.745147" lon="0.260050">
        <ele>951.7</ele>
        <time>2020-10-10T14:20:22Z</time>
      </trkpt>
      <trkpt lat="40.745066" lon="0.260118">
        <ele>951.9</ele>
        <time>2020-10-10T14:20:34Z</time>
      </trkpt>
      <trkpt lat="40.744973" lon="0.260131">
        <ele>951.8</ele>
        <time>2020-10-10T14:20:46Z</time>
      </trkpt>
      <trkpt lat="40.744879" lon="0.260166">
        <ele>952.5</ele>
        <time>2020-10-10T14:20:58Z</time>
      </trkpt>
      <trkpt lat="40.744784" lon="0.260198">
        <ele>952.9</ele>
        <time>2020-10-10T14:21:07Z</time>
      </trkpt>
      <trkpt lat="40.744689" lon="0.260236">
        <ele>953.4</ele>
        <time>2020-10-10T14:21:14Z</time>
      </trkpt>
      <trkpt lat="40.744588" lon="0.260253">
        <ele>953.9</ele>
        <time>2020-10-10T14:21:20Z</time>
      </trkpt>
      <trkpt lat="40.744495" lon="0.260253">
        <ele>954.2</ele>
        <time>2020-10-10T14:21:26Z</time>
      </trkpt>
      <trkpt lat="40.744395" lon="0.260240">
        <ele>954.4</ele>
        <time>2020-10-10T14:21:32Z</time>
      </trkpt>
      <trkpt lat="40.744303" lon="0.260246">
        <ele>954.1</ele>
        <time>2020-10-10T14:21:38Z</time>
      </trkpt>
      <trkpt lat="40.744209" lon="0.260230">
        <ele>953.9</ele>
        <time>2020-10-10T14:21:44Z</time>
      </trkpt>
      <trkpt lat="40.744104" lon="0.260204">
        <ele>953.5</ele>
        <time>2020-10-10T14:21:51Z</time>
      </trkpt>
      <trkpt lat="40.744020" lon="0.260141">
        <ele>953.4</ele>
        <time>2020-10-10T14:21:58Z</time>
      </trkpt>
      <trkpt lat="40.743941" lon="0.260078">
        <ele>953.0</ele>
        <time>2020-10-10T14:22:07Z</time>
      </trkpt>
      <trkpt lat="40.743848" lon="0.260025">
        <ele>953.1</ele>
        <time>2020-10-10T14:22:14Z</time>
      </trkpt>
      <trkpt lat="40.743772" lon="0.259957">
        <ele>953.5</ele>
        <time>2020-10-10T14:22:19Z</time>
      </trkpt>
      <trkpt lat="40.743671" lon="0.259957">
        <ele>952.9</ele>
        <time>2020-10-10T14:22:24Z</time>
      </trkpt>
      <trkpt lat="40.743588" lon="0.260021">
        <ele>952.2</ele>
        <time>2020-10-10T14:22:30Z</time>
      </trkpt>
      <trkpt lat="40.743513" lon="0.260097">
        <ele>952.1</ele>
        <time>2020-10-10T14:22:37Z</time>
      </trkpt>
      <trkpt lat="40.743422" lon="0.260123">
        <ele>950.6</ele>
        <time>2020-10-10T14:22:46Z</time>
      </trkpt>
      <trkpt lat="40.743339" lon="0.260038">
        <ele>949.8</ele>
        <time>2020-10-10T14:22:53Z</time>
      </trkpt>
      <trkpt lat="40.743272" lon="0.259952">
        <ele>947.0</ele>
        <time>2020-10-10T14:23:14Z</time>
      </trkpt>
      <trkpt lat="40.743229" lon="0.259844">
        <ele>945.0</ele>
        <time>2020-10-10T14:23:22Z</time>
      </trkpt>
      <trkpt lat="40.743266" lon="0.259734">
        <ele>944.7</ele>
        <time>2020-10-10T14:23:31Z</time>
      </trkpt>
      <trkpt lat="40.743193" lon="0.259663">
        <ele>944.5</ele>
        <time>2020-10-10T14:23:41Z</time>
      </trkpt>
      <trkpt lat="40.743095" lon="0.259648">
        <ele>944.8</ele>
        <time>2020-10-10T14:23:51Z</time>
      </trkpt>
      <trkpt lat="40.743003" lon="0.259691">
        <ele>942.7</ele>
        <time>2020-10-10T14:24:01Z</time>
      </trkpt>
      <trkpt lat="40.742935" lon="0.259772">
        <ele>942.6</ele>
        <time>2020-10-10T14:24:09Z</time>
      </trkpt>
      <trkpt lat="40.742856" lon="0.259829">
        <ele>942.5</ele>
        <time>2020-10-10T14:24:17Z</time>
      </trkpt>
      <trkpt lat="40.742757" lon="0.259864">
        <ele>942.2</ele>
        <time>2020-10-10T14:24:28Z</time>
      </trkpt>
      <trkpt lat="40.742676" lon="0.259917">
        <ele>942.1</ele>
        <time>2020-10-10T14:24:34Z</time>
      </trkpt>
      <trkpt lat="40.742585" lon="0.259942">
        <ele>941.6</ele>
        <time>2020-10-10T14:24:41Z</time>
      </trkpt>
      <trkpt lat="40.742488" lon="0.259933">
        <ele>940.2</ele>
        <time>2020-10-10T14:24:48Z</time>
      </trkpt>
      <trkpt lat="40.742398" lon="0.259937">
        <ele>939.0</ele>
        <time>2020-10-10T14:24:55Z</time>
      </trkpt>
      <trkpt lat="40.742305" lon="0.259937">
        <ele>937.5</ele>
        <time>2020-10-10T14:25:01Z</time>
      </trkpt>
      <trkpt lat="40.742212" lon="0.259971">
        <ele>937.3</ele>
        <time>2020-10-10T14:25:11Z</time>
      </trkpt>
      <trkpt lat="40.742124" lon="0.260012">
        <ele>936.3</ele>
        <time>2020-10-10T14:25:23Z</time>
      </trkpt>
      <trkpt lat="40.742036" lon="0.260068">
        <ele>934.5</ele>
        <time>2020-10-10T14:25:31Z</time>
      </trkpt>
      <trkpt lat="40.741948" lon="0.260092">
        <ele>931.9</ele>
        <time>2020-10-10T14:25:48Z</time>
      </trkpt>
      <trkpt lat="40.741849" lon="0.260075">
        <ele>930.4</ele>
        <time>2020-10-10T14:26:00Z</time>
      </trkpt>
      <trkpt lat="40.741759" lon="0.260101">
        <ele>930.0</ele>
        <time>2020-10-10T14:26:08Z</time>
      </trkpt>
      <trkpt lat="40.741671" lon="0.260139">
        <ele>929.3</ele>
        <time>2020-10-10T14:26:15Z</time>
      </trkpt>
      <trkpt lat="40.741571" lon="0.260163">
        <ele>928.4</ele>
        <time>2020-10-10T14:26:22Z</time>
      </trkpt>
      <trkpt lat="40.741480" lon="0.260127">
        <ele>927.9</ele>
        <time>2020-10-10T14:26:27Z</time>
      </trkpt>
      <trkpt lat="40.741376" lon="0.260113">
        <ele>927.1</ele>
        <time>2020-10-10T14:26:33Z</time>
      </trkpt>
      <trkpt lat="40.741285" lon="0.260145">
        <ele>926.4</ele>
        <time>2020-10-10T14:26:39Z</time>
      </trkpt>
      <trkpt lat="40.741186" lon="0.260181">
        <ele>925.9</ele>
        <time>2020-10-10T14:26:46Z</time>
      </trkpt>
      <trkpt lat="40.741098" lon="0.260240">
        <ele>925.2</ele>
        <time>2020-10-10T14:26:53Z</time>
      </trkpt>
      <trkpt lat="40.741012" lon="0.260286">
        <ele>924.7</ele>
        <time>2020-10-10T14:27:00Z</time>
      </trkpt>
      <trkpt lat="40.740915" lon="0.260285">
        <ele>923.9</ele>
        <time>2020-10-10T14:27:06Z</time>
      </trkpt>
      <trkpt lat="40.740823" lon="0.260255">
        <ele>922.6</ele>
        <time>2020-10-10T14:27:13Z</time>
      </trkpt>
      <trkpt lat="40.740721" lon="0.260256">
        <ele>921.0</ele>
        <time>2020-10-10T14:27:37Z</time>
      </trkpt>
      <trkpt lat="40.740626" lon="0.260281">
        <ele>920.6</ele>
        <time>2020-10-10T14:27:52Z</time>
      </trkpt>
      <trkpt lat="40.740541" lon="0.260325">
        <ele>919.2</ele>
        <time>2020-10-10T14:28:34Z</time>
      </trkpt>
      <trkpt lat="40.740452" lon="0.260342">
        <ele>918.5</ele>
        <time>2020-10-10T14:28:54Z</time>
      </trkpt>
      <trkpt lat="40.740379" lon="0.260431">
        <ele>918.8</ele>
        <time>2020-10-10T14:29:02Z</time>
      </trkpt>
      <trkpt lat="40.740321" lon="0.260525">
        <ele>917.9</ele>
        <time>2020-10-10T14:29:18Z</time>
      </trkpt>
      <trkpt lat="40.740256" lon="0.260631">
        <ele>917.4</ele>
        <time>2020-10-10T14:29:25Z</time>
      </trkpt>
      <trkpt lat="40.740236" lon="0.260747">
        <ele>916.6</ele>
        <time>2020-10-10T14:29:30Z</time>
      </trkpt>
      <trkpt lat="40.740228" lon="0.260880">
        <ele>916.3</ele>
        <time>2020-10-10T14:29:38Z</time>
      </trkpt>
      <trkpt lat="40.740240" lon="0.261002">
        <ele>915.7</ele>
        <time>2020-10-10T14:29:48Z</time>
      </trkpt>
      <trkpt lat="40.740286" lon="0.261104">
        <ele>914.9</ele>
        <time>2020-10-10T14:29:57Z</time>
      </trkpt>
      <trkpt lat="40.740288" lon="0.261225">
        <ele>914.3</ele>
        <time>2020-10-10T14:30:02Z</time>
      </trkpt>
      <trkpt lat="40.740276" lon="0.261355">
        <ele>913.0</ele>
        <time>2020-10-10T14:30:08Z</time>
      </trkpt>
      <trkpt lat="40.740227" lon="0.261465">
        <ele>911.9</ele>
        <time>2020-10-10T14:30:14Z</time>
      </trkpt>
      <trkpt lat="40.740198" lon="0.261596">
        <ele>911.2</ele>
        <time>2020-10-10T14:30:21Z</time>
      </trkpt>
      <trkpt lat="40.740203" lon="0.261726">
        <ele>911.3</ele>
        <time>2020-10-10T14:30:34Z</time>
      </trkpt>
      <trkpt lat="40.740170" lon="0.261853">
        <ele>909.7</ele>
        <time>2020-10-10T14:30:42Z</time>
      </trkpt>
      <trkpt lat="40.740149" lon="0.261989">
        <ele>908.4</ele>
        <time>2020-10-10T14:30:48Z</time>
      </trkpt>
      <trkpt lat="40.740142" lon="0.262109">
        <ele>906.8</ele>
        <time>2020-10-10T14:30:55Z</time>
      </trkpt>
      <trkpt lat="40.740161" lon="0.262226">
        <ele>906.0</ele>
        <time>2020-10-10T14:31:05Z</time>
      </trkpt>
      <trkpt lat="40.740125" lon="0.262335">
        <ele>903.3</ele>
        <time>2020-10-10T14:31:13Z</time>
      </trkpt>
      <trkpt lat="40.740079" lon="0.262456">
        <ele>900.3</ele>
        <time>2020-10-10T14:31:21Z</time>
      </trkpt>
      <trkpt lat="40.740063" lon="0.262575">
        <ele>899.8</ele>
        <time>2020-10-10T14:31:28Z</time>
      </trkpt>
      <trkpt lat="40.740031" lon="0.262693">
        <ele>897.5</ele>
        <time>2020-10-10T14:31:37Z</time>
      </trkpt>
      <trkpt lat="40.740026" lon="0.262813">
        <ele>894.3</ele>
        <time>2020-10-10T14:31:52Z</time>
      </trkpt>
      <trkpt lat="40.740008" lon="0.262945">
        <ele>893.3</ele>
        <time>2020-10-10T14:31:58Z</time>
      </trkpt>
      <trkpt lat="40.739989" lon="0.263068">
        <ele>891.4</ele>
        <time>2020-10-10T14:32:07Z</time>
      </trkpt>
      <trkpt lat="40.740037" lon="0.263185">
        <ele>890.4</ele>
        <time>2020-10-10T14:32:14Z</time>
      </trkpt>
      <trkpt lat="40.740069" lon="0.263309">
        <ele>889.2</ele>
        <time>2020-10-10T14:32:23Z</time>
      </trkpt>
      <trkpt lat="40.740039" lon="0.263424">
        <ele>888.6</ele>
        <time>2020-10-10T14:32:27Z</time>
      </trkpt>
      <trkpt lat="40.739981" lon="0.263531">
        <ele>888.0</ele>
        <time>2020-10-10T14:32:38Z</time>
      </trkpt>
      <trkpt lat="40.739923" lon="0.263628">
        <ele>886.8</ele>
        <time>2020-10-10T14:32:43Z</time>
      </trkpt>
      <trkpt lat="40.739907" lon="0.263762">
        <ele>886.7</ele>
        <time>2020-10-10T14:32:49Z</time>
      </trkpt>
      <trkpt lat="40.739950" lon="0.263881">
        <ele>887.0</ele>
        <time>2020-10-10T14:32:56Z</time>
      </trkpt>
      <trkpt lat="40.740015" lon="0.263986">
        <ele>887.8</ele>
        <time>2020-10-10T14:33:08Z</time>
      </trkpt>
      <trkpt lat="40.739984" lon="0.264125">
        <ele>888.6</ele>
        <time>2020-10-10T14:33:15Z</time>
      </trkpt>
      <trkpt lat="40.739993" lon="0.264248">
        <ele>888.7</ele>
        <time>2020-10-10T14:33:20Z</time>
      </trkpt>
      <trkpt lat="40.739990" lon="0.264372">
        <ele>888.4</ele>
        <time>2020-10-10T14:33:29Z</time>
      </trkpt>
      <trkpt lat="40.739931" lon="0.264479">
        <ele>888.7</ele>
        <time>2020-10-10T14:33:38Z</time>
      </trkpt>
      <trkpt lat="40.739888" lon="0.264589">
        <ele>887.3</ele>
        <time>2020-10-10T14:33:43Z</time>
      </trkpt>
      <trkpt lat="40.739813" lon="0.264659">
        <ele>883.7</ele>
        <time>2020-10-10T14:33:54Z</time>
      </trkpt>
      <trkpt lat="40.739720" lon="0.264663">
        <ele>882.1</ele>
        <time>2020-10-10T14:34:01Z</time>
      </trkpt>
      <trkpt lat="40.739615" lon="0.264669">
        <ele>880.5</ele>
        <time>2020-10-10T14:34:08Z</time>
      </trkpt>
      <trkpt lat="40.739523" lon="0.264655">
        <ele>876.8</ele>
        <time>2020-10-10T14:34:17Z</time>
      </trkpt>
      <trkpt lat="40.739423" lon="0.264613">
        <ele>875.8</ele>
        <time>2020-10-10T14:34:31Z</time>
      </trkpt>
      <trkpt lat="40.739329" lon="0.264583">
        <ele>876.7</ele>
        <time>2020-10-10T14:34:36Z</time>
      </trkpt>
      <trkpt lat="40.739233" lon="0.264592">
        <ele>877.7</ele>
        <time>2020-10-10T14:34:42Z</time>
      </trkpt>
      <trkpt lat="40.739129" lon="0.264629">
        <ele>876.3</ele>
        <time>2020-10-10T14:34:52Z</time>
      </trkpt>
      <trkpt lat="40.739029" lon="0.264648">
        <ele>875.8</ele>
        <time>2020-10-10T14:34:57Z</time>
      </trkpt>
      <trkpt lat="40.738934" lon="0.264664">
        <ele>875.5</ele>
        <time>2020-10-10T14:35:03Z</time>
      </trkpt>
      <trkpt lat="40.738847" lon="0.264707">
        <ele>875.5</ele>
        <time>2020-10-10T14:35:16Z</time>
      </trkpt>
      <trkpt lat="40.738757" lon="0.264724">
        <ele>875.5</ele>
        <time>2020-10-10T14:35:30Z</time>
      </trkpt>
      <trkpt lat="40.738751" lon="0.264844">
        <ele>873.2</ele>
        <time>2020-10-10T14:35:40Z</time>
      </trkpt>
      <trkpt lat="40.738817" lon="0.264936">
        <ele>871.8</ele>
        <time>2020-10-10T14:35:46Z</time>
      </trkpt>
      <trkpt lat="40.738852" lon="0.265051">
        <ele>871.1</ele>
        <time>2020-10-10T14:35:57Z</time>
      </trkpt>
      <trkpt lat="40.738827" lon="0.265167">
        <ele>871.4</ele>
        <time>2020-10-10T14:36:06Z</time>
      </trkpt>
      <trkpt lat="40.738815" lon="0.265287">
        <ele>866.3</ele>
        <time>2020-10-10T14:36:20Z</time>
      </trkpt>
      <trkpt lat="40.738852" lon="0.265421">
        <ele>864.0</ele>
        <time>2020-10-10T14:36:30Z</time>
      </trkpt>
      <trkpt lat="40.738903" lon="0.265530">
        <ele>862.8</ele>
        <time>2020-10-10T14:36:35Z</time>
      </trkpt>
      <trkpt lat="40.738949" lon="0.265637">
        <ele>861.2</ele>
        <time>2020-10-10T14:36:41Z</time>
      </trkpt>
      <trkpt lat="40.738968" lon="0.265773">
        <ele>859.8</ele>
        <time>2020-10-10T14:36:48Z</time>
      </trkpt>
      <trkpt lat="40.738952" lon="0.265903">
        <ele>859.7</ele>
        <time>2020-10-10T14:36:54Z</time>
      </trkpt>
      <trkpt lat="40.738933" lon="0.266019">
        <ele>858.1</ele>
        <time>2020-10-10T14:37:04Z</time>
      </trkpt>
      <trkpt lat="40.738848" lon="0.266105">
        <ele>856.0</ele>
        <time>2020-10-10T14:37:12Z</time>
      </trkpt>
      <trkpt lat="40.738806" lon="0.266216">
        <ele>855.2</ele>
        <time>2020-10-10T14:37:19Z</time>
      </trkpt>
      <trkpt lat="40.738763" lon="0.266333">
        <ele>853.8</ele>
        <time>2020-10-10T14:37:28Z</time>
      </trkpt>
      <trkpt lat="40.738696" lon="0.266423">
        <ele>853.1</ele>
        <time>2020-10-10T14:37:40Z</time>
      </trkpt>
      <trkpt lat="40.738673" lon="0.266546">
        <ele>852.9</ele>
        <time>2020-10-10T14:37:44Z</time>
      </trkpt>
      <trkpt lat="40.738640" lon="0.266659">
        <ele>853.2</ele>
        <time>2020-10-10T14:37:50Z</time>
      </trkpt>
      <trkpt lat="40.738621" lon="0.266785">
        <ele>852.3</ele>
        <time>2020-10-10T14:37:58Z</time>
      </trkpt>
      <trkpt lat="40.738617" lon="0.266908">
        <ele>850.8</ele>
        <time>2020-10-10T14:38:09Z</time>
      </trkpt>
      <trkpt lat="40.738648" lon="0.267034">
        <ele>849.0</ele>
        <time>2020-10-10T14:38:20Z</time>
      </trkpt>
      <trkpt lat="40.738681" lon="0.267153">
        <ele>848.7</ele>
        <time>2020-10-10T14:38:26Z</time>
      </trkpt>
      <trkpt lat="40.738703" lon="0.267269">
        <ele>848.0</ele>
        <time>2020-10-10T14:38:31Z</time>
      </trkpt>
      <trkpt lat="40.738724" lon="0.267384">
        <ele>846.4</ele>
        <time>2020-10-10T14:38:41Z</time>
      </trkpt>
      <trkpt lat="40.738805" lon="0.267459">
        <ele>844.4</ele>
        <time>2020-10-10T14:38:48Z</time>
      </trkpt>
      <trkpt lat="40.738879" lon="0.267556">
        <ele>842.7</ele>
        <time>2020-10-10T14:38:55Z</time>
      </trkpt>
      <trkpt lat="40.738934" lon="0.267669">
        <ele>842.4</ele>
        <time>2020-10-10T14:39:00Z</time>
      </trkpt>
      <trkpt lat="40.738974" lon="0.267787">
        <ele>840.9</ele>
        <time>2020-10-10T14:39:09Z</time>
      </trkpt>
      <trkpt lat="40.739023" lon="0.267914">
        <ele>840.6</ele>
        <time>2020-10-10T14:39:14Z</time>
      </trkpt>
      <trkpt lat="40.739065" lon="0.268025">
        <ele>838.6</ele>
        <time>2020-10-10T14:39:21Z</time>
      </trkpt>
      <trkpt lat="40.739087" lon="0.268159">
        <ele>835.9</ele>
        <time>2020-10-10T14:39:34Z</time>
      </trkpt>
      <trkpt lat="40.739127" lon="0.268269">
        <ele>835.1</ele>
        <time>2020-10-10T14:39:40Z</time>
      </trkpt>
      <trkpt lat="40.739200" lon="0.268348">
        <ele>834.7</ele>
        <time>2020-10-10T14:39:51Z</time>
      </trkpt>
      <trkpt lat="40.739258" lon="0.268446">
        <ele>832.6</ele>
        <time>2020-10-10T14:39:57Z</time>
      </trkpt>
      <trkpt lat="40.739346" lon="0.268493">
        <ele>831.2</ele>
        <time>2020-10-10T14:40:07Z</time>
      </trkpt>
      <trkpt lat="40.739424" lon="0.268578">
        <ele>828.8</ele>
        <time>2020-10-10T14:40:18Z</time>
      </trkpt>
      <trkpt lat="40.739459" lon="0.268712">
        <ele>827.6</ele>
        <time>2020-10-10T14:40:24Z</time>
      </trkpt>
      <trkpt lat="40.739455" lon="0.268831">
        <ele>824.7</ele>
        <time>2020-10-10T14:40:36Z</time>
      </trkpt>
      <trkpt lat="40.739362" lon="0.268864">
        <ele>823.6</ele>
        <time>2020-10-10T14:40:52Z</time>
      </trkpt>
      <trkpt lat="40.739288" lon="0.268932">
        <ele>822.0</ele>
        <time>2020-10-10T14:41:02Z</time>
      </trkpt>
      <trkpt lat="40.739201" lon="0.268971">
        <ele>821.4</ele>
        <time>2020-10-10T14:41:11Z</time>
      </trkpt>
      <trkpt lat="40.739139" lon="0.269067">
        <ele>817.3</ele>
        <time>2020-10-10T14:41:19Z</time>
      </trkpt>
      <trkpt lat="40.739088" lon="0.269168">
        <ele>813.8</ele>
        <time>2020-10-10T14:41:31Z</time>
      </trkpt>
      <trkpt lat="40.739007" lon="0.269221">
        <ele>813.0</ele>
        <time>2020-10-10T14:41:38Z</time>
      </trkpt>
      <trkpt lat="40.738916" lon="0.269252">
        <ele>810.5</ele>
        <time>2020-10-10T14:41:50Z</time>
      </trkpt>
      <trkpt lat="40.738821" lon="0.269252">
        <ele>809.1</ele>
        <time>2020-10-10T14:41:58Z</time>
      </trkpt>
      <trkpt lat="40.738720" lon="0.269241">
        <ele>807.1</ele>
        <time>2020-10-10T14:42:07Z</time>
      </trkpt>
      <trkpt lat="40.738628" lon="0.269253">
        <ele>805.6</ele>
        <time>2020-10-10T14:42:19Z</time>
      </trkpt>
      <trkpt lat="40.738602" lon="0.269381">
        <ele>804.3</ele>
        <time>2020-10-10T14:42:27Z</time>
      </trkpt>
      <trkpt lat="40.738589" lon="0.269519">
        <ele>802.9</ele>
        <time>2020-10-10T14:42:32Z</time>
      </trkpt>
      <trkpt lat="40.738552" lon="0.269683">
        <ele>800.7</ele>
        <time>2020-10-10T14:42:41Z</time>
      </trkpt>
      <trkpt lat="40.738485" lon="0.269788">
        <ele>800.3</ele>
        <time>2020-10-10T14:42:47Z</time>
      </trkpt>
      <trkpt lat="40.738471" lon="0.269912">
        <ele>799.2</ele>
        <time>2020-10-10T14:42:56Z</time>
      </trkpt>
      <trkpt lat="40.738435" lon="0.270023">
        <ele>798.2</ele>
        <time>2020-10-10T14:43:04Z</time>
      </trkpt>
      <trkpt lat="40.738412" lon="0.270138">
        <ele>795.7</ele>
        <time>2020-10-10T14:43:18Z</time>
      </trkpt>
      <trkpt lat="40.738324" lon="0.270170">
        <ele>792.9</ele>
        <time>2020-10-10T14:43:32Z</time>
      </trkpt>
      <trkpt lat="40.738241" lon="0.270109">
        <ele>791.5</ele>
        <time>2020-10-10T14:43:45Z</time>
      </trkpt>
      <trkpt lat="40.738250" lon="0.269984">
        <ele>791.6</ele>
        <time>2020-10-10T14:43:56Z</time>
      </trkpt>
      <trkpt lat="40.738281" lon="0.269866">
        <ele>792.2</ele>
        <time>2020-10-10T14:44:05Z</time>
      </trkpt>
      <trkpt lat="40.738336" lon="0.269740">
        <ele>792.0</ele>
        <time>2020-10-10T14:44:10Z</time>
      </trkpt>
      <trkpt lat="40.738358" lon="0.269606">
        <ele>793.8</ele>
        <time>2020-10-10T14:44:18Z</time>
      </trkpt>
      <trkpt lat="40.738372" lon="0.269487">
        <ele>793.5</ele>
        <time>2020-10-10T14:44:30Z</time>
      </trkpt>
      <trkpt lat="40.738336" lon="0.269372">
        <ele>796.0</ele>
        <time>2020-10-10T14:44:51Z</time>
      </trkpt>
      <trkpt lat="40.738288" lon="0.269263">
        <ele>797.1</ele>
        <time>2020-10-10T14:45:06Z</time>
      </trkpt>
      <trkpt lat="40.738294" lon="0.269136">
        <ele>797.6</ele>
        <time>2020-10-10T14:45:19Z</time>
      </trkpt>
      <trkpt lat="40.738282" lon="0.269011">
        <ele>799.0</ele>
        <time>2020-10-10T14:45:27Z</time>
      </trkpt>
      <trkpt lat="40.738238" lon="0.268907">
        <ele>800.4</ele>
        <time>2020-10-10T14:45:38Z</time>
      </trkpt>
      <trkpt lat="40.738184" lon="0.268790">
        <ele>801.0</ele>
        <time>2020-10-10T14:45:48Z</time>
      </trkpt>
      <trkpt lat="40.738074" lon="0.268679">
        <ele>801.9</ele>
        <time>2020-10-10T14:45:56Z</time>
      </trkpt>
      <trkpt lat="40.737995" lon="0.268620">
        <ele>802.0</ele>
        <time>2020-10-10T14:46:04Z</time>
      </trkpt>
      <trkpt lat="40.737893" lon="0.268606">
        <ele>801.7</ele>
        <time>2020-10-10T14:46:09Z</time>
      </trkpt>
      <trkpt lat="40.737836" lon="0.268506">
        <ele>801.2</ele>
        <time>2020-10-10T14:46:19Z</time>
      </trkpt>
      <trkpt lat="40.737778" lon="0.268410">
        <ele>799.9</ele>
        <time>2020-10-10T14:46:31Z</time>
      </trkpt>
      <trkpt lat="40.737702" lon="0.268322">
        <ele>799.1</ele>
        <time>2020-10-10T14:46:42Z</time>
      </trkpt>
      <trkpt lat="40.737664" lon="0.268200">
        <ele>798.3</ele>
        <time>2020-10-10T14:46:50Z</time>
      </trkpt>
      <trkpt lat="40.737629" lon="0.268085">
        <ele>798.0</ele>
        <time>2020-10-10T14:46:56Z</time>
      </trkpt>
      <trkpt lat="40.737548" lon="0.268012">
        <ele>797.2</ele>
        <time>2020-10-10T14:47:02Z</time>
      </trkpt>
      <trkpt lat="40.737443" lon="0.268022">
        <ele>796.5</ele>
        <time>2020-10-10T14:47:05Z</time>
      </trkpt>
      <trkpt lat="40.737363" lon="0.267955">
        <ele>793.4</ele>
        <time>2020-10-10T14:47:23Z</time>
      </trkpt>
      <trkpt lat="40.737361" lon="0.267821">
        <ele>793.5</ele>
        <time>2020-10-10T14:47:30Z</time>
      </trkpt>
      <trkpt lat="40.737321" lon="0.267703">
        <ele>792.9</ele>
        <time>2020-10-10T14:47:37Z</time>
      </trkpt>
      <trkpt lat="40.737256" lon="0.267604">
        <ele>792.5</ele>
        <time>2020-10-10T14:47:43Z</time>
      </trkpt>
      <trkpt lat="40.737173" lon="0.267558">
        <ele>792.5</ele>
        <time>2020-10-10T14:47:47Z</time>
      </trkpt>
      <trkpt lat="40.737088" lon="0.267482">
        <ele>792.0</ele>
        <time>2020-10-10T14:47:52Z</time>
      </trkpt>
      <trkpt lat="40.736976" lon="0.267439">
        <ele>792.0</ele>
        <time>2020-10-10T14:48:01Z</time>
      </trkpt>
      <trkpt lat="40.736969" lon="0.267286">
        <ele>789.0</ele>
        <time>2020-10-10T14:48:13Z</time>
      </trkpt>
      <trkpt lat="40.737029" lon="0.267183">
        <ele>789.3</ele>
        <time>2020-10-10T14:48:21Z</time>
      </trkpt>
      <trkpt lat="40.737049" lon="0.267061">
        <ele>788.3</ele>
        <time>2020-10-10T14:48:34Z</time>
      </trkpt>
      <trkpt lat="40.737103" lon="0.266965">
        <ele>789.3</ele>
        <time>2020-10-10T14:48:43Z</time>
      </trkpt>
      <trkpt lat="40.737132" lon="0.266822">
        <ele>790.0</ele>
        <time>2020-10-10T14:48:56Z</time>
      </trkpt>
      <trkpt lat="40.737074" lon="0.266710">
        <ele>791.8</ele>
        <time>2020-10-10T14:49:03Z</time>
      </trkpt>
      <trkpt lat="40.737008" lon="0.266629">
        <ele>789.3</ele>
        <time>2020-10-10T14:49:15Z</time>
      </trkpt>
      <trkpt lat="40.736913" lon="0.266589">
        <ele>786.1</ele>
        <time>2020-10-10T14:49:23Z</time>
      </trkpt>
      <trkpt lat="40.736819" lon="0.266566">
        <ele>785.6</ele>
        <time>2020-10-10T14:49:28Z</time>
      </trkpt>
      <trkpt lat="40.736734" lon="0.266515">
        <ele>785.1</ele>
        <time>2020-10-10T14:49:32Z</time>
      </trkpt>
      <trkpt lat="40.736648" lon="0.266439">
        <ele>784.3</ele>
        <time>2020-10-10T14:49:38Z</time>
      </trkpt>
      <trkpt lat="40.736554" lon="0.266431">
        <ele>782.9</ele>
        <time>2020-10-10T14:49:49Z</time>
      </trkpt>
      <trkpt lat="40.736487" lon="0.266350">
        <ele>781.8</ele>
        <time>2020-10-10T14:49:57Z</time>
      </trkpt>
      <trkpt lat="40.736432" lon="0.266253">
        <ele>779.4</ele>
        <time>2020-10-10T14:50:08Z</time>
      </trkpt>
      <trkpt lat="40.736427" lon="0.266115">
        <ele>777.1</ele>
        <time>2020-10-10T14:50:16Z</time>
      </trkpt>
      <trkpt lat="40.736384" lon="0.265970">
        <ele>776.1</ele>
        <time>2020-10-10T14:50:23Z</time>
      </trkpt>
      <trkpt lat="40.736313" lon="0.265890">
        <ele>774.6</ele>
        <time>2020-10-10T14:50:32Z</time>
      </trkpt>
      <trkpt lat="40.736284" lon="0.265777">
        <ele>772.5</ele>
        <time>2020-10-10T14:50:43Z</time>
      </trkpt>
      <trkpt lat="40.736243" lon="0.265667">
        <ele>770.9</ele>
        <time>2020-10-10T14:50:55Z</time>
      </trkpt>
      <trkpt lat="40.736217" lon="0.265538">
        <ele>770.2</ele>
        <time>2020-10-10T14:51:02Z</time>
      </trkpt>
      <trkpt lat="40.736192" lon="0.265400">
        <ele>769.2</ele>
        <time>2020-10-10T14:51:10Z</time>
      </trkpt>
      <trkpt lat="40.736172" lon="0.265282">
        <ele>767.0</ele>
        <time>2020-10-10T14:51:23Z</time>
      </trkpt>
      <trkpt lat="40.736114" lon="0.265182">
        <ele>765.8</ele>
        <time>2020-10-10T14:51:34Z</time>
      </trkpt>
      <trkpt lat="40.736084" lon="0.265067">
        <ele>764.1</ele>
        <time>2020-10-10T14:51:43Z</time>
      </trkpt>
      <trkpt lat="40.736046" lon="0.264946">
        <ele>762.9</ele>
        <time>2020-10-10T14:51:53Z</time>
      </trkpt>
      <trkpt lat="40.736035" lon="0.264824">
        <ele>762.5</ele>
        <time>2020-10-10T14:51:58Z</time>
      </trkpt>
      <trkpt lat="40.736042" lon="0.264696">
        <ele>761.0</ele>
        <time>2020-10-10T14:52:08Z</time>
      </trkpt>
      <trkpt lat="40.736059" lon="0.264577">
        <ele>760.4</ele>
        <time>2020-10-10T14:52:18Z</time>
      </trkpt>
      <trkpt lat="40.736121" lon="0.264483">
        <ele>758.2</ele>
        <time>2020-10-10T14:52:39Z</time>
      </trkpt>
      <trkpt lat="40.736184" lon="0.264384">
        <ele>757.2</ele>
        <time>2020-10-10T14:52:47Z</time>
      </trkpt>
      <trkpt lat="40.736285" lon="0.264344">
        <ele>755.8</ele>
        <time>2020-10-10T14:52:56Z</time>
      </trkpt>
      <trkpt lat="40.736350" lon="0.264256">
        <ele>754.8</ele>
        <time>2020-10-10T14:53:09Z</time>
      </trkpt>
      <trkpt lat="40.736427" lon="0.264190">
        <ele>753.7</ele>
        <time>2020-10-10T14:53:19Z</time>
      </trkpt>
      <trkpt lat="40.736506" lon="0.264081">
        <ele>751.8</ele>
        <time>2020-10-10T14:53:26Z</time>
      </trkpt>
      <trkpt lat="40.736582" lon="0.263993">
        <ele>751.0</ele>
        <time>2020-10-10T14:53:31Z</time>
      </trkpt>
      <trkpt lat="40.736660" lon="0.263908">
        <ele>749.9</ele>
        <time>2020-10-10T14:53:38Z</time>
      </trkpt>
      <trkpt lat="40.736729" lon="0.263821">
        <ele>749.4</ele>
        <time>2020-10-10T14:53:44Z</time>
      </trkpt>
      <trkpt lat="40.736775" lon="0.263714">
        <ele>748.4</ele>
        <time>2020-10-10T14:53:51Z</time>
      </trkpt>
      <trkpt lat="40.736768" lon="0.263590">
        <ele>747.2</ele>
        <time>2020-10-10T14:53:57Z</time>
      </trkpt>
      <trkpt lat="40.736739" lon="0.263477">
        <ele>745.7</ele>
        <time>2020-10-10T14:54:04Z</time>
      </trkpt>
      <trkpt lat="40.736693" lon="0.263364">
        <ele>744.6</ele>
        <time>2020-10-10T14:54:13Z</time>
      </trkpt>
      <trkpt lat="40.736679" lon="0.263230">
        <ele>743.0</ele>
        <time>2020-10-10T14:54:25Z</time>
      </trkpt>
      <trkpt lat="40.736676" lon="0.263107">
        <ele>740.9</ele>
        <time>2020-10-10T14:54:31Z</time>
      </trkpt>
      <trkpt lat="40.736632" lon="0.262983">
        <ele>739.0</ele>
        <time>2020-10-10T14:54:43Z</time>
      </trkpt>
      <trkpt lat="40.736563" lon="0.262891">
        <ele>738.7</ele>
        <time>2020-10-10T14:54:51Z</time>
      </trkpt>
      <trkpt lat="40.736479" lon="0.262832">
        <ele>738.6</ele>
        <time>2020-10-10T14:54:57Z</time>
      </trkpt>
      <trkpt lat="40.736420" lon="0.262737">
        <ele>737.4</ele>
        <time>2020-10-10T14:55:07Z</time>
      </trkpt>
      <trkpt lat="40.736376" lon="0.262621">
        <ele>736.2</ele>
        <time>2020-10-10T14:55:14Z</time>
      </trkpt>
      <trkpt lat="40.736416" lon="0.262507">
        <ele>736.0</ele>
        <time>2020-10-10T14:55:22Z</time>
      </trkpt>
      <trkpt lat="40.736503" lon="0.262468">
        <ele>734.0</ele>
        <time>2020-10-10T14:55:38Z</time>
      </trkpt>
      <trkpt lat="40.736594" lon="0.262455">
        <ele>732.4</ele>
        <time>2020-10-10T14:55:52Z</time>
      </trkpt>
      <trkpt lat="40.736653" lon="0.262366">
        <ele>730.6</ele>
        <time>2020-10-10T14:56:02Z</time>
      </trkpt>
      <trkpt lat="40.736710" lon="0.262269">
        <ele>728.9</ele>
        <time>2020-10-10T14:56:13Z</time>
      </trkpt>
      <trkpt lat="40.736746" lon="0.262142">
        <ele>727.9</ele>
        <time>2020-10-10T14:56:23Z</time>
      </trkpt>
      <trkpt lat="40.736758" lon="0.262024">
        <ele>727.5</ele>
        <time>2020-10-10T14:56:29Z</time>
      </trkpt>
      <trkpt lat="40.736803" lon="0.261919">
        <ele>725.6</ele>
        <time>2020-10-10T14:56:42Z</time>
      </trkpt>
      <trkpt lat="40.736883" lon="0.261846">
        <ele>724.3</ele>
        <time>2020-10-10T14:56:53Z</time>
      </trkpt>
      <trkpt lat="40.736957" lon="0.261776">
        <ele>722.5</ele>
        <time>2020-10-10T14:57:03Z</time>
      </trkpt>
      <trkpt lat="40.737024" lon="0.261675">
        <ele>721.2</ele>
        <time>2020-10-10T14:57:11Z</time>
      </trkpt>
      <trkpt lat="40.737104" lon="0.261607">
        <ele>720.3</ele>
        <time>2020-10-10T14:57:17Z</time>
      </trkpt>
      <trkpt lat="40.737179" lon="0.261520">
        <ele>720.2</ele>
        <time>2020-10-10T14:57:24Z</time>
      </trkpt>
      <trkpt lat="40.737195" lon="0.261402">
        <ele>719.3</ele>
        <time>2020-10-10T14:57:31Z</time>
      </trkpt>
      <trkpt lat="40.737215" lon="0.261275">
        <ele>718.6</ele>
        <time>2020-10-10T14:57:38Z</time>
      </trkpt>
      <trkpt lat="40.737197" lon="0.261157">
        <ele>716.2</ele>
        <time>2020-10-10T14:57:52Z</time>
      </trkpt>
      <trkpt lat="40.737189" lon="0.261033">
        <ele>714.9</ele>
        <time>2020-10-10T14:58:02Z</time>
      </trkpt>
      <trkpt lat="40.737214" lon="0.260906">
        <ele>712.6</ele>
        <time>2020-10-10T14:58:20Z</time>
      </trkpt>
      <trkpt lat="40.737248" lon="0.260782">
        <ele>711.9</ele>
        <time>2020-10-10T14:58:27Z</time>
      </trkpt>
      <trkpt lat="40.737268" lon="0.260661">
        <ele>710.1</ele>
        <time>2020-10-10T14:58:36Z</time>
      </trkpt>
      <trkpt lat="40.737304" lon="0.260541">
        <ele>709.3</ele>
        <time>2020-10-10T14:58:42Z</time>
      </trkpt>
      <trkpt lat="40.737309" lon="0.260422">
        <ele>707.3</ele>
        <time>2020-10-10T14:58:50Z</time>
      </trkpt>
      <trkpt lat="40.737303" lon="0.260291">
        <ele>706.3</ele>
        <time>2020-10-10T14:58:59Z</time>
      </trkpt>
      <trkpt lat="40.737314" lon="0.260166">
        <ele>704.9</ele>
        <time>2020-10-10T14:59:04Z</time>
      </trkpt>
      <trkpt lat="40.737305" lon="0.260047">
        <ele>703.4</ele>
        <time>2020-10-10T14:59:14Z</time>
      </trkpt>
      <trkpt lat="40.737309" lon="0.259926">
        <ele>702.1</ele>
        <time>2020-10-10T14:59:22Z</time>
      </trkpt>
      <trkpt lat="40.737263" lon="0.259818">
        <ele>699.5</ele>
        <time>2020-10-10T14:59:37Z</time>
      </trkpt>
      <trkpt lat="40.737287" lon="0.259696">
        <ele>697.6</ele>
        <time>2020-10-10T14:59:52Z</time>
      </trkpt>
      <trkpt lat="40.737286" lon="0.259573">
        <ele>696.7</ele>
        <time>2020-10-10T14:59:59Z</time>
      </trkpt>
      <trkpt lat="40.737274" lon="0.259441">
        <ele>695.3</ele>
        <time>2020-10-10T15:00:08Z</time>
      </trkpt>
      <trkpt lat="40.737299" lon="0.259313">
        <ele>694.2</ele>
        <time>2020-10-10T15:00:16Z</time>
      </trkpt>
      <trkpt lat="40.737341" lon="0.259208">
        <ele>692.3</ele>
        <time>2020-10-10T15:00:29Z</time>
      </trkpt>
      <trkpt lat="40.737333" lon="0.259083">
        <ele>691.1</ele>
        <time>2020-10-10T15:00:38Z</time>
      </trkpt>
      <trkpt lat="40.737354" lon="0.258966">
        <ele>690.2</ele>
        <time>2020-10-10T15:00:44Z</time>
      </trkpt>
      <trkpt lat="40.737340" lon="0.258838">
        <ele>688.9</ele>
        <time>2020-10-10T15:00:51Z</time>
      </trkpt>
      <trkpt lat="40.737297" lon="0.258720">
        <ele>687.0</ele>
        <time>2020-10-10T15:01:01Z</time>
      </trkpt>
      <trkpt lat="40.737224" lon="0.258642">
        <ele>686.0</ele>
        <time>2020-10-10T15:01:10Z</time>
      </trkpt>
      <trkpt lat="40.737191" lon="0.258515">
        <ele>684.8</ele>
        <time>2020-10-10T15:01:19Z</time>
      </trkpt>
      <trkpt lat="40.737178" lon="0.258395">
        <ele>684.3</ele>
        <time>2020-10-10T15:01:25Z</time>
      </trkpt>
      <trkpt lat="40.737129" lon="0.258278">
        <ele>683.2</ele>
        <time>2020-10-10T15:01:31Z</time>
      </trkpt>
      <trkpt lat="40.737094" lon="0.258157">
        <ele>682.0</ele>
        <time>2020-10-10T15:01:38Z</time>
      </trkpt>
      <trkpt lat="40.737051" lon="0.258042">
        <ele>679.8</ele>
        <time>2020-10-10T15:01:50Z</time>
      </trkpt>
      <trkpt lat="40.737004" lon="0.257937">
        <ele>678.0</ele>
        <time>2020-10-10T15:01:59Z</time>
      </trkpt>
      <trkpt lat="40.736975" lon="0.257821">
        <ele>676.7</ele>
        <time>2020-10-10T15:02:09Z</time>
      </trkpt>
      <trkpt lat="40.736977" lon="0.257701">
        <ele>676.0</ele>
        <time>2020-10-10T15:02:14Z</time>
      </trkpt>
      <trkpt lat="40.736939" lon="0.257591">
        <ele>674.4</ele>
        <time>2020-10-10T15:02:22Z</time>
      </trkpt>
      <trkpt lat="40.736910" lon="0.257466">
        <ele>672.8</ele>
        <time>2020-10-10T15:02:32Z</time>
      </trkpt>
      <trkpt lat="40.736903" lon="0.257347">
        <ele>670.7</ele>
        <time>2020-10-10T15:02:43Z</time>
      </trkpt>
      <trkpt lat="40.736883" lon="0.257231">
        <ele>669.7</ele>
        <time>2020-10-10T15:02:53Z</time>
      </trkpt>
      <trkpt lat="40.736873" lon="0.257110">
        <ele>667.6</ele>
        <time>2020-10-10T15:03:01Z</time>
      </trkpt>
      <trkpt lat="40.736880" lon="0.256989">
        <ele>667.0</ele>
        <time>2020-10-10T15:03:07Z</time>
      </trkpt>
      <trkpt lat="40.736893" lon="0.256869">
        <ele>665.9</ele>
        <time>2020-10-10T15:03:16Z</time>
      </trkpt>
      <trkpt lat="40.736921" lon="0.256747">
        <ele>664.6</ele>
        <time>2020-10-10T15:03:27Z</time>
      </trkpt>
      <trkpt lat="40.737001" lon="0.256669">
        <ele>662.8</ele>
        <time>2020-10-10T15:03:36Z</time>
      </trkpt>
      <trkpt lat="40.737049" lon="0.256569">
        <ele>660.6</ele>
        <time>2020-10-10T15:03:53Z</time>
      </trkpt>
      <trkpt lat="40.737017" lon="0.256448">
        <ele>659.5</ele>
        <time>2020-10-10T15:04:04Z</time>
      </trkpt>
      <trkpt lat="40.736929" lon="0.256384">
        <ele>658.5</ele>
        <time>2020-10-10T15:04:12Z</time>
      </trkpt>
      <trkpt lat="40.736846" lon="0.256329">
        <ele>657.5</ele>
        <time>2020-10-10T15:04:20Z</time>
      </trkpt>
      <trkpt lat="40.736758" lon="0.256263">
        <ele>656.1</ele>
        <time>2020-10-10T15:04:29Z</time>
      </trkpt>
      <trkpt lat="40.736666" lon="0.256203">
        <ele>655.9</ele>
        <time>2020-10-10T15:04:36Z</time>
      </trkpt>
      <trkpt lat="40.736587" lon="0.256120">
        <ele>655.8</ele>
        <time>2020-10-10T15:04:42Z</time>
      </trkpt>
      <trkpt lat="40.736499" lon="0.256037">
        <ele>655.3</ele>
        <time>2020-10-10T15:04:49Z</time>
      </trkpt>
      <trkpt lat="40.736345" lon="0.255949">
        <ele>655.7</ele>
        <time>2020-10-10T15:04:56Z</time>
      </trkpt>
      <trkpt lat="40.736253" lon="0.255917">
        <ele>655.7</ele>
        <time>2020-10-10T15:05:01Z</time>
      </trkpt>
      <trkpt lat="40.736162" lon="0.255870">
        <ele>655.1</ele>
        <time>2020-10-10T15:05:10Z</time>
      </trkpt>
      <trkpt lat="40.736080" lon="0.255792">
        <ele>654.2</ele>
        <time>2020-10-10T15:05:17Z</time>
      </trkpt>
      <trkpt lat="40.735989" lon="0.255758">
        <ele>653.5</ele>
        <time>2020-10-10T15:05:22Z</time>
      </trkpt>
      <trkpt lat="40.735902" lon="0.255706">
        <ele>650.6</ele>
        <time>2020-10-10T15:05:39Z</time>
      </trkpt>
      <trkpt lat="40.735824" lon="0.255622">
        <ele>650.1</ele>
        <time>2020-10-10T15:05:46Z</time>
      </trkpt>
      <trkpt lat="40.735744" lon="0.255552">
        <ele>651.5</ele>
        <time>2020-10-10T15:05:55Z</time>
      </trkpt>
      <trkpt lat="40.735726" lon="0.255427">
        <ele>652.2</ele>
        <time>2020-10-10T15:06:14Z</time>
      </trkpt>
      <trkpt lat="40.735750" lon="0.255305">
        <ele>652.9</ele>
        <time>2020-10-10T15:06:20Z</time>
      </trkpt>
      <trkpt lat="40.735735" lon="0.255158">
        <ele>653.2</ele>
        <time>2020-10-10T15:06:27Z</time>
      </trkpt>
      <trkpt lat="40.735718" lon="0.255030">
        <ele>653.3</ele>
        <time>2020-10-10T15:06:40Z</time>
      </trkpt>
      <trkpt lat="40.735662" lon="0.254906">
        <ele>652.3</ele>
        <time>2020-10-10T15:07:04Z</time>
      </trkpt>
      <trkpt lat="40.735637" lon="0.254783">
        <ele>652.7</ele>
        <time>2020-10-10T15:07:09Z</time>
      </trkpt>
      <trkpt lat="40.735623" lon="0.254657">
        <ele>652.3</ele>
        <time>2020-10-10T15:07:17Z</time>
      </trkpt>
      <trkpt lat="40.735628" lon="0.254529">
        <ele>651.9</ele>
        <time>2020-10-10T15:07:31Z</time>
      </trkpt>
      <trkpt lat="40.735629" lon="0.254410">
        <ele>652.1</ele>
        <time>2020-10-10T15:07:41Z</time>
      </trkpt>
      <trkpt lat="40.735624" lon="0.254287">
        <ele>652.3</ele>
        <time>2020-10-10T15:07:47Z</time>
      </trkpt>
      <trkpt lat="40.735596" lon="0.254161">
        <ele>652.7</ele>
        <time>2020-10-10T15:07:52Z</time>
      </trkpt>
      <trkpt lat="40.735565" lon="0.254049">
        <ele>651.9</ele>
        <time>2020-10-10T15:07:57Z</time>
      </trkpt>
      <trkpt lat="40.735538" lon="0.253922">
        <ele>651.3</ele>
        <time>2020-10-10T15:08:03Z</time>
      </trkpt>
      <trkpt lat="40.735501" lon="0.253799">
        <ele>651.0</ele>
        <time>2020-10-10T15:08:09Z</time>
      </trkpt>
      <trkpt lat="40.735438" lon="0.253684">
        <ele>649.7</ele>
        <time>2020-10-10T15:08:29Z</time>
      </trkpt>
      <trkpt lat="40.735390" lon="0.253566">
        <ele>649.8</ele>
        <time>2020-10-10T15:08:36Z</time>
      </trkpt>
      <trkpt lat="40.735306" lon="0.253498">
        <ele>649.9</ele>
        <time>2020-10-10T15:08:43Z</time>
      </trkpt>
      <trkpt lat="40.735222" lon="0.253422">
        <ele>649.8</ele>
        <time>2020-10-10T15:08:51Z</time>
      </trkpt>
      <trkpt lat="40.735131" lon="0.253360">
        <ele>649.5</ele>
        <time>2020-10-10T15:08:58Z</time>
      </trkpt>
      <trkpt lat="40.735033" lon="0.253339">
        <ele>649.6</ele>
        <time>2020-10-10T15:09:11Z</time>
      </trkpt>
      <trkpt lat="40.734939" lon="0.253334">
        <ele>650.2</ele>
        <time>2020-10-10T15:09:22Z</time>
      </trkpt>
      <trkpt lat="40.734849" lon="0.253309">
        <ele>650.1</ele>
        <time>2020-10-10T15:09:33Z</time>
      </trkpt>
      <trkpt lat="40.734759" lon="0.253300">
        <ele>649.2</ele>
        <time>2020-10-10T15:09:42Z</time>
      </trkpt>
      <trkpt lat="40.734667" lon="0.253260">
        <ele>648.7</ele>
        <time>2020-10-10T15:09:52Z</time>
      </trkpt>
      <trkpt lat="40.734583" lon="0.253210">
        <ele>647.9</ele>
        <time>2020-10-10T15:09:59Z</time>
      </trkpt>
      <trkpt lat="40.734500" lon="0.253142">
        <ele>647.0</ele>
        <time>2020-10-10T15:10:06Z</time>
      </trkpt>
      <trkpt lat="40.734418" lon="0.253075">
        <ele>646.7</ele>
        <time>2020-10-10T15:10:12Z</time>
      </trkpt>
      <trkpt lat="40.734315" lon="0.253051">
        <ele>647.5</ele>
        <time>2020-10-10T15:10:22Z</time>
      </trkpt>
      <trkpt lat="40.734211" lon="0.253029">
        <ele>647.4</ele>
        <time>2020-10-10T15:10:28Z</time>
      </trkpt>
      <trkpt lat="40.734115" lon="0.252987">
        <ele>646.2</ele>
        <time>2020-10-10T15:10:37Z</time>
      </trkpt>
      <trkpt lat="40.734037" lon="0.252927">
        <ele>645.5</ele>
        <time>2020-10-10T15:10:44Z</time>
      </trkpt>
      <trkpt lat="40.733979" lon="0.252828">
        <ele>644.7</ele>
        <time>2020-10-10T15:10:54Z</time>
      </trkpt>
      <trkpt lat="40.733919" lon="0.252724">
        <ele>644.0</ele>
        <time>2020-10-10T15:11:12Z</time>
      </trkpt>
      <trkpt lat="40.733813" lon="0.252680">
        <ele>644.0</ele>
        <time>2020-10-10T15:11:19Z</time>
      </trkpt>
      <trkpt lat="40.733720" lon="0.252682">
        <ele>644.4</ele>
        <time>2020-10-10T15:11:27Z</time>
      </trkpt>
      <trkpt lat="40.733627" lon="0.252662">
        <ele>644.7</ele>
        <time>2020-10-10T15:11:33Z</time>
      </trkpt>
      <trkpt lat="40.733521" lon="0.252637">
        <ele>644.8</ele>
        <time>2020-10-10T15:11:38Z</time>
      </trkpt>
      <trkpt lat="40.733423" lon="0.252635">
        <ele>645.0</ele>
        <time>2020-10-10T15:11:44Z</time>
      </trkpt>
      <trkpt lat="40.733344" lon="0.252568">
        <ele>644.9</ele>
        <time>2020-10-10T15:11:53Z</time>
      </trkpt>
      <trkpt lat="40.733314" lon="0.252425">
        <ele>644.0</ele>
        <time>2020-10-10T15:12:06Z</time>
      </trkpt>
      <trkpt lat="40.733356" lon="0.252306">
        <ele>643.7</ele>
        <time>2020-10-10T15:12:55Z</time>
      </trkpt>
      <trkpt lat="40.733265" lon="0.252332">
        <ele>645.4</ele>
        <time>2020-10-10T15:14:42Z</time>
      </trkpt>
      <trkpt lat="40.733322" lon="0.252240">
        <ele>646.3</ele>
        <time>2020-10-10T15:16:33Z</time>
      </trkpt>
      <trkpt lat="40.733254" lon="0.252155">
        <ele>646.9</ele>
        <time>2020-10-10T15:17:15Z</time>
      </trkpt>
      <trkpt lat="40.733164" lon="0.252117">
        <ele>646.8</ele>
        <time>2020-10-10T15:17:27Z</time>
      </trkpt>
      <trkpt lat="40.733092" lon="0.252044">
        <ele>647.0</ele>
        <time>2020-10-10T15:17:38Z</time>
      </trkpt>
      <trkpt lat="40.733012" lon="0.251977">
        <ele>647.1</ele>
        <time>2020-10-10T15:17:47Z</time>
      </trkpt>
      <trkpt lat="40.732923" lon="0.251923">
        <ele>647.3</ele>
        <time>2020-10-10T15:17:58Z</time>
      </trkpt>
      <trkpt lat="40.732832" lon="0.251945">
        <ele>647.1</ele>
        <time>2020-10-10T15:18:08Z</time>
      </trkpt>
      <trkpt lat="40.732799" lon="0.251821">
        <ele>647.8</ele>
        <time>2020-10-10T15:18:22Z</time>
      </trkpt>
      <trkpt lat="40.732709" lon="0.251772">
        <ele>649.3</ele>
        <time>2020-10-10T15:18:35Z</time>
      </trkpt>
      <trkpt lat="40.732648" lon="0.251671">
        <ele>649.5</ele>
        <time>2020-10-10T15:18:43Z</time>
      </trkpt>
      <trkpt lat="40.732564" lon="0.251623">
        <ele>649.7</ele>
        <time>2020-10-10T15:18:51Z</time>
      </trkpt>
      <trkpt lat="40.732480" lon="0.251576">
        <ele>650.0</ele>
        <time>2020-10-10T15:18:58Z</time>
      </trkpt>
      <trkpt lat="40.732382" lon="0.251533">
        <ele>650.9</ele>
        <time>2020-10-10T15:19:07Z</time>
      </trkpt>
      <trkpt lat="40.732296" lon="0.251494">
        <ele>651.4</ele>
        <time>2020-10-10T15:19:17Z</time>
      </trkpt>
      <trkpt lat="40.732211" lon="0.251429">
        <ele>651.9</ele>
        <time>2020-10-10T15:19:28Z</time>
      </trkpt>
      <trkpt lat="40.732198" lon="0.251310">
        <ele>650.9</ele>
        <time>2020-10-10T15:19:38Z</time>
      </trkpt>
      <trkpt lat="40.732169" lon="0.251192">
        <ele>650.4</ele>
        <time>2020-10-10T15:19:46Z</time>
      </trkpt>
      <trkpt lat="40.732109" lon="0.251078">
        <ele>650.4</ele>
        <time>2020-10-10T15:19:54Z</time>
      </trkpt>
      <trkpt lat="40.732042" lon="0.250993">
        <ele>650.9</ele>
        <time>2020-10-10T15:20:07Z</time>
      </trkpt>
      <trkpt lat="40.731982" lon="0.250898">
        <ele>652.9</ele>
        <time>2020-10-10T15:20:30Z</time>
      </trkpt>
      <trkpt lat="40.731903" lon="0.250826">
        <ele>654.0</ele>
        <time>2020-10-10T15:20:36Z</time>
      </trkpt>
      <trkpt lat="40.731814" lon="0.250768">
        <ele>654.7</ele>
        <time>2020-10-10T15:20:41Z</time>
      </trkpt>
      <trkpt lat="40.731718" lon="0.250708">
        <ele>655.8</ele>
        <time>2020-10-10T15:20:48Z</time>
      </trkpt>
      <trkpt lat="40.731721" lon="0.250586">
        <ele>658.5</ele>
        <time>2020-10-10T15:21:08Z</time>
      </trkpt>
      <trkpt lat="40.731744" lon="0.250455">
        <ele>660.6</ele>
        <time>2020-10-10T15:21:18Z</time>
      </trkpt>
      <trkpt lat="40.731795" lon="0.250339">
        <ele>661.9</ele>
        <time>2020-10-10T15:21:24Z</time>
      </trkpt>
      <trkpt lat="40.731773" lon="0.250223">
        <ele>662.9</ele>
        <time>2020-10-10T15:21:30Z</time>
      </trkpt>
      <trkpt lat="40.731707" lon="0.250084">
        <ele>663.6</ele>
        <time>2020-10-10T15:21:38Z</time>
      </trkpt>
      <trkpt lat="40.731637" lon="0.249992">
        <ele>664.1</ele>
        <time>2020-10-10T15:21:45Z</time>
      </trkpt>
      <trkpt lat="40.731565" lon="0.249908">
        <ele>665.5</ele>
        <time>2020-10-10T15:21:50Z</time>
      </trkpt>
      <trkpt lat="40.731459" lon="0.249863">
        <ele>665.7</ele>
        <time>2020-10-10T15:21:58Z</time>
      </trkpt>
      <trkpt lat="40.731374" lon="0.249816">
        <ele>665.8</ele>
        <time>2020-10-10T15:22:04Z</time>
      </trkpt>
      <trkpt lat="40.731290" lon="0.249773">
        <ele>665.6</ele>
        <time>2020-10-10T15:22:11Z</time>
      </trkpt>
      <trkpt lat="40.731217" lon="0.249701">
        <ele>665.1</ele>
        <time>2020-10-10T15:22:18Z</time>
      </trkpt>
      <trkpt lat="40.731126" lon="0.249669">
        <ele>664.0</ele>
        <time>2020-10-10T15:22:28Z</time>
      </trkpt>
      <trkpt lat="40.731034" lon="0.249631">
        <ele>663.8</ele>
        <time>2020-10-10T15:22:36Z</time>
      </trkpt>
      <trkpt lat="40.730942" lon="0.249658">
        <ele>663.7</ele>
        <time>2020-10-10T15:22:43Z</time>
      </trkpt>
      <trkpt lat="40.730847" lon="0.249666">
        <ele>663.2</ele>
        <time>2020-10-10T15:22:51Z</time>
      </trkpt>
      <trkpt lat="40.730748" lon="0.249693">
        <ele>662.0</ele>
        <time>2020-10-10T15:23:04Z</time>
      </trkpt>
      <trkpt lat="40.730758" lon="0.249569">
        <ele>661.3</ele>
        <time>2020-10-10T15:23:21Z</time>
      </trkpt>
      <trkpt lat="40.730768" lon="0.249449">
        <ele>659.3</ele>
        <time>2020-10-10T15:23:38Z</time>
      </trkpt>
      <trkpt lat="40.730736" lon="0.249329">
        <ele>659.0</ele>
        <time>2020-10-10T15:23:48Z</time>
      </trkpt>
      <trkpt lat="40.730719" lon="0.249195">
        <ele>658.2</ele>
        <time>2020-10-10T15:24:01Z</time>
      </trkpt>
      <trkpt lat="40.730658" lon="0.249075">
        <ele>657.5</ele>
        <time>2020-10-10T15:24:07Z</time>
      </trkpt>
      <trkpt lat="40.730585" lon="0.248962">
        <ele>656.2</ele>
        <time>2020-10-10T15:24:15Z</time>
      </trkpt>
      <trkpt lat="40.730520" lon="0.248860">
        <ele>655.6</ele>
        <time>2020-10-10T15:24:20Z</time>
      </trkpt>
      <trkpt lat="40.730456" lon="0.248748">
        <ele>655.4</ele>
        <time>2020-10-10T15:24:31Z</time>
      </trkpt>
      <trkpt lat="40.730375" lon="0.248681">
        <ele>655.8</ele>
        <time>2020-10-10T15:24:39Z</time>
      </trkpt>
      <trkpt lat="40.730283" lon="0.248640">
        <ele>655.8</ele>
        <time>2020-10-10T15:24:48Z</time>
      </trkpt>
      <trkpt lat="40.730202" lon="0.248559">
        <ele>653.7</ele>
        <time>2020-10-10T15:24:59Z</time>
      </trkpt>
      <trkpt lat="40.730126" lon="0.248480">
        <ele>653.3</ele>
        <time>2020-10-10T15:25:07Z</time>
      </trkpt>
      <trkpt lat="40.730078" lon="0.248372">
        <ele>653.4</ele>
        <time>2020-10-10T15:25:14Z</time>
      </trkpt>
      <trkpt lat="40.729994" lon="0.248289">
        <ele>652.5</ele>
        <time>2020-10-10T15:25:22Z</time>
      </trkpt>
      <trkpt lat="40.729900" lon="0.248250">
        <ele>652.0</ele>
        <time>2020-10-10T15:25:27Z</time>
      </trkpt>
      <trkpt lat="40.729810" lon="0.248195">
        <ele>651.1</ele>
        <time>2020-10-10T15:25:35Z</time>
      </trkpt>
      <trkpt lat="40.729723" lon="0.248146">
        <ele>650.6</ele>
        <time>2020-10-10T15:25:45Z</time>
      </trkpt>
      <trkpt lat="40.729633" lon="0.248070">
        <ele>649.7</ele>
        <time>2020-10-10T15:25:52Z</time>
      </trkpt>
      <trkpt lat="40.729579" lon="0.247970">
        <ele>648.5</ele>
        <time>2020-10-10T15:26:00Z</time>
      </trkpt>
      <trkpt lat="40.729493" lon="0.247937">
        <ele>647.9</ele>
        <time>2020-10-10T15:26:07Z</time>
      </trkpt>
      <trkpt lat="40.729398" lon="0.247918">
        <ele>647.6</ele>
        <time>2020-10-10T15:26:14Z</time>
      </trkpt>
      <trkpt lat="40.729314" lon="0.247854">
        <ele>646.6</ele>
        <time>2020-10-10T15:26:22Z</time>
      </trkpt>
      <trkpt lat="40.729230" lon="0.247795">
        <ele>644.8</ele>
        <time>2020-10-10T15:26:35Z</time>
      </trkpt>
      <trkpt lat="40.729140" lon="0.247748">
        <ele>644.3</ele>
        <time>2020-10-10T15:26:46Z</time>
      </trkpt>
      <trkpt lat="40.729065" lon="0.247680">
        <ele>643.6</ele>
        <time>2020-10-10T15:26:53Z</time>
      </trkpt>
      <trkpt lat="40.728976" lon="0.247633">
        <ele>642.9</ele>
        <time>2020-10-10T15:27:00Z</time>
      </trkpt>
      <trkpt lat="40.728900" lon="0.247562">
        <ele>642.8</ele>
        <time>2020-10-10T15:27:09Z</time>
      </trkpt>
      <trkpt lat="40.728838" lon="0.247474">
        <ele>642.0</ele>
        <time>2020-10-10T15:27:16Z</time>
      </trkpt>
      <trkpt lat="40.728763" lon="0.247403">
        <ele>641.4</ele>
        <time>2020-10-10T15:27:25Z</time>
      </trkpt>
      <trkpt lat="40.728687" lon="0.247325">
        <ele>641.3</ele>
        <time>2020-10-10T15:27:32Z</time>
      </trkpt>
      <trkpt lat="40.728607" lon="0.247270">
        <ele>640.8</ele>
        <time>2020-10-10T15:27:40Z</time>
      </trkpt>
      <trkpt lat="40.728525" lon="0.247196">
        <ele>640.4</ele>
        <time>2020-10-10T15:27:49Z</time>
      </trkpt>
      <trkpt lat="40.728453" lon="0.247117">
        <ele>640.4</ele>
        <time>2020-10-10T15:27:58Z</time>
      </trkpt>
      <trkpt lat="40.728374" lon="0.247040">
        <ele>640.0</ele>
        <time>2020-10-10T15:28:06Z</time>
      </trkpt>
      <trkpt lat="40.728280" lon="0.246987">
        <ele>639.4</ele>
        <time>2020-10-10T15:28:14Z</time>
      </trkpt>
      <trkpt lat="40.728212" lon="0.246908">
        <ele>639.0</ele>
        <time>2020-10-10T15:28:20Z</time>
      </trkpt>
      <trkpt lat="40.728135" lon="0.246823">
        <ele>638.7</ele>
        <time>2020-10-10T15:28:26Z</time>
      </trkpt>
      <trkpt lat="40.728040" lon="0.246760">
        <ele>638.1</ele>
        <time>2020-10-10T15:28:32Z</time>
      </trkpt>
      <trkpt lat="40.727946" lon="0.246707">
        <ele>637.4</ele>
        <time>2020-10-10T15:28:39Z</time>
      </trkpt>
      <trkpt lat="40.727864" lon="0.246639">
        <ele>636.6</ele>
        <time>2020-10-10T15:28:47Z</time>
      </trkpt>
      <trkpt lat="40.727784" lon="0.246579">
        <ele>636.4</ele>
        <time>2020-10-10T15:28:53Z</time>
      </trkpt>
      <trkpt lat="40.727692" lon="0.246573">
        <ele>635.8</ele>
        <time>2020-10-10T15:29:01Z</time>
      </trkpt>
      <trkpt lat="40.727592" lon="0.246536">
        <ele>636.0</ele>
        <time>2020-10-10T15:29:07Z</time>
      </trkpt>
      <trkpt lat="40.727503" lon="0.246568">
        <ele>636.1</ele>
        <time>2020-10-10T15:29:13Z</time>
      </trkpt>
      <trkpt lat="40.727399" lon="0.246562">
        <ele>635.6</ele>
        <time>2020-10-10T15:29:21Z</time>
      </trkpt>
      <trkpt lat="40.727291" lon="0.246541">
        <ele>635.3</ele>
        <time>2020-10-10T15:29:29Z</time>
      </trkpt>
      <trkpt lat="40.727188" lon="0.246545">
        <ele>634.9</ele>
        <time>2020-10-10T15:29:39Z</time>
      </trkpt>
      <trkpt lat="40.727096" lon="0.246546">
        <ele>634.6</ele>
        <time>2020-10-10T15:29:45Z</time>
      </trkpt>
      <trkpt lat="40.727006" lon="0.246512">
        <ele>633.4</ele>
        <time>2020-10-10T15:30:00Z</time>
      </trkpt>
      <trkpt lat="40.726885" lon="0.246509">
        <ele>632.0</ele>
        <time>2020-10-10T15:30:15Z</time>
      </trkpt>
      <trkpt lat="40.726795" lon="0.246463">
        <ele>632.4</ele>
        <time>2020-10-10T15:30:20Z</time>
      </trkpt>
      <trkpt lat="40.726699" lon="0.246424">
        <ele>632.0</ele>
        <time>2020-10-10T15:30:28Z</time>
      </trkpt>
      <trkpt lat="40.726598" lon="0.246405">
        <ele>631.8</ele>
        <time>2020-10-10T15:30:35Z</time>
      </trkpt>
      <trkpt lat="40.726507" lon="0.246397">
        <ele>631.6</ele>
        <time>2020-10-10T15:30:42Z</time>
      </trkpt>
      <trkpt lat="40.726418" lon="0.246358">
        <ele>631.1</ele>
        <time>2020-10-10T15:30:49Z</time>
      </trkpt>
      <trkpt lat="40.726338" lon="0.246282">
        <ele>631.2</ele>
        <time>2020-10-10T15:31:02Z</time>
      </trkpt>
      <trkpt lat="40.726245" lon="0.246241">
        <ele>631.3</ele>
        <time>2020-10-10T15:31:13Z</time>
      </trkpt>
      <trkpt lat="40.726194" lon="0.246129">
        <ele>631.3</ele>
        <time>2020-10-10T15:31:20Z</time>
      </trkpt>
      <trkpt lat="40.726157" lon="0.246010">
        <ele>630.9</ele>
        <time>2020-10-10T15:31:27Z</time>
      </trkpt>
      <trkpt lat="40.726135" lon="0.245885">
        <ele>630.6</ele>
        <time>2020-10-10T15:31:34Z</time>
      </trkpt>
      <trkpt lat="40.726138" lon="0.245765">
        <ele>630.7</ele>
        <time>2020-10-10T15:31:42Z</time>
      </trkpt>
      <trkpt lat="40.726186" lon="0.245653">
        <ele>629.6</ele>
        <time>2020-10-10T15:32:03Z</time>
      </trkpt>
      <trkpt lat="40.726222" lon="0.245534">
        <ele>629.1</ele>
        <time>2020-10-10T15:32:11Z</time>
      </trkpt>
      <trkpt lat="40.726268" lon="0.245415">
        <ele>629.0</ele>
        <time>2020-10-10T15:32:17Z</time>
      </trkpt>
      <trkpt lat="40.726270" lon="0.245262">
        <ele>628.6</ele>
        <time>2020-10-10T15:32:24Z</time>
      </trkpt>
      <trkpt lat="40.726299" lon="0.245135">
        <ele>628.4</ele>
        <time>2020-10-10T15:32:30Z</time>
      </trkpt>
      <trkpt lat="40.726306" lon="0.245012">
        <ele>628.2</ele>
        <time>2020-10-10T15:32:36Z</time>
      </trkpt>
      <trkpt lat="40.726306" lon="0.244881">
        <ele>628.1</ele>
        <time>2020-10-10T15:32:42Z</time>
      </trkpt>
      <trkpt lat="40.726241" lon="0.244785">
        <ele>628.5</ele>
        <time>2020-10-10T15:32:51Z</time>
      </trkpt>
      <trkpt lat="40.726196" lon="0.244672">
        <ele>628.6</ele>
        <time>2020-10-10T15:33:06Z</time>
      </trkpt>
      <trkpt lat="40.726117" lon="0.244597">
        <ele>628.4</ele>
        <time>2020-10-10T15:33:16Z</time>
      </trkpt>
      <trkpt lat="40.726029" lon="0.244562">
        <ele>628.1</ele>
        <time>2020-10-10T15:33:23Z</time>
      </trkpt>
      <trkpt lat="40.725939" lon="0.244519">
        <ele>627.5</ele>
        <time>2020-10-10T15:33:32Z</time>
      </trkpt>
      <trkpt lat="40.725853" lon="0.244473">
        <ele>627.7</ele>
        <time>2020-10-10T15:33:41Z</time>
      </trkpt>
      <trkpt lat="40.725768" lon="0.244411">
        <ele>627.2</ele>
        <time>2020-10-10T15:33:50Z</time>
      </trkpt>
      <trkpt lat="40.725684" lon="0.244354">
        <ele>626.0</ele>
        <time>2020-10-10T15:33:57Z</time>
      </trkpt>
      <trkpt lat="40.725592" lon="0.244290">
        <ele>625.5</ele>
        <time>2020-10-10T15:34:03Z</time>
      </trkpt>
      <trkpt lat="40.725493" lon="0.244264">
        <ele>625.2</ele>
        <time>2020-10-10T15:34:08Z</time>
      </trkpt>
      <trkpt lat="40.725409" lon="0.244203">
        <ele>625.1</ele>
        <time>2020-10-10T15:34:12Z</time>
      </trkpt>
      <trkpt lat="40.725336" lon="0.244127">
        <ele>625.0</ele>
        <time>2020-10-10T15:34:17Z</time>
      </trkpt>
      <trkpt lat="40.725253" lon="0.244063">
        <ele>624.4</ele>
        <time>2020-10-10T15:34:22Z</time>
      </trkpt>
      <trkpt lat="40.725176" lon="0.243990">
        <ele>624.7</ele>
        <time>2020-10-10T15:34:27Z</time>
      </trkpt>
      <trkpt lat="40.725094" lon="0.243917">
        <ele>624.1</ele>
        <time>2020-10-10T15:34:33Z</time>
      </trkpt>
      <trkpt lat="40.725011" lon="0.243870">
        <ele>624.1</ele>
        <time>2020-10-10T15:34:40Z</time>
      </trkpt>
      <trkpt lat="40.724913" lon="0.243846">
        <ele>623.7</ele>
        <time>2020-10-10T15:34:51Z</time>
      </trkpt>
      <trkpt lat="40.724818" lon="0.243815">
        <ele>623.5</ele>
        <time>2020-10-10T15:34:59Z</time>
      </trkpt>
      <trkpt lat="40.724713" lon="0.243810">
        <ele>623.2</ele>
        <time>2020-10-10T15:35:07Z</time>
      </trkpt>
      <trkpt lat="40.724625" lon="0.243774">
        <ele>623.1</ele>
        <time>2020-10-10T15:35:13Z</time>
      </trkpt>
      <trkpt lat="40.724523" lon="0.243792">
        <ele>623.3</ele>
        <time>2020-10-10T15:35:19Z</time>
      </trkpt>
      <trkpt lat="40.724430" lon="0.243806">
        <ele>623.4</ele>
        <time>2020-10-10T15:35:24Z</time>
      </trkpt>
      <trkpt lat="40.724339" lon="0.243794">
        <ele>624.0</ele>
        <time>2020-10-10T15:35:31Z</time>
      </trkpt>
      <trkpt lat="40.724246" lon="0.243815">
        <ele>624.8</ele>
        <time>2020-10-10T15:35:39Z</time>
      </trkpt>
      <trkpt lat="40.724156" lon="0.243844">
        <ele>625.2</ele>
        <time>2020-10-10T15:35:47Z</time>
      </trkpt>
      <trkpt lat="40.724057" lon="0.243840">
        <ele>625.4</ele>
        <time>2020-10-10T15:35:54Z</time>
      </trkpt>
      <trkpt lat="40.723970" lon="0.243808">
        <ele>625.7</ele>
        <time>2020-10-10T15:36:16Z</time>
      </trkpt>
      <trkpt lat="40.723894" lon="0.243885">
        <ele>625.1</ele>
        <time>2020-10-10T15:36:27Z</time>
      </trkpt>
      <trkpt lat="40.723824" lon="0.243967">
        <ele>624.2</ele>
        <time>2020-10-10T15:36:36Z</time>
      </trkpt>
      <trkpt lat="40.723753" lon="0.244080">
        <ele>623.4</ele>
        <time>2020-10-10T15:36:43Z</time>
      </trkpt>
      <trkpt lat="40.723660" lon="0.244145">
        <ele>622.0</ele>
        <time>2020-10-10T15:36:49Z</time>
      </trkpt>
      <trkpt lat="40.723549" lon="0.244170">
        <ele>621.5</ele>
        <time>2020-10-10T15:36:59Z</time>
      </trkpt>
      <trkpt lat="40.723456" lon="0.244142">
        <ele>619.9</ele>
        <time>2020-10-10T15:37:14Z</time>
      </trkpt>
      <trkpt lat="40.723420" lon="0.244020">
        <ele>618.5</ele>
        <time>2020-10-10T15:37:23Z</time>
      </trkpt>
      <trkpt lat="40.723423" lon="0.243885">
        <ele>617.6</ele>
        <time>2020-10-10T15:37:33Z</time>
      </trkpt>
      <trkpt lat="40.723429" lon="0.243760">
        <ele>616.6</ele>
        <time>2020-10-10T15:37:49Z</time>
      </trkpt>
      <trkpt lat="40.723353" lon="0.243694">
        <ele>615.9</ele>
        <time>2020-10-10T15:38:03Z</time>
      </trkpt>
      <trkpt lat="40.723283" lon="0.243614">
        <ele>614.9</ele>
        <time>2020-10-10T15:38:14Z</time>
      </trkpt>
      <trkpt lat="40.723209" lon="0.243547">
        <ele>615.4</ele>
        <time>2020-10-10T15:38:21Z</time>
      </trkpt>
      <trkpt lat="40.723130" lon="0.243475">
        <ele>615.5</ele>
        <time>2020-10-10T15:38:27Z</time>
      </trkpt>
      <trkpt lat="40.723055" lon="0.243402">
        <ele>616.6</ele>
        <time>2020-10-10T15:38:41Z</time>
      </trkpt>
      <trkpt lat="40.722979" lon="0.243327">
        <ele>616.9</ele>
        <time>2020-10-10T15:38:48Z</time>
      </trkpt>
      <trkpt lat="40.722881" lon="0.243316">
        <ele>616.3</ele>
        <time>2020-10-10T15:38:57Z</time>
      </trkpt>
      <trkpt lat="40.722789" lon="0.243319">
        <ele>614.2</ele>
        <time>2020-10-10T15:39:20Z</time>
      </trkpt>
      <trkpt lat="40.722701" lon="0.243376">
        <ele>613.0</ele>
        <time>2020-10-10T15:39:28Z</time>
      </trkpt>
      <trkpt lat="40.722616" lon="0.243434">
        <ele>613.0</ele>
        <time>2020-10-10T15:39:37Z</time>
      </trkpt>
      <trkpt lat="40.722536" lon="0.243536">
        <ele>612.4</ele>
        <time>2020-10-10T15:39:46Z</time>
      </trkpt>
      <trkpt lat="40.722458" lon="0.243626">
        <ele>611.8</ele>
        <time>2020-10-10T15:39:51Z</time>
      </trkpt>
      <trkpt lat="40.722409" lon="0.243737">
        <ele>611.7</ele>
        <time>2020-10-10T15:39:57Z</time>
      </trkpt>
      <trkpt lat="40.722341" lon="0.243824">
        <ele>611.4</ele>
        <time>2020-10-10T15:40:03Z</time>
      </trkpt>
      <trkpt lat="40.722258" lon="0.243912">
        <ele>611.1</ele>
        <time>2020-10-10T15:40:09Z</time>
      </trkpt>
      <trkpt lat="40.722182" lon="0.244000">
        <ele>611.1</ele>
        <time>2020-10-10T15:40:15Z</time>
      </trkpt>
      <trkpt lat="40.722103" lon="0.244065">
        <ele>610.7</ele>
        <time>2020-10-10T15:40:21Z</time>
      </trkpt>
      <trkpt lat="40.722032" lon="0.244140">
        <ele>610.8</ele>
        <time>2020-10-10T15:40:31Z</time>
      </trkpt>
      <trkpt lat="40.721959" lon="0.244219">
        <ele>609.8</ele>
        <time>2020-10-10T15:40:42Z</time>
      </trkpt>
      <trkpt lat="40.721870" lon="0.244283">
        <ele>610.0</ele>
        <time>2020-10-10T15:40:47Z</time>
      </trkpt>
      <trkpt lat="40.721785" lon="0.244326">
        <ele>609.9</ele>
        <time>2020-10-10T15:40:53Z</time>
      </trkpt>
      <trkpt lat="40.721701" lon="0.244423">
        <ele>609.9</ele>
        <time>2020-10-10T15:40:58Z</time>
      </trkpt>
      <trkpt lat="40.721627" lon="0.244490">
        <ele>609.5</ele>
        <time>2020-10-10T15:41:10Z</time>
      </trkpt>
      <trkpt lat="40.721550" lon="0.244590">
        <ele>609.7</ele>
        <time>2020-10-10T15:41:19Z</time>
      </trkpt>
      <trkpt lat="40.721477" lon="0.244677">
        <ele>609.4</ele>
        <time>2020-10-10T15:41:26Z</time>
      </trkpt>
      <trkpt lat="40.721389" lon="0.244772">
        <ele>608.7</ele>
        <time>2020-10-10T15:41:37Z</time>
      </trkpt>
      <trkpt lat="40.721324" lon="0.244875">
        <ele>608.8</ele>
        <time>2020-10-10T15:41:44Z</time>
      </trkpt>
      <trkpt lat="40.721228" lon="0.244935">
        <ele>608.8</ele>
        <time>2020-10-10T15:41:50Z</time>
      </trkpt>
      <trkpt lat="40.721157" lon="0.245022">
        <ele>608.0</ele>
        <time>2020-10-10T15:41:58Z</time>
      </trkpt>
      <trkpt lat="40.721080" lon="0.245093">
        <ele>608.8</ele>
        <time>2020-10-10T15:42:04Z</time>
      </trkpt>
      <trkpt lat="40.721001" lon="0.245163">
        <ele>608.8</ele>
        <time>2020-10-10T15:42:08Z</time>
      </trkpt>
      <trkpt lat="40.720923" lon="0.245235">
        <ele>609.1</ele>
        <time>2020-10-10T15:42:18Z</time>
      </trkpt>
      <trkpt lat="40.720843" lon="0.245298">
        <ele>609.0</ele>
        <time>2020-10-10T15:42:28Z</time>
      </trkpt>
      <trkpt lat="40.720770" lon="0.245379">
        <ele>609.1</ele>
        <time>2020-10-10T15:42:34Z</time>
      </trkpt>
      <trkpt lat="40.720697" lon="0.245493">
        <ele>608.5</ele>
        <time>2020-10-10T15:42:48Z</time>
      </trkpt>
      <trkpt lat="40.720618" lon="0.245551">
        <ele>608.5</ele>
        <time>2020-10-10T15:42:53Z</time>
      </trkpt>
      <trkpt lat="40.720534" lon="0.245613">
        <ele>608.7</ele>
        <time>2020-10-10T15:42:59Z</time>
      </trkpt>
      <trkpt lat="40.720446" lon="0.245675">
        <ele>608.6</ele>
        <time>2020-10-10T15:43:11Z</time>
      </trkpt>
      <trkpt lat="40.720355" lon="0.245708">
        <ele>608.6</ele>
        <time>2020-10-10T15:43:16Z</time>
      </trkpt>
      <trkpt lat="40.720268" lon="0.245760">
        <ele>608.9</ele>
        <time>2020-10-10T15:43:24Z</time>
      </trkpt>
      <trkpt lat="40.720184" lon="0.245837">
        <ele>609.3</ele>
        <time>2020-10-10T15:43:35Z</time>
      </trkpt>
      <trkpt lat="40.720105" lon="0.245916">
        <ele>610.1</ele>
        <time>2020-10-10T15:43:42Z</time>
      </trkpt>
      <trkpt lat="40.720051" lon="0.246058">
        <ele>610.6</ele>
        <time>2020-10-10T15:43:55Z</time>
      </trkpt>
      <trkpt lat="40.720034" lon="0.246178">
        <ele>610.6</ele>
        <time>2020-10-10T15:44:01Z</time>
      </trkpt>
      <trkpt lat="40.720032" lon="0.246298">
        <ele>611.0</ele>
        <time>2020-10-10T15:44:09Z</time>
      </trkpt>
      <trkpt lat="40.720068" lon="0.246434">
        <ele>611.7</ele>
        <time>2020-10-10T15:44:16Z</time>
      </trkpt>
      <trkpt lat="40.720104" lon="0.246552">
        <ele>612.1</ele>
        <time>2020-10-10T15:44:25Z</time>
      </trkpt>
      <trkpt lat="40.720109" lon="0.246672">
        <ele>612.6</ele>
        <time>2020-10-10T15:44:34Z</time>
      </trkpt>
      <trkpt lat="40.720134" lon="0.246797">
        <ele>612.8</ele>
        <time>2020-10-10T15:44:43Z</time>
      </trkpt>
      <trkpt lat="40.720146" lon="0.246918">
        <ele>613.0</ele>
        <time>2020-10-10T15:44:53Z</time>
      </trkpt>
      <trkpt lat="40.720195" lon="0.247022">
        <ele>613.6</ele>
        <time>2020-10-10T15:45:01Z</time>
      </trkpt>
      <trkpt lat="40.720238" lon="0.247148">
        <ele>613.9</ele>
        <time>2020-10-10T15:45:11Z</time>
      </trkpt>
      <trkpt lat="40.720247" lon="0.247271">
        <ele>614.8</ele>
        <time>2020-10-10T15:45:25Z</time>
      </trkpt>
      <trkpt lat="40.720156" lon="0.247319">
        <ele>614.4</ele>
        <time>2020-10-10T15:45:35Z</time>
      </trkpt>
      <trkpt lat="40.720062" lon="0.247318">
        <ele>614.4</ele>
        <time>2020-10-10T15:45:46Z</time>
      </trkpt>
      <trkpt lat="40.719949" lon="0.247340">
        <ele>614.0</ele>
        <time>2020-10-10T15:45:53Z</time>
      </trkpt>
      <trkpt lat="40.719857" lon="0.247346">
        <ele>615.1</ele>
        <time>2020-10-10T15:46:03Z</time>
      </trkpt>
      <trkpt lat="40.719766" lon="0.247332">
        <ele>615.2</ele>
        <time>2020-10-10T15:46:16Z</time>
      </trkpt>
      <trkpt lat="40.719663" lon="0.247311">
        <ele>615.5</ele>
        <time>2020-10-10T15:46:27Z</time>
      </trkpt>
      <trkpt lat="40.719563" lon="0.247290">
        <ele>615.7</ele>
        <time>2020-10-10T15:46:34Z</time>
      </trkpt>
      <trkpt lat="40.719470" lon="0.247246">
        <ele>616.1</ele>
        <time>2020-10-10T15:46:40Z</time>
      </trkpt>
      <trkpt lat="40.719375" lon="0.247204">
        <ele>616.1</ele>
        <time>2020-10-10T15:46:46Z</time>
      </trkpt>
      <trkpt lat="40.719295" lon="0.247147">
        <ele>616.4</ele>
        <time>2020-10-10T15:46:52Z</time>
      </trkpt>
      <trkpt lat="40.719244" lon="0.247049">
        <ele>616.7</ele>
        <time>2020-10-10T15:47:05Z</time>
      </trkpt>
      <trkpt lat="40.719227" lon="0.246913">
        <ele>617.3</ele>
        <time>2020-10-10T15:47:14Z</time>
      </trkpt>
      <trkpt lat="40.719211" lon="0.246786">
        <ele>617.5</ele>
        <time>2020-10-10T15:47:20Z</time>
      </trkpt>
      <trkpt lat="40.719179" lon="0.246674">
        <ele>617.8</ele>
        <time>2020-10-10T15:47:27Z</time>
      </trkpt>
      <trkpt lat="40.719082" lon="0.246638">
        <ele>619.0</ele>
        <time>2020-10-10T15:47:36Z</time>
      </trkpt>
      <trkpt lat="40.718980" lon="0.246602">
        <ele>619.6</ele>
        <time>2020-10-10T15:47:42Z</time>
      </trkpt>
      <trkpt lat="40.718927" lon="0.246494">
        <ele>620.4</ele>
        <time>2020-10-10T15:47:51Z</time>
      </trkpt>
      <trkpt lat="40.718845" lon="0.246391">
        <ele>621.3</ele>
        <time>2020-10-10T15:48:02Z</time>
      </trkpt>
      <trkpt lat="40.718799" lon="0.246274">
        <ele>621.9</ele>
        <time>2020-10-10T15:48:10Z</time>
      </trkpt>
      <trkpt lat="40.718726" lon="0.246194">
        <ele>622.9</ele>
        <time>2020-10-10T15:48:20Z</time>
      </trkpt>
      <trkpt lat="40.718620" lon="0.246147">
        <ele>622.9</ele>
        <time>2020-10-10T15:48:28Z</time>
      </trkpt>
      <trkpt lat="40.718526" lon="0.246124">
        <ele>623.2</ele>
        <time>2020-10-10T15:48:33Z</time>
      </trkpt>
      <trkpt lat="40.718439" lon="0.246090">
        <ele>623.9</ele>
        <time>2020-10-10T15:48:43Z</time>
      </trkpt>
      <trkpt lat="40.718395" lon="0.246197">
        <ele>624.2</ele>
        <time>2020-10-10T15:48:50Z</time>
      </trkpt>
      <trkpt lat="40.718335" lon="0.246294">
        <ele>625.0</ele>
        <time>2020-10-10T15:49:01Z</time>
      </trkpt>
      <trkpt lat="40.718277" lon="0.246397">
        <ele>626.2</ele>
        <time>2020-10-10T15:49:13Z</time>
      </trkpt>
      <trkpt lat="40.718185" lon="0.246404">
        <ele>626.1</ele>
        <time>2020-10-10T15:49:20Z</time>
      </trkpt>
      <trkpt lat="40.718102" lon="0.246350">
        <ele>626.0</ele>
        <time>2020-10-10T15:49:27Z</time>
      </trkpt>
      <trkpt lat="40.718042" lon="0.246249">
        <ele>626.0</ele>
        <time>2020-10-10T15:49:36Z</time>
      </trkpt>
      <trkpt lat="40.717965" lon="0.246186">
        <ele>626.1</ele>
        <time>2020-10-10T15:49:44Z</time>
      </trkpt>
      <trkpt lat="40.717880" lon="0.246147">
        <ele>626.2</ele>
        <time>2020-10-10T15:50:00Z</time>
      </trkpt>
      <trkpt lat="40.717789" lon="0.246216">
        <ele>626.9</ele>
        <time>2020-10-10T15:50:06Z</time>
      </trkpt>
      <trkpt lat="40.717694" lon="0.246257">
        <ele>626.7</ele>
        <time>2020-10-10T15:50:18Z</time>
      </trkpt>
      <trkpt lat="40.717604" lon="0.246224">
        <ele>626.9</ele>
        <time>2020-10-10T15:50:27Z</time>
      </trkpt>
      <trkpt lat="40.717508" lon="0.246219">
        <ele>627.2</ele>
        <time>2020-10-10T15:50:34Z</time>
      </trkpt>
      <trkpt lat="40.717391" lon="0.246279">
        <ele>627.6</ele>
        <time>2020-10-10T15:50:44Z</time>
      </trkpt>
      <trkpt lat="40.717290" lon="0.246324">
        <ele>628.0</ele>
        <time>2020-10-10T15:50:50Z</time>
      </trkpt>
      <trkpt lat="40.717199" lon="0.246330">
        <ele>628.6</ele>
        <time>2020-10-10T15:50:58Z</time>
      </trkpt>
      <trkpt lat="40.717109" lon="0.246341">
        <ele>629.1</ele>
        <time>2020-10-10T15:51:08Z</time>
      </trkpt>
      <trkpt lat="40.717004" lon="0.246365">
        <ele>629.3</ele>
        <time>2020-10-10T15:51:15Z</time>
      </trkpt>
      <trkpt lat="40.716914" lon="0.246360">
        <ele>629.6</ele>
        <time>2020-10-10T15:51:25Z</time>
      </trkpt>
      <trkpt lat="40.716817" lon="0.246362">
        <ele>630.0</ele>
        <time>2020-10-10T15:51:32Z</time>
      </trkpt>
      <trkpt lat="40.716725" lon="0.246346">
        <ele>630.6</ele>
        <time>2020-10-10T15:51:41Z</time>
      </trkpt>
      <trkpt lat="40.716689" lon="0.246233">
        <ele>630.9</ele>
        <time>2020-10-10T15:51:59Z</time>
      </trkpt>
      <trkpt lat="40.716722" lon="0.246113">
        <ele>630.3</ele>
        <time>2020-10-10T15:52:12Z</time>
      </trkpt>
      <trkpt lat="40.716688" lon="0.245986">
        <ele>630.3</ele>
        <time>2020-10-10T15:52:21Z</time>
      </trkpt>
      <trkpt lat="40.716681" lon="0.245867">
        <ele>630.5</ele>
        <time>2020-10-10T15:52:27Z</time>
      </trkpt>
      <trkpt lat="40.716627" lon="0.245751">
        <ele>630.3</ele>
        <time>2020-10-10T15:52:35Z</time>
      </trkpt>
      <trkpt lat="40.716567" lon="0.245662">
        <ele>630.7</ele>
        <time>2020-10-10T15:52:41Z</time>
      </trkpt>
      <trkpt lat="40.716531" lon="0.245545">
        <ele>631.1</ele>
        <time>2020-10-10T15:52:51Z</time>
      </trkpt>
      <trkpt lat="40.716490" lon="0.245422">
        <ele>631.4</ele>
        <time>2020-10-10T15:52:58Z</time>
      </trkpt>
      <trkpt lat="40.716460" lon="0.245310">
        <ele>631.6</ele>
        <time>2020-10-10T15:53:05Z</time>
      </trkpt>
      <trkpt lat="40.716437" lon="0.245181">
        <ele>632.2</ele>
        <time>2020-10-10T15:53:15Z</time>
      </trkpt>
      <trkpt lat="40.716446" lon="0.245048">
        <ele>633.1</ele>
        <time>2020-10-10T15:53:25Z</time>
      </trkpt>
      <trkpt lat="40.716442" lon="0.244914">
        <ele>633.2</ele>
        <time>2020-10-10T15:53:32Z</time>
      </trkpt>
      <trkpt lat="40.716414" lon="0.244788">
        <ele>633.7</ele>
        <time>2020-10-10T15:53:40Z</time>
      </trkpt>
      <trkpt lat="40.716333" lon="0.244729">
        <ele>634.2</ele>
        <time>2020-10-10T15:53:47Z</time>
      </trkpt>
      <trkpt lat="40.716359" lon="0.244606">
        <ele>634.9</ele>
        <time>2020-10-10T15:53:53Z</time>
      </trkpt>
      <trkpt lat="40.716330" lon="0.244470">
        <ele>635.3</ele>
        <time>2020-10-10T15:54:00Z</time>
      </trkpt>
      <trkpt lat="40.716288" lon="0.244339">
        <ele>635.5</ele>
        <time>2020-10-10T15:54:06Z</time>
      </trkpt>
      <trkpt lat="40.716242" lon="0.244225">
        <ele>635.7</ele>
        <time>2020-10-10T15:54:12Z</time>
      </trkpt>
      <trkpt lat="40.716160" lon="0.244161">
        <ele>636.0</ele>
        <time>2020-10-10T15:54:20Z</time>
      </trkpt>
      <trkpt lat="40.716068" lon="0.244147">
        <ele>636.1</ele>
        <time>2020-10-10T15:54:32Z</time>
      </trkpt>
      <trkpt lat="40.715974" lon="0.244167">
        <ele>636.3</ele>
        <time>2020-10-10T15:54:37Z</time>
      </trkpt>
      <trkpt lat="40.715880" lon="0.244166">
        <ele>636.7</ele>
        <time>2020-10-10T15:54:44Z</time>
      </trkpt>
      <trkpt lat="40.715797" lon="0.244100">
        <ele>636.8</ele>
        <time>2020-10-10T15:54:52Z</time>
      </trkpt>
      <trkpt lat="40.715721" lon="0.244024">
        <ele>636.2</ele>
        <time>2020-10-10T15:54:59Z</time>
      </trkpt>
      <trkpt lat="40.715665" lon="0.243924">
        <ele>635.6</ele>
        <time>2020-10-10T15:55:13Z</time>
      </trkpt>
      <trkpt lat="40.715571" lon="0.243880">
        <ele>635.3</ele>
        <time>2020-10-10T15:55:23Z</time>
      </trkpt>
      <trkpt lat="40.715487" lon="0.243836">
        <ele>634.8</ele>
        <time>2020-10-10T15:55:28Z</time>
      </trkpt>
      <trkpt lat="40.715406" lon="0.243776">
        <ele>634.7</ele>
        <time>2020-10-10T15:55:35Z</time>
      </trkpt>
      <trkpt lat="40.715314" lon="0.243746">
        <ele>634.2</ele>
        <time>2020-10-10T15:55:41Z</time>
      </trkpt>
      <trkpt lat="40.715230" lon="0.243691">
        <ele>633.9</ele>
        <time>2020-10-10T15:55:47Z</time>
      </trkpt>
      <trkpt lat="40.715177" lon="0.243576">
        <ele>633.5</ele>
        <time>2020-10-10T15:55:54Z</time>
      </trkpt>
      <trkpt lat="40.715080" lon="0.243643">
        <ele>632.8</ele>
        <time>2020-10-10T15:56:13Z</time>
      </trkpt>
      <trkpt lat="40.715022" lon="0.243742">
        <ele>631.8</ele>
        <time>2020-10-10T15:56:39Z</time>
      </trkpt>
      <trkpt lat="40.714952" lon="0.243827">
        <ele>631.6</ele>
        <time>2020-10-10T15:56:45Z</time>
      </trkpt>
      <trkpt lat="40.714879" lon="0.243903">
        <ele>631.2</ele>
        <time>2020-10-10T15:56:50Z</time>
      </trkpt>
      <trkpt lat="40.714816" lon="0.243995">
        <ele>630.4</ele>
        <time>2020-10-10T15:57:01Z</time>
      </trkpt>
      <trkpt lat="40.714742" lon="0.244064">
        <ele>629.6</ele>
        <time>2020-10-10T15:57:09Z</time>
      </trkpt>
      <trkpt lat="40.714645" lon="0.244092">
        <ele>629.1</ele>
        <time>2020-10-10T15:57:17Z</time>
      </trkpt>
      <trkpt lat="40.714547" lon="0.244102">
        <ele>628.5</ele>
        <time>2020-10-10T15:57:32Z</time>
      </trkpt>
      <trkpt lat="40.714448" lon="0.244071">
        <ele>628.1</ele>
        <time>2020-10-10T15:57:39Z</time>
      </trkpt>
      <trkpt lat="40.714362" lon="0.244021">
        <ele>628.2</ele>
        <time>2020-10-10T15:57:48Z</time>
      </trkpt>
      <trkpt lat="40.714264" lon="0.244018">
        <ele>627.3</ele>
        <time>2020-10-10T15:58:01Z</time>
      </trkpt>
      <trkpt lat="40.714170" lon="0.244073">
        <ele>626.9</ele>
        <time>2020-10-10T15:58:10Z</time>
      </trkpt>
      <trkpt lat="40.714083" lon="0.244110">
        <ele>626.6</ele>
        <time>2020-10-10T15:58:17Z</time>
      </trkpt>
      <trkpt lat="40.714000" lon="0.244159">
        <ele>626.2</ele>
        <time>2020-10-10T15:58:31Z</time>
      </trkpt>
      <trkpt lat="40.713923" lon="0.244228">
        <ele>626.4</ele>
        <time>2020-10-10T15:58:38Z</time>
      </trkpt>
      <trkpt lat="40.713840" lon="0.244278">
        <ele>626.2</ele>
        <time>2020-10-10T15:58:47Z</time>
      </trkpt>
      <trkpt lat="40.713745" lon="0.244292">
        <ele>625.6</ele>
        <time>2020-10-10T15:58:53Z</time>
      </trkpt>
      <trkpt lat="40.713650" lon="0.244282">
        <ele>625.5</ele>
        <time>2020-10-10T15:59:01Z</time>
      </trkpt>
      <trkpt lat="40.713532" lon="0.244305">
        <ele>625.0</ele>
        <time>2020-10-10T15:59:10Z</time>
      </trkpt>
      <trkpt lat="40.713436" lon="0.244298">
        <ele>624.5</ele>
        <time>2020-10-10T15:59:19Z</time>
      </trkpt>
      <trkpt lat="40.713344" lon="0.244264">
        <ele>624.3</ele>
        <time>2020-10-10T15:59:26Z</time>
      </trkpt>
      <trkpt lat="40.713240" lon="0.244237">
        <ele>624.3</ele>
        <time>2020-10-10T15:59:32Z</time>
      </trkpt>
      <trkpt lat="40.713165" lon="0.244146">
        <ele>623.4</ele>
        <time>2020-10-10T15:59:38Z</time>
      </trkpt>
      <trkpt lat="40.713075" lon="0.244065">
        <ele>621.3</ele>
        <time>2020-10-10T16:00:04Z</time>
      </trkpt>
      <trkpt lat="40.713042" lon="0.243948">
        <ele>620.5</ele>
        <time>2020-10-10T16:00:08Z</time>
      </trkpt>
      <trkpt lat="40.712993" lon="0.243844">
        <ele>619.2</ele>
        <time>2020-10-10T16:00:19Z</time>
      </trkpt>
      <trkpt lat="40.712905" lon="0.243800">
        <ele>618.8</ele>
        <time>2020-10-10T16:00:25Z</time>
      </trkpt>
      <trkpt lat="40.712861" lon="0.243660">
        <ele>619.8</ele>
        <time>2020-10-10T16:01:18Z</time>
      </trkpt>
      <trkpt lat="40.712844" lon="0.243543">
        <ele>619.6</ele>
        <time>2020-10-10T16:01:28Z</time>
      </trkpt>
      <trkpt lat="40.712818" lon="0.243420">
        <ele>618.6</ele>
        <time>2020-10-10T16:01:37Z</time>
      </trkpt>
      <trkpt lat="40.712757" lon="0.243313">
        <ele>616.7</ele>
        <time>2020-10-10T16:01:51Z</time>
      </trkpt>
      <trkpt lat="40.712711" lon="0.243204">
        <ele>616.3</ele>
        <time>2020-10-10T16:01:59Z</time>
      </trkpt>
      <trkpt lat="40.712734" lon="0.243082">
        <ele>615.4</ele>
        <time>2020-10-10T16:02:07Z</time>
      </trkpt>
      <trkpt lat="40.712735" lon="0.242960">
        <ele>614.2</ele>
        <time>2020-10-10T16:02:15Z</time>
      </trkpt>
      <trkpt lat="40.712731" lon="0.242835">
        <ele>613.8</ele>
        <time>2020-10-10T16:02:24Z</time>
      </trkpt>
      <trkpt lat="40.712744" lon="0.242704">
        <ele>613.1</ele>
        <time>2020-10-10T16:02:31Z</time>
      </trkpt>
      <trkpt lat="40.712788" lon="0.242587">
        <ele>611.7</ele>
        <time>2020-10-10T16:02:44Z</time>
      </trkpt>
      <trkpt lat="40.712802" lon="0.242461">
        <ele>610.2</ele>
        <time>2020-10-10T16:02:55Z</time>
      </trkpt>
      <trkpt lat="40.712824" lon="0.242341">
        <ele>609.4</ele>
        <time>2020-10-10T16:03:03Z</time>
      </trkpt>
      <trkpt lat="40.712880" lon="0.242236">
        <ele>608.4</ele>
        <time>2020-10-10T16:03:12Z</time>
      </trkpt>
      <trkpt lat="40.712811" lon="0.242125">
        <ele>607.8</ele>
        <time>2020-10-10T16:03:21Z</time>
      </trkpt>
      <trkpt lat="40.712774" lon="0.242005">
        <ele>608.2</ele>
        <time>2020-10-10T16:03:31Z</time>
      </trkpt>
      <trkpt lat="40.712690" lon="0.241925">
        <ele>608.0</ele>
        <time>2020-10-10T16:03:37Z</time>
      </trkpt>
      <trkpt lat="40.712622" lon="0.241841">
        <ele>608.9</ele>
        <time>2020-10-10T16:03:46Z</time>
      </trkpt>
      <trkpt lat="40.712616" lon="0.241722">
        <ele>607.9</ele>
        <time>2020-10-10T16:04:01Z</time>
      </trkpt>
      <trkpt lat="40.712614" lon="0.241600">
        <ele>606.9</ele>
        <time>2020-10-10T16:04:10Z</time>
      </trkpt>
      <trkpt lat="40.712576" lon="0.241473">
        <ele>606.6</ele>
        <time>2020-10-10T16:04:19Z</time>
      </trkpt>
      <trkpt lat="40.712559" lon="0.241345">
        <ele>606.1</ele>
        <time>2020-10-10T16:04:25Z</time>
      </trkpt>
      <trkpt lat="40.712617" lon="0.241226">
        <ele>605.5</ele>
        <time>2020-10-10T16:04:30Z</time>
      </trkpt>
      <trkpt lat="40.712602" lon="0.241103">
        <ele>605.3</ele>
        <time>2020-10-10T16:04:40Z</time>
      </trkpt>
      <trkpt lat="40.712533" lon="0.241022">
        <ele>605.7</ele>
        <time>2020-10-10T16:04:46Z</time>
      </trkpt>
      <trkpt lat="40.712510" lon="0.240904">
        <ele>605.6</ele>
        <time>2020-10-10T16:04:55Z</time>
      </trkpt>
      <trkpt lat="40.712484" lon="0.240781">
        <ele>605.4</ele>
        <time>2020-10-10T16:05:02Z</time>
      </trkpt>
      <trkpt lat="40.712494" lon="0.240645">
        <ele>605.4</ele>
        <time>2020-10-10T16:05:09Z</time>
      </trkpt>
      <trkpt lat="40.712486" lon="0.240525">
        <ele>605.3</ele>
        <time>2020-10-10T16:05:17Z</time>
      </trkpt>
      <trkpt lat="40.712407" lon="0.240446">
        <ele>605.6</ele>
        <time>2020-10-10T16:05:26Z</time>
      </trkpt>
      <trkpt lat="40.712317" lon="0.240423">
        <ele>605.7</ele>
        <time>2020-10-10T16:05:33Z</time>
      </trkpt>
      <trkpt lat="40.712240" lon="0.240333">
        <ele>608.8</ele>
        <time>2020-10-10T16:05:45Z</time>
      </trkpt>
      <trkpt lat="40.712209" lon="0.240212">
        <ele>609.0</ele>
        <time>2020-10-10T16:05:53Z</time>
      </trkpt>
      <trkpt lat="40.712186" lon="0.240096">
        <ele>606.9</ele>
        <time>2020-10-10T16:06:00Z</time>
      </trkpt>
      <trkpt lat="40.712136" lon="0.239987">
        <ele>604.6</ele>
        <time>2020-10-10T16:06:07Z</time>
      </trkpt>
      <trkpt lat="40.712105" lon="0.239869">
        <ele>602.0</ele>
        <time>2020-10-10T16:06:25Z</time>
      </trkpt>
      <trkpt lat="40.712021" lon="0.239797">
        <ele>601.7</ele>
        <time>2020-10-10T16:06:36Z</time>
      </trkpt>
      <trkpt lat="40.711948" lon="0.239700">
        <ele>600.2</ele>
        <time>2020-10-10T16:06:45Z</time>
      </trkpt>
      <trkpt lat="40.711875" lon="0.239620">
        <ele>599.4</ele>
        <time>2020-10-10T16:06:51Z</time>
      </trkpt>
      <trkpt lat="40.711800" lon="0.239527">
        <ele>598.2</ele>
        <time>2020-10-10T16:06:57Z</time>
      </trkpt>
      <trkpt lat="40.711748" lon="0.239426">
        <ele>597.8</ele>
        <time>2020-10-10T16:07:05Z</time>
      </trkpt>
      <trkpt lat="40.711711" lon="0.239315">
        <ele>595.3</ele>
        <time>2020-10-10T16:07:26Z</time>
      </trkpt>
      <trkpt lat="40.711672" lon="0.239201">
        <ele>594.8</ele>
        <time>2020-10-10T16:07:36Z</time>
      </trkpt>
      <trkpt lat="40.711617" lon="0.239107">
        <ele>594.4</ele>
        <time>2020-10-10T16:07:45Z</time>
      </trkpt>
      <trkpt lat="40.711592" lon="0.238990">
        <ele>593.3</ele>
        <time>2020-10-10T16:07:54Z</time>
      </trkpt>
      <trkpt lat="40.711601" lon="0.238867">
        <ele>593.0</ele>
        <time>2020-10-10T16:08:05Z</time>
      </trkpt>
      <trkpt lat="40.711659" lon="0.238756">
        <ele>592.2</ele>
        <time>2020-10-10T16:08:15Z</time>
      </trkpt>
      <trkpt lat="40.711705" lon="0.238646">
        <ele>591.2</ele>
        <time>2020-10-10T16:08:26Z</time>
      </trkpt>
      <trkpt lat="40.711769" lon="0.238551">
        <ele>590.0</ele>
        <time>2020-10-10T16:08:40Z</time>
      </trkpt>
      <trkpt lat="40.711844" lon="0.238475">
        <ele>589.8</ele>
        <time>2020-10-10T16:08:43Z</time>
      </trkpt>
      <trkpt lat="40.711917" lon="0.238400">
        <ele>588.9</ele>
        <time>2020-10-10T16:08:53Z</time>
      </trkpt>
      <trkpt lat="40.711971" lon="0.238304">
        <ele>589.5</ele>
        <time>2020-10-10T16:09:30Z</time>
      </trkpt>
      <trkpt lat="40.712061" lon="0.238238">
        <ele>589.0</ele>
        <time>2020-10-10T16:09:37Z</time>
      </trkpt>
      <trkpt lat="40.712106" lon="0.238127">
        <ele>589.0</ele>
        <time>2020-10-10T16:09:44Z</time>
      </trkpt>
      <trkpt lat="40.712123" lon="0.238009">
        <ele>589.1</ele>
        <time>2020-10-10T16:09:51Z</time>
      </trkpt>
      <trkpt lat="40.712098" lon="0.237884">
        <ele>589.0</ele>
        <time>2020-10-10T16:09:59Z</time>
      </trkpt>
      <trkpt lat="40.712052" lon="0.237773">
        <ele>589.1</ele>
        <time>2020-10-10T16:10:06Z</time>
      </trkpt>
      <trkpt lat="40.712011" lon="0.237653">
        <ele>589.1</ele>
        <time>2020-10-10T16:10:13Z</time>
      </trkpt>
      <trkpt lat="40.712036" lon="0.237534">
        <ele>589.1</ele>
        <time>2020-10-10T16:10:17Z</time>
      </trkpt>
      <trkpt lat="40.711999" lon="0.237418">
        <ele>588.5</ele>
        <time>2020-10-10T16:10:23Z</time>
      </trkpt>
      <trkpt lat="40.711941" lon="0.237318">
        <ele>588.1</ele>
        <time>2020-10-10T16:10:30Z</time>
      </trkpt>
      <trkpt lat="40.711859" lon="0.237262">
        <ele>587.7</ele>
        <time>2020-10-10T16:10:37Z</time>
      </trkpt>
      <trkpt lat="40.711779" lon="0.237207">
        <ele>586.9</ele>
        <time>2020-10-10T16:10:42Z</time>
      </trkpt>
      <trkpt lat="40.711726" lon="0.237100">
        <ele>586.1</ele>
        <time>2020-10-10T16:10:56Z</time>
      </trkpt>
      <trkpt lat="40.711627" lon="0.237072">
        <ele>585.8</ele>
        <time>2020-10-10T16:11:03Z</time>
      </trkpt>
      <trkpt lat="40.711551" lon="0.236998">
        <ele>585.0</ele>
        <time>2020-10-10T16:11:11Z</time>
      </trkpt>
      <trkpt lat="40.711454" lon="0.236954">
        <ele>584.4</ele>
        <time>2020-10-10T16:11:21Z</time>
      </trkpt>
      <trkpt lat="40.711357" lon="0.236938">
        <ele>584.0</ele>
        <time>2020-10-10T16:11:29Z</time>
      </trkpt>
      <trkpt lat="40.711251" lon="0.236937">
        <ele>583.8</ele>
        <time>2020-10-10T16:11:42Z</time>
      </trkpt>
      <trkpt lat="40.711154" lon="0.236969">
        <ele>584.0</ele>
        <time>2020-10-10T16:11:52Z</time>
      </trkpt>
      <trkpt lat="40.711079" lon="0.236893">
        <ele>584.4</ele>
        <time>2020-10-10T16:12:03Z</time>
      </trkpt>
      <trkpt lat="40.710984" lon="0.236866">
        <ele>584.7</ele>
        <time>2020-10-10T16:12:07Z</time>
      </trkpt>
      <trkpt lat="40.710911" lon="0.236783">
        <ele>584.8</ele>
        <time>2020-10-10T16:12:14Z</time>
      </trkpt>
      <trkpt lat="40.710809" lon="0.236769">
        <ele>584.9</ele>
        <time>2020-10-10T16:12:56Z</time>
      </trkpt>
      <trkpt lat="40.710730" lon="0.236829">
        <ele>584.8</ele>
        <time>2020-10-10T16:13:04Z</time>
      </trkpt>
      <trkpt lat="40.710613" lon="0.236833">
        <ele>584.6</ele>
        <time>2020-10-10T16:13:11Z</time>
      </trkpt>
      <trkpt lat="40.710519" lon="0.236865">
        <ele>584.6</ele>
        <time>2020-10-10T16:13:14Z</time>
      </trkpt>
      <trkpt lat="40.710392" lon="0.236898">
        <ele>584.6</ele>
        <time>2020-10-10T16:13:20Z</time>
      </trkpt>
      <trkpt lat="40.710294" lon="0.236910">
        <ele>584.5</ele>
        <time>2020-10-10T16:13:24Z</time>
      </trkpt>
      <trkpt lat="40.710196" lon="0.236900">
        <ele>584.5</ele>
        <time>2020-10-10T16:13:28Z</time>
      </trkpt>
      <trkpt lat="40.710079" lon="0.236914">
        <ele>584.6</ele>
        <time>2020-10-10T16:13:32Z</time>
      </trkpt>
      <trkpt lat="40.709980" lon="0.236927">
        <ele>584.6</ele>
        <time>2020-10-10T16:13:40Z</time>
      </trkpt>
      <trkpt lat="40.709906" lon="0.236853">
        <ele>584.1</ele>
        <time>2020-10-10T16:13:55Z</time>
      </trkpt>
      <trkpt lat="40.709826" lon="0.236789">
        <ele>582.9</ele>
        <time>2020-10-10T16:14:11Z</time>
      </trkpt>
      <trkpt lat="40.709727" lon="0.236754">
        <ele>582.0</ele>
        <time>2020-10-10T16:14:22Z</time>
      </trkpt>
      <trkpt lat="40.709660" lon="0.236643">
        <ele>582.3</ele>
        <time>2020-10-10T16:14:29Z</time>
      </trkpt>
      <trkpt lat="40.709537" lon="0.236629">
        <ele>582.1</ele>
        <time>2020-10-10T16:14:35Z</time>
      </trkpt>
      <trkpt lat="40.709433" lon="0.236605">
        <ele>582.4</ele>
        <time>2020-10-10T16:14:40Z</time>
      </trkpt>
      <trkpt lat="40.709322" lon="0.236590">
        <ele>582.5</ele>
        <time>2020-10-10T16:14:46Z</time>
      </trkpt>
      <trkpt lat="40.709223" lon="0.236589">
        <ele>582.5</ele>
        <time>2020-10-10T16:14:53Z</time>
      </trkpt>
      <trkpt lat="40.709121" lon="0.236571">
        <ele>583.4</ele>
        <time>2020-10-10T16:15:00Z</time>
      </trkpt>
      <trkpt lat="40.709022" lon="0.236582">
        <ele>584.2</ele>
        <time>2020-10-10T16:15:09Z</time>
      </trkpt>
      <trkpt lat="40.708920" lon="0.236565">
        <ele>584.8</ele>
        <time>2020-10-10T16:15:17Z</time>
      </trkpt>
      <trkpt lat="40.708817" lon="0.236569">
        <ele>585.4</ele>
        <time>2020-10-10T16:15:24Z</time>
      </trkpt>
      <trkpt lat="40.708713" lon="0.236563">
        <ele>586.0</ele>
        <time>2020-10-10T16:15:35Z</time>
      </trkpt>
      <trkpt lat="40.708614" lon="0.236573">
        <ele>586.2</ele>
        <time>2020-10-10T16:15:43Z</time>
      </trkpt>
      <trkpt lat="40.708547" lon="0.236483">
        <ele>585.2</ele>
        <time>2020-10-10T16:15:59Z</time>
      </trkpt>
      <trkpt lat="40.708462" lon="0.236422">
        <ele>585.3</ele>
        <time>2020-10-10T16:16:07Z</time>
      </trkpt>
      <trkpt lat="40.708351" lon="0.236377">
        <ele>585.0</ele>
        <time>2020-10-10T16:16:12Z</time>
      </trkpt>
      <trkpt lat="40.708254" lon="0.236324">
        <ele>584.3</ele>
        <time>2020-10-10T16:16:17Z</time>
      </trkpt>
      <trkpt lat="40.708180" lon="0.236239">
        <ele>584.0</ele>
        <time>2020-10-10T16:16:24Z</time>
      </trkpt>
      <trkpt lat="40.708053" lon="0.236174">
        <ele>582.0</ele>
        <time>2020-10-10T16:16:33Z</time>
      </trkpt>
      <trkpt lat="40.707948" lon="0.236115">
        <ele>582.0</ele>
        <time>2020-10-10T16:16:42Z</time>
      </trkpt>
      <trkpt lat="40.707867" lon="0.236052">
        <ele>581.0</ele>
        <time>2020-10-10T16:16:50Z</time>
      </trkpt>
      <trkpt lat="40.707768" lon="0.235989">
        <ele>581.0</ele>
        <time>2020-10-10T16:16:58Z</time>
      </trkpt>
      <trkpt lat="40.707658" lon="0.235950">
        <ele>580.0</ele>
        <time>2020-10-10T16:17:06Z</time>
      </trkpt>
      <trkpt lat="40.707558" lon="0.235929">
        <ele>580.8</ele>
        <time>2020-10-10T16:17:13Z</time>
      </trkpt>
      <trkpt lat="40.707463" lon="0.235922">
        <ele>580.0</ele>
        <time>2020-10-10T16:17:19Z</time>
      </trkpt>
      <trkpt lat="40.707337" lon="0.235907">
        <ele>580.0</ele>
        <time>2020-10-10T16:17:31Z</time>
      </trkpt>
      <trkpt lat="40.707199" lon="0.235937">
        <ele>579.0</ele>
        <time>2020-10-10T16:17:43Z</time>
      </trkpt>
      <trkpt lat="40.707081" lon="0.235987">
        <ele>579.0</ele>
        <time>2020-10-10T16:17:51Z</time>
      </trkpt>
      <trkpt lat="40.706959" lon="0.235984">
        <ele>578.0</ele>
        <time>2020-10-10T16:18:06Z</time>
      </trkpt>
      <trkpt lat="40.706837" lon="0.235949">
        <ele>579.0</ele>
        <time>2020-10-10T16:18:18Z</time>
      </trkpt>
      <trkpt lat="40.706708" lon="0.235951">
        <ele>578.0</ele>
        <time>2020-10-10T16:18:30Z</time>
      </trkpt>
      <trkpt lat="40.706563" lon="0.235986">
        <ele>578.0</ele>
        <time>2020-10-10T16:18:42Z</time>
      </trkpt>
      <trkpt lat="40.706473" lon="0.236021">
        <ele>578.0</ele>
        <time>2020-10-10T16:18:54Z</time>
      </trkpt>
      <trkpt lat="40.706401" lon="0.235920">
        <ele>578.0</ele>
        <time>2020-10-10T16:19:34Z</time>
      </trkpt>
      <trkpt lat="40.706507" lon="0.235751">
        <ele>578.0</ele>
        <time>2020-10-10T16:19:42Z</time>
      </trkpt>
      <trkpt lat="40.706593" lon="0.235655">
        <ele>578.0</ele>
        <time>2020-10-10T16:19:46Z</time>
      </trkpt>
      <trkpt lat="40.706635" lon="0.235504">
        <ele>578.0</ele>
        <time>2020-10-10T16:19:54Z</time>
      </trkpt>
      <trkpt lat="40.706483" lon="0.235420">
        <ele>579.0</ele>
        <time>2020-10-10T16:20:06Z</time>
      </trkpt>
      <trkpt lat="40.706370" lon="0.235363">
        <ele>579.0</ele>
        <time>2020-10-10T16:20:14Z</time>
      </trkpt>
      <trkpt lat="40.706365" lon="0.235206">
        <ele>580.0</ele>
        <time>2020-10-10T16:20:34Z</time>
      </trkpt>
      <trkpt lat="40.706424" lon="0.235066">
        <ele>579.0</ele>
        <time>2020-10-10T16:20:46Z</time>
      </trkpt>
      <trkpt lat="40.706451" lon="0.234923">
        <ele>579.0</ele>
        <time>2020-10-10T16:20:54Z</time>
      </trkpt>
      <trkpt lat="40.706468" lon="0.234795">
        <ele>579.0</ele>
        <time>2020-10-10T16:21:02Z</time>
      </trkpt>
      <trkpt lat="40.706487" lon="0.234636">
        <ele>580.0</ele>
        <time>2020-10-10T16:21:18Z</time>
      </trkpt>
      <trkpt lat="40.706475" lon="0.234399">
        <ele>581.0</ele>
        <time>2020-10-10T16:21:33Z</time>
      </trkpt>
      <trkpt lat="40.706510" lon="0.234276">
        <ele>581.0</ele>
        <time>2020-10-10T16:21:43Z</time>
      </trkpt>
      <trkpt lat="40.706369" lon="0.234335">
        <ele>582.0</ele>
        <time>2020-10-10T16:21:59Z</time>
      </trkpt>
      <trkpt lat="40.706621" lon="0.234383">
        <ele>582.0</ele>
        <time>2020-10-10T16:22:18Z</time>
      </trkpt>
      <trkpt lat="40.706730" lon="0.234291">
        <ele>582.0</ele>
        <time>2020-10-10T16:22:28Z</time>
      </trkpt>
      <trkpt lat="40.706545" lon="0.234279">
        <ele>583.0</ele>
        <time>2020-10-10T16:23:05Z</time>
      </trkpt>
      <trkpt lat="40.706792" lon="0.234349">
        <ele>584.0</ele>
        <time>2020-10-10T16:23:21Z</time>
      </trkpt>
      <trkpt lat="40.706503" lon="0.234310">
        <ele>585.0</ele>
        <time>2020-10-10T16:23:33Z</time>
      </trkpt>
      <trkpt lat="40.705969" lon="0.234261">
        <ele>585.0</ele>
        <time>2020-10-10T16:23:41Z</time>
      </trkpt>
      <trkpt lat="40.705176" lon="0.234269">
        <ele>586.0</ele>
        <time>2020-10-10T16:23:47Z</time>
      </trkpt>
      <trkpt lat="40.704953" lon="0.234259">
        <ele>586.0</ele>
        <time>2020-10-10T16:23:51Z</time>
      </trkpt>
      <trkpt lat="40.704813" lon="0.234252">
        <ele>586.0</ele>
        <time>2020-10-10T16:23:56Z</time>
      </trkpt>
      <trkpt lat="40.704714" lon="0.234239">
        <ele>586.0</ele>
        <time>2020-10-10T16:24:02Z</time>
      </trkpt>
      <trkpt lat="40.704571" lon="0.234249">
        <ele>586.0</ele>
        <time>2020-10-10T16:24:10Z</time>
      </trkpt>
      <trkpt lat="40.704401" lon="0.234310">
        <ele>586.0</ele>
        <time>2020-10-10T16:24:22Z</time>
      </trkpt>
      <trkpt lat="40.704223" lon="0.234421">
        <ele>586.0</ele>
        <time>2020-10-10T16:24:34Z</time>
      </trkpt>
      <trkpt lat="40.704125" lon="0.234468">
        <ele>587.0</ele>
        <time>2020-10-10T16:24:42Z</time>
      </trkpt>
      <trkpt lat="40.704030" lon="0.234463">
        <ele>587.0</ele>
        <time>2020-10-10T16:24:48Z</time>
      </trkpt>
      <trkpt lat="40.703874" lon="0.234445">
        <ele>588.0</ele>
        <time>2020-10-10T16:25:04Z</time>
      </trkpt>
      <trkpt lat="40.703712" lon="0.234392">
        <ele>588.0</ele>
        <time>2020-10-10T16:25:15Z</time>
      </trkpt>
      <trkpt lat="40.703604" lon="0.234362">
        <ele>587.0</ele>
        <time>2020-10-10T16:25:21Z</time>
      </trkpt>
      <trkpt lat="40.703510" lon="0.234367">
        <ele>587.0</ele>
        <time>2020-10-10T16:25:33Z</time>
      </trkpt>
      <trkpt lat="40.703366" lon="0.234297">
        <ele>586.0</ele>
        <time>2020-10-10T16:25:48Z</time>
      </trkpt>
      <trkpt lat="40.703265" lon="0.234214">
        <ele>585.0</ele>
        <time>2020-10-10T16:25:57Z</time>
      </trkpt>
      <trkpt lat="40.703314" lon="0.234082">
        <ele>584.0</ele>
        <time>2020-10-10T16:26:09Z</time>
      </trkpt>
      <trkpt lat="40.703411" lon="0.234132">
        <ele>583.0</ele>
        <time>2020-10-10T16:26:21Z</time>
      </trkpt>
      <trkpt lat="40.703507" lon="0.234165">
        <ele>583.6</ele>
        <time>2020-10-10T16:26:32Z</time>
      </trkpt>
      <trkpt lat="40.703600" lon="0.234183">
        <ele>584.5</ele>
        <time>2020-10-10T16:26:50Z</time>
      </trkpt>
      <trkpt lat="40.703699" lon="0.234172">
        <ele>586.0</ele>
        <time>2020-10-10T16:27:34Z</time>
      </trkpt>
      <trkpt lat="40.703625" lon="0.234094">
        <ele>588.0</ele>
        <time>2020-10-10T16:28:39Z</time>
      </trkpt>
      <trkpt lat="40.703641" lon="0.233951">
        <ele>587.1</ele>
        <time>2020-10-10T16:28:49Z</time>
      </trkpt>
      <trkpt lat="40.703622" lon="0.233834">
        <ele>586.7</ele>
        <time>2020-10-10T16:29:12Z</time>
      </trkpt>
      <trkpt lat="40.703617" lon="0.233702">
        <ele>587.4</ele>
        <time>2020-10-10T16:29:37Z</time>
      </trkpt>
      <trkpt lat="40.703617" lon="0.233578">
        <ele>587.8</ele>
        <time>2020-10-10T16:29:51Z</time>
      </trkpt>
      <trkpt lat="40.703621" lon="0.233448">
        <ele>588.0</ele>
        <time>2020-10-10T16:29:58Z</time>
      </trkpt>
      <trkpt lat="40.703616" lon="0.233327">
        <ele>587.0</ele>
        <time>2020-10-10T16:30:12Z</time>
      </trkpt>
      <trkpt lat="40.703557" lon="0.233233">
        <ele>587.5</ele>
        <time>2020-10-10T16:30:20Z</time>
      </trkpt>
      <trkpt lat="40.703564" lon="0.233095">
        <ele>587.3</ele>
        <time>2020-10-10T16:30:27Z</time>
      </trkpt>
      <trkpt lat="40.703628" lon="0.232991">
        <ele>587.7</ele>
        <time>2020-10-10T16:30:32Z</time>
      </trkpt>
      <trkpt lat="40.703535" lon="0.232927">
        <ele>587.2</ele>
        <time>2020-10-10T16:30:46Z</time>
      </trkpt>
      <trkpt lat="40.703445" lon="0.232890">
        <ele>587.0</ele>
        <time>2020-10-10T16:30:50Z</time>
      </trkpt>
      <trkpt lat="40.703324" lon="0.232864">
        <ele>586.5</ele>
        <time>2020-10-10T16:30:54Z</time>
      </trkpt>
      <trkpt lat="40.703239" lon="0.232813">
        <ele>586.1</ele>
        <time>2020-10-10T16:30:59Z</time>
      </trkpt>
      <trkpt lat="40.703230" lon="0.232692">
        <ele>586.2</ele>
        <time>2020-10-10T16:31:06Z</time>
      </trkpt>
      <trkpt lat="40.703167" lon="0.232582">
        <ele>585.9</ele>
        <time>2020-10-10T16:31:15Z</time>
      </trkpt>
      <trkpt lat="40.703081" lon="0.232530">
        <ele>586.1</ele>
        <time>2020-10-10T16:31:20Z</time>
      </trkpt>
      <trkpt lat="40.702993" lon="0.232451">
        <ele>586.4</ele>
        <time>2020-10-10T16:31:26Z</time>
      </trkpt>
      <trkpt lat="40.702902" lon="0.232418">
        <ele>586.4</ele>
        <time>2020-10-10T16:31:32Z</time>
      </trkpt>
      <trkpt lat="40.702807" lon="0.232333">
        <ele>586.0</ele>
        <time>2020-10-10T16:31:43Z</time>
      </trkpt>
      <trkpt lat="40.702723" lon="0.232132">
        <ele>586.0</ele>
        <time>2020-10-10T16:32:00Z</time>
      </trkpt>
      <trkpt lat="40.702675" lon="0.231281">
        <ele>585.0</ele>
        <time>2020-10-10T16:33:22Z</time>
      </trkpt>
      <trkpt lat="40.702782" lon="0.231255">
        <ele>584.3</ele>
        <time>2020-10-10T16:33:25Z</time>
      </trkpt>
      <trkpt lat="40.702774" lon="0.230832">
        <ele>582.0</ele>
        <time>2020-10-10T16:33:49Z</time>
      </trkpt>
      <trkpt lat="40.702861" lon="0.230739">
        <ele>581.0</ele>
        <time>2020-10-10T16:34:01Z</time>
      </trkpt>
      <trkpt lat="40.702869" lon="0.230566">
        <ele>580.0</ele>
        <time>2020-10-10T16:34:17Z</time>
      </trkpt>
      <trkpt lat="40.702842" lon="0.230421">
        <ele>579.0</ele>
        <time>2020-10-10T16:34:25Z</time>
      </trkpt>
      <trkpt lat="40.702772" lon="0.230323">
        <ele>579.0</ele>
        <time>2020-10-10T16:34:34Z</time>
      </trkpt>
      <trkpt lat="40.702912" lon="0.230277">
        <ele>579.4</ele>
        <time>2020-10-10T16:34:39Z</time>
      </trkpt>
      <trkpt lat="40.703049" lon="0.230147">
        <ele>579.2</ele>
        <time>2020-10-10T16:34:49Z</time>
      </trkpt>
      <trkpt lat="40.703132" lon="0.230061">
        <ele>579.0</ele>
        <time>2020-10-10T16:34:53Z</time>
      </trkpt>
      <trkpt lat="40.703193" lon="0.229963">
        <ele>578.0</ele>
        <time>2020-10-10T16:35:00Z</time>
      </trkpt>
      <trkpt lat="40.703272" lon="0.229895">
        <ele>578.7</ele>
        <time>2020-10-10T16:35:05Z</time>
      </trkpt>
      <trkpt lat="40.703327" lon="0.229782">
        <ele>579.4</ele>
        <time>2020-10-10T16:35:26Z</time>
      </trkpt>
      <trkpt lat="40.703410" lon="0.229726">
        <ele>579.6</ele>
        <time>2020-10-10T16:35:31Z</time>
      </trkpt>
      <trkpt lat="40.703366" lon="0.229844">
        <ele>580.6</ele>
        <time>2020-10-10T16:35:52Z</time>
      </trkpt>
      <trkpt lat="40.703269" lon="0.229875">
        <ele>580.8</ele>
        <time>2020-10-10T16:36:01Z</time>
      </trkpt>
      <trkpt lat="40.703176" lon="0.229923">
        <ele>581.0</ele>
        <time>2020-10-10T16:36:07Z</time>
      </trkpt>
      <trkpt lat="40.703083" lon="0.229984">
        <ele>581.2</ele>
        <time>2020-10-10T16:36:13Z</time>
      </trkpt>
      <trkpt lat="40.703188" lon="0.229883">
        <ele>581.3</ele>
        <time>2020-10-10T16:36:30Z</time>
      </trkpt>
      <trkpt lat="40.703268" lon="0.229777">
        <ele>581.4</ele>
        <time>2020-10-10T16:36:33Z</time>
      </trkpt>
      <trkpt lat="40.703341" lon="0.229672">
        <ele>581.5</ele>
        <time>2020-10-10T16:36:39Z</time>
      </trkpt>
      <trkpt lat="40.703389" lon="0.229559">
        <ele>581.2</ele>
        <time>2020-10-10T16:36:47Z</time>
      </trkpt>
      <trkpt lat="40.703417" lon="0.229425">
        <ele>581.1</ele>
        <time>2020-10-10T16:37:00Z</time>
      </trkpt>
      <trkpt lat="40.703469" lon="0.229301">
        <ele>581.2</ele>
        <time>2020-10-10T16:37:06Z</time>
      </trkpt>
      <trkpt lat="40.703489" lon="0.229168">
        <ele>580.7</ele>
        <time>2020-10-10T16:37:17Z</time>
      </trkpt>
      <trkpt lat="40.703470" lon="0.229047">
        <ele>581.1</ele>
        <time>2020-10-10T16:37:23Z</time>
      </trkpt>
      <trkpt lat="40.703441" lon="0.228930">
        <ele>581.3</ele>
        <time>2020-10-10T16:37:29Z</time>
      </trkpt>
      <trkpt lat="40.703446" lon="0.228805">
        <ele>581.9</ele>
        <time>2020-10-10T16:37:40Z</time>
      </trkpt>
      <trkpt lat="40.703352" lon="0.228736">
        <ele>582.0</ele>
        <time>2020-10-10T16:37:48Z</time>
      </trkpt>
      <trkpt lat="40.703235" lon="0.228695">
        <ele>582.4</ele>
        <time>2020-10-10T16:37:53Z</time>
      </trkpt>
      <trkpt lat="40.703141" lon="0.228658">
        <ele>582.3</ele>
        <time>2020-10-10T16:37:57Z</time>
      </trkpt>
      <trkpt lat="40.703069" lon="0.228582">
        <ele>582.2</ele>
        <time>2020-10-10T16:38:03Z</time>
      </trkpt>
      <trkpt lat="40.702991" lon="0.228515">
        <ele>582.3</ele>
        <time>2020-10-10T16:38:09Z</time>
      </trkpt>
      <trkpt lat="40.702896" lon="0.228465">
        <ele>582.6</ele>
        <time>2020-10-10T16:38:15Z</time>
      </trkpt>
      <trkpt lat="40.702839" lon="0.228362">
        <ele>582.6</ele>
        <time>2020-10-10T16:38:19Z</time>
      </trkpt>
      <trkpt lat="40.702774" lon="0.228269">
        <ele>582.3</ele>
        <time>2020-10-10T16:38:27Z</time>
      </trkpt>
      <trkpt lat="40.702692" lon="0.228214">
        <ele>582.0</ele>
        <time>2020-10-10T16:38:32Z</time>
      </trkpt>
      <trkpt lat="40.702603" lon="0.228156">
        <ele>581.4</ele>
        <time>2020-10-10T16:38:40Z</time>
      </trkpt>
      <trkpt lat="40.702504" lon="0.228153">
        <ele>580.9</ele>
        <time>2020-10-10T16:38:48Z</time>
      </trkpt>
      <trkpt lat="40.702404" lon="0.228162">
        <ele>580.2</ele>
        <time>2020-10-10T16:38:53Z</time>
      </trkpt>
      <trkpt lat="40.702303" lon="0.228109">
        <ele>579.5</ele>
        <time>2020-10-10T16:39:00Z</time>
      </trkpt>
      <trkpt lat="40.702352" lon="0.227999">
        <ele>579.3</ele>
        <time>2020-10-10T16:39:06Z</time>
      </trkpt>
      <trkpt lat="40.702252" lon="0.227996">
        <ele>579.1</ele>
        <time>2020-10-10T16:39:16Z</time>
      </trkpt>
      <trkpt lat="40.702152" lon="0.227998">
        <ele>579.7</ele>
        <time>2020-10-10T16:39:26Z</time>
      </trkpt>
      <trkpt lat="40.702058" lon="0.227962">
        <ele>580.1</ele>
        <time>2020-10-10T16:39:32Z</time>
      </trkpt>
      <trkpt lat="40.701971" lon="0.227910">
        <ele>580.7</ele>
        <time>2020-10-10T16:39:39Z</time>
      </trkpt>
      <trkpt lat="40.701873" lon="0.227887">
        <ele>581.7</ele>
        <time>2020-10-10T16:39:58Z</time>
      </trkpt>
      <trkpt lat="40.701790" lon="0.227826">
        <ele>582.3</ele>
        <time>2020-10-10T16:40:08Z</time>
      </trkpt>
      <trkpt lat="40.701698" lon="0.227787">
        <ele>582.7</ele>
        <time>2020-10-10T16:40:16Z</time>
      </trkpt>
      <trkpt lat="40.701618" lon="0.227731">
        <ele>582.8</ele>
        <time>2020-10-10T16:40:21Z</time>
      </trkpt>
      <trkpt lat="40.701526" lon="0.227683">
        <ele>582.8</ele>
        <time>2020-10-10T16:40:26Z</time>
      </trkpt>
      <trkpt lat="40.701447" lon="0.227602">
        <ele>582.7</ele>
        <time>2020-10-10T16:40:33Z</time>
      </trkpt>
      <trkpt lat="40.701386" lon="0.227502">
        <ele>583.7</ele>
        <time>2020-10-10T16:41:03Z</time>
      </trkpt>
      <trkpt lat="40.701287" lon="0.227511">
        <ele>582.8</ele>
        <time>2020-10-10T16:41:19Z</time>
      </trkpt>
      <trkpt lat="40.701204" lon="0.227436">
        <ele>582.9</ele>
        <time>2020-10-10T16:41:25Z</time>
      </trkpt>
      <trkpt lat="40.701125" lon="0.227344">
        <ele>582.3</ele>
        <time>2020-10-10T16:41:32Z</time>
      </trkpt>
      <trkpt lat="40.701039" lon="0.227282">
        <ele>581.8</ele>
        <time>2020-10-10T16:41:40Z</time>
      </trkpt>
      <trkpt lat="40.700959" lon="0.227221">
        <ele>581.5</ele>
        <time>2020-10-10T16:41:46Z</time>
      </trkpt>
      <trkpt lat="40.700865" lon="0.227202">
        <ele>581.8</ele>
        <time>2020-10-10T16:41:59Z</time>
      </trkpt>
      <trkpt lat="40.700770" lon="0.227181">
        <ele>582.3</ele>
        <time>2020-10-10T16:42:11Z</time>
      </trkpt>
      <trkpt lat="40.700678" lon="0.227134">
        <ele>582.5</ele>
        <time>2020-10-10T16:42:21Z</time>
      </trkpt>
      <trkpt lat="40.700592" lon="0.227089">
        <ele>583.1</ele>
        <time>2020-10-10T16:42:28Z</time>
      </trkpt>
      <trkpt lat="40.700506" lon="0.227036">
        <ele>584.1</ele>
        <time>2020-10-10T16:42:37Z</time>
      </trkpt>
      <trkpt lat="40.700417" lon="0.226999">
        <ele>585.6</ele>
        <time>2020-10-10T16:42:46Z</time>
      </trkpt>
      <trkpt lat="40.700318" lon="0.226992">
        <ele>587.0</ele>
        <time>2020-10-10T16:42:58Z</time>
      </trkpt>
      <trkpt lat="40.700224" lon="0.226983">
        <ele>587.0</ele>
        <time>2020-10-10T16:43:08Z</time>
      </trkpt>
      <trkpt lat="40.700121" lon="0.226972">
        <ele>587.7</ele>
        <time>2020-10-10T16:43:12Z</time>
      </trkpt>
      <trkpt lat="40.699984" lon="0.226994">
        <ele>587.9</ele>
        <time>2020-10-10T16:43:23Z</time>
      </trkpt>
      <trkpt lat="40.699894" lon="0.226979">
        <ele>588.0</ele>
        <time>2020-10-10T16:43:29Z</time>
      </trkpt>
      <trkpt lat="40.699805" lon="0.227028">
        <ele>588.0</ele>
        <time>2020-10-10T16:43:34Z</time>
      </trkpt>
      <trkpt lat="40.699729" lon="0.226955">
        <ele>588.1</ele>
        <time>2020-10-10T16:43:40Z</time>
      </trkpt>
      <trkpt lat="40.699634" lon="0.226958">
        <ele>588.1</ele>
        <time>2020-10-10T16:43:50Z</time>
      </trkpt>
      <trkpt lat="40.699539" lon="0.227010">
        <ele>588.3</ele>
        <time>2020-10-10T16:43:54Z</time>
      </trkpt>
      <trkpt lat="40.699450" lon="0.227050">
        <ele>588.1</ele>
        <time>2020-10-10T16:44:00Z</time>
      </trkpt>
      <trkpt lat="40.699367" lon="0.227103">
        <ele>588.3</ele>
        <time>2020-10-10T16:44:11Z</time>
      </trkpt>
      <trkpt lat="40.699356" lon="0.227133">
        <ele>588.6</ele>
        <time>2020-10-10T16:44:14Z</time>
      </trkpt>
    </trkseg>
  </trk>
</gpx>
